<?xml version="1.0" encoding="UTF-8" standalone="no" ?>
<gpx xmlns="http://www.topografix.com/GPX/1/1" xmlns:xsi="http://www.w3.org/2001/XMLSchema-instance" xsi:schemaLocation="http://www.topografix.com/GPX/1/1 http://www.topografix.com/GPX/1/1/gpx.xsd" version="1.1" creator="VisuGPX - https://www.visugpx.com">
  <metadata>
    <name>Bréel Nord (14)</name>
    <desc><![CDATA[Suisse Normande, beaux sentiers et belle vues]]></desc>
  </metadata>
  <trk>
    <name><![CDATA[SN16 BVA SamAp fait]]></name>
    <trkseg>
      <trkpt lat="48.81308" lon="-0.389">
        <ele>131</ele>
        <time>2016-05-21T14:14:14Z</time>
      </trkpt>
      <trkpt lat="48.81313" lon="-0.38925">
        <ele>142</ele>
        <time>2016-05-21T14:20:38Z</time>
      </trkpt>
      <trkpt lat="48.81303" lon="-0.38933">
        <ele>142</ele>
        <time>2016-05-21T14:20:42Z</time>
      </trkpt>
      <trkpt lat="48.8129" lon="-0.38945">
        <ele>141</ele>
        <time>2016-05-21T14:20:47Z</time>
      </trkpt>
      <trkpt lat="48.81295" lon="-0.3897">
        <ele>139</ele>
        <time>2016-05-21T14:20:52Z</time>
      </trkpt>
      <trkpt lat="48.813" lon="-0.38993">
        <ele>137</ele>
        <time>2016-05-21T14:20:57Z</time>
      </trkpt>
      <trkpt lat="48.81305" lon="-0.39018">
        <ele>137</ele>
        <time>2016-05-21T14:21:01Z</time>
      </trkpt>
      <trkpt lat="48.81315" lon="-0.39048">
        <ele>135</ele>
        <time>2016-05-21T14:21:04Z</time>
      </trkpt>
      <trkpt lat="48.8132" lon="-0.3907">
        <ele>135</ele>
        <time>2016-05-21T14:21:07Z</time>
      </trkpt>
      <trkpt lat="48.81325" lon="-0.39093">
        <ele>134</ele>
        <time>2016-05-21T14:21:11Z</time>
      </trkpt>
      <trkpt lat="48.81333" lon="-0.3913">
        <ele>133</ele>
        <time>2016-05-21T14:21:16Z</time>
      </trkpt>
      <trkpt lat="48.81335" lon="-0.39155">
        <ele>131</ele>
        <time>2016-05-21T14:21:19Z</time>
      </trkpt>
      <trkpt lat="48.8134" lon="-0.3919">
        <ele>130</ele>
        <time>2016-05-21T14:21:23Z</time>
      </trkpt>
      <trkpt lat="48.81333" lon="-0.39208">
        <ele>130</ele>
        <time>2016-05-21T14:21:28Z</time>
      </trkpt>
      <trkpt lat="48.81315" lon="-0.3921">
        <ele>129</ele>
        <time>2016-05-21T14:21:35Z</time>
      </trkpt>
      <trkpt lat="48.8128" lon="-0.39218">
        <ele>128</ele>
        <time>2016-05-21T14:21:44Z</time>
      </trkpt>
      <trkpt lat="48.81255" lon="-0.39223">
        <ele>128</ele>
        <time>2016-05-21T14:21:50Z</time>
      </trkpt>
      <trkpt lat="48.8124" lon="-0.39223">
        <ele>127</ele>
        <time>2016-05-21T14:21:53Z</time>
      </trkpt>
      <trkpt lat="48.81225" lon="-0.3922">
        <ele>127</ele>
        <time>2016-05-21T14:21:57Z</time>
      </trkpt>
      <trkpt lat="48.81208" lon="-0.39223">
        <ele>126</ele>
        <time>2016-05-21T14:22:00Z</time>
      </trkpt>
      <trkpt lat="48.81188" lon="-0.39228">
        <ele>125</ele>
        <time>2016-05-21T14:22:04Z</time>
      </trkpt>
      <trkpt lat="48.81173" lon="-0.3925">
        <ele>125</ele>
        <time>2016-05-21T14:22:07Z</time>
      </trkpt>
      <trkpt lat="48.81165" lon="-0.39273">
        <ele>124</ele>
        <time>2016-05-21T14:22:10Z</time>
      </trkpt>
      <trkpt lat="48.81158" lon="-0.3929">
        <ele>125</ele>
        <time>2016-05-21T14:22:12Z</time>
      </trkpt>
      <trkpt lat="48.81155" lon="-0.39313">
        <ele>127</ele>
        <time>2016-05-21T14:22:15Z</time>
      </trkpt>
      <trkpt lat="48.8115" lon="-0.3934">
        <ele>127</ele>
        <time>2016-05-21T14:22:19Z</time>
      </trkpt>
      <trkpt lat="48.8115" lon="-0.39365">
        <ele>126</ele>
        <time>2016-05-21T14:22:24Z</time>
      </trkpt>
      <trkpt lat="48.8115" lon="-0.39393">
        <ele>126</ele>
        <time>2016-05-21T14:22:29Z</time>
      </trkpt>
      <trkpt lat="48.81148" lon="-0.3942">
        <ele>125</ele>
        <time>2016-05-21T14:22:33Z</time>
      </trkpt>
      <trkpt lat="48.8114" lon="-0.39445">
        <ele>124</ele>
        <time>2016-05-21T14:22:36Z</time>
      </trkpt>
      <trkpt lat="48.81133" lon="-0.39465">
        <ele>124</ele>
        <time>2016-05-21T14:22:39Z</time>
      </trkpt>
      <trkpt lat="48.81118" lon="-0.39465">
        <ele>125</ele>
        <time>2016-05-21T14:22:47Z</time>
      </trkpt>
      <trkpt lat="48.8111" lon="-0.39448">
        <ele>126</ele>
        <time>2016-05-21T14:22:53Z</time>
      </trkpt>
      <trkpt lat="48.81103" lon="-0.39428">
        <ele>126</ele>
        <time>2016-05-21T14:23:00Z</time>
      </trkpt>
      <trkpt lat="48.81095" lon="-0.39405">
        <ele>126</ele>
        <time>2016-05-21T14:23:04Z</time>
      </trkpt>
      <trkpt lat="48.81085" lon="-0.39388">
        <ele>126</ele>
        <time>2016-05-21T14:23:11Z</time>
      </trkpt>
      <trkpt lat="48.8107" lon="-0.3939">
        <ele>125</ele>
        <time>2016-05-21T14:23:18Z</time>
      </trkpt>
      <trkpt lat="48.81063" lon="-0.39408">
        <ele>123</ele>
        <time>2016-05-21T14:23:28Z</time>
      </trkpt>
      <trkpt lat="48.81055" lon="-0.39428">
        <ele>122</ele>
        <time>2016-05-21T14:23:31Z</time>
      </trkpt>
      <trkpt lat="48.81048" lon="-0.3945">
        <ele>121</ele>
        <time>2016-05-21T14:23:34Z</time>
      </trkpt>
      <trkpt lat="48.8104" lon="-0.39468">
        <ele>120</ele>
        <time>2016-05-21T14:23:39Z</time>
      </trkpt>
      <trkpt lat="48.81033" lon="-0.39488">
        <ele>119</ele>
        <time>2016-05-21T14:23:43Z</time>
      </trkpt>
      <trkpt lat="48.81023" lon="-0.39505">
        <ele>118</ele>
        <time>2016-05-21T14:23:51Z</time>
      </trkpt>
      <trkpt lat="48.81015" lon="-0.39523">
        <ele>117</ele>
        <time>2016-05-21T14:23:57Z</time>
      </trkpt>
      <trkpt lat="48.81008" lon="-0.39543">
        <ele>118</ele>
        <time>2016-05-21T14:24:02Z</time>
      </trkpt>
      <trkpt lat="48.80998" lon="-0.3956">
        <ele>117</ele>
        <time>2016-05-21T14:24:07Z</time>
      </trkpt>
      <trkpt lat="48.80985" lon="-0.39573">
        <ele>116</ele>
        <time>2016-05-21T14:24:12Z</time>
      </trkpt>
      <trkpt lat="48.80975" lon="-0.39588">
        <ele>116</ele>
        <time>2016-05-21T14:24:17Z</time>
      </trkpt>
      <trkpt lat="48.80983" lon="-0.39605">
        <ele>117</ele>
        <time>2016-05-21T14:24:24Z</time>
      </trkpt>
      <trkpt lat="48.8099" lon="-0.39623">
        <ele>117</ele>
        <time>2016-05-21T14:24:27Z</time>
      </trkpt>
      <trkpt lat="48.80998" lon="-0.3964">
        <ele>116</ele>
        <time>2016-05-21T14:24:32Z</time>
      </trkpt>
      <trkpt lat="48.81013" lon="-0.39653">
        <ele>117</ele>
        <time>2016-05-21T14:24:36Z</time>
      </trkpt>
      <trkpt lat="48.81023" lon="-0.39668">
        <ele>115</ele>
        <time>2016-05-21T14:24:40Z</time>
      </trkpt>
      <trkpt lat="48.81038" lon="-0.3967">
        <ele>114</ele>
        <time>2016-05-21T14:24:45Z</time>
      </trkpt>
      <trkpt lat="48.8107" lon="-0.39673">
        <ele>110</ele>
        <time>2016-05-21T14:26:39Z</time>
      </trkpt>
      <trkpt lat="48.81085" lon="-0.39673">
        <ele>111</ele>
        <time>2016-05-21T14:26:45Z</time>
      </trkpt>
      <trkpt lat="48.81098" lon="-0.39688">
        <ele>109</ele>
        <time>2016-05-21T14:26:51Z</time>
      </trkpt>
      <trkpt lat="48.8111" lon="-0.39705">
        <ele>106</ele>
        <time>2016-05-21T14:26:55Z</time>
      </trkpt>
      <trkpt lat="48.81123" lon="-0.39725">
        <ele>105</ele>
        <time>2016-05-21T14:26:58Z</time>
      </trkpt>
      <trkpt lat="48.81133" lon="-0.39743">
        <ele>103</ele>
        <time>2016-05-21T14:27:03Z</time>
      </trkpt>
      <trkpt lat="48.81145" lon="-0.3976">
        <ele>102</ele>
        <time>2016-05-21T14:27:06Z</time>
      </trkpt>
      <trkpt lat="48.81158" lon="-0.39773">
        <ele>105</ele>
        <time>2016-05-21T14:27:10Z</time>
      </trkpt>
      <trkpt lat="48.81173" lon="-0.3978">
        <ele>106</ele>
        <time>2016-05-21T14:27:16Z</time>
      </trkpt>
      <trkpt lat="48.81185" lon="-0.39795">
        <ele>107</ele>
        <time>2016-05-21T14:27:22Z</time>
      </trkpt>
      <trkpt lat="48.81195" lon="-0.3981">
        <ele>107</ele>
        <time>2016-05-21T14:27:26Z</time>
      </trkpt>
      <trkpt lat="48.81205" lon="-0.39825">
        <ele>107</ele>
        <time>2016-05-21T14:27:31Z</time>
      </trkpt>
      <trkpt lat="48.81218" lon="-0.3984">
        <ele>108</ele>
        <time>2016-05-21T14:27:35Z</time>
      </trkpt>
      <trkpt lat="48.8123" lon="-0.39853">
        <ele>108</ele>
        <time>2016-05-21T14:27:40Z</time>
      </trkpt>
      <trkpt lat="48.81243" lon="-0.39863">
        <ele>110</ele>
        <time>2016-05-21T14:27:46Z</time>
      </trkpt>
      <trkpt lat="48.81258" lon="-0.39868">
        <ele>111</ele>
        <time>2016-05-21T14:27:51Z</time>
      </trkpt>
      <trkpt lat="48.81273" lon="-0.3987">
        <ele>111</ele>
        <time>2016-05-21T14:27:57Z</time>
      </trkpt>
      <trkpt lat="48.81285" lon="-0.3988">
        <ele>113</ele>
        <time>2016-05-21T14:28:06Z</time>
      </trkpt>
      <trkpt lat="48.8129" lon="-0.399">
        <ele>113</ele>
        <time>2016-05-21T14:28:15Z</time>
      </trkpt>
      <trkpt lat="48.81295" lon="-0.39925">
        <ele>119</ele>
        <time>2016-05-21T14:28:27Z</time>
      </trkpt>
      <trkpt lat="48.81303" lon="-0.39948">
        <ele>120</ele>
        <time>2016-05-21T14:28:36Z</time>
      </trkpt>
      <trkpt lat="48.81308" lon="-0.39973">
        <ele>122</ele>
        <time>2016-05-21T14:28:43Z</time>
      </trkpt>
      <trkpt lat="48.81313" lon="-0.39998">
        <ele>123</ele>
        <time>2016-05-21T14:28:52Z</time>
      </trkpt>
      <trkpt lat="48.81318" lon="-0.40018">
        <ele>125</ele>
        <time>2016-05-21T14:28:59Z</time>
      </trkpt>
      <trkpt lat="48.81323" lon="-0.4004">
        <ele>128</ele>
        <time>2016-05-21T14:29:09Z</time>
      </trkpt>
      <trkpt lat="48.81333" lon="-0.40055">
        <ele>137</ele>
        <time>2016-05-21T14:29:44Z</time>
      </trkpt>
      <trkpt lat="48.8134" lon="-0.40075">
        <ele>135</ele>
        <time>2016-05-21T14:29:51Z</time>
      </trkpt>
      <trkpt lat="48.8135" lon="-0.4009">
        <ele>135</ele>
        <time>2016-05-21T14:29:57Z</time>
      </trkpt>
      <trkpt lat="48.81358" lon="-0.40108">
        <ele>134</ele>
        <time>2016-05-21T14:30:03Z</time>
      </trkpt>
      <trkpt lat="48.81368" lon="-0.40128">
        <ele>132</ele>
        <time>2016-05-21T14:30:08Z</time>
      </trkpt>
      <trkpt lat="48.81375" lon="-0.40148">
        <ele>130</ele>
        <time>2016-05-21T14:30:12Z</time>
      </trkpt>
      <trkpt lat="48.8138" lon="-0.40168">
        <ele>129</ele>
        <time>2016-05-21T14:30:18Z</time>
      </trkpt>
      <trkpt lat="48.81385" lon="-0.40188">
        <ele>129</ele>
        <time>2016-05-21T14:30:24Z</time>
      </trkpt>
      <trkpt lat="48.81378" lon="-0.40205">
        <ele>133</ele>
        <time>2016-05-21T14:32:10Z</time>
      </trkpt>
      <trkpt lat="48.81363" lon="-0.40215">
        <ele>133</ele>
        <time>2016-05-21T14:32:14Z</time>
      </trkpt>
      <trkpt lat="48.81348" lon="-0.40223">
        <ele>132</ele>
        <time>2016-05-21T14:32:17Z</time>
      </trkpt>
      <trkpt lat="48.81328" lon="-0.40228">
        <ele>131</ele>
        <time>2016-05-21T14:32:22Z</time>
      </trkpt>
      <trkpt lat="48.81278" lon="-0.40243">
        <ele>130</ele>
        <time>2016-05-21T14:32:31Z</time>
      </trkpt>
      <trkpt lat="48.81268" lon="-0.40263">
        <ele>129</ele>
        <time>2016-05-21T14:32:34Z</time>
      </trkpt>
      <trkpt lat="48.81265" lon="-0.4029">
        <ele>130</ele>
        <time>2016-05-21T14:32:39Z</time>
      </trkpt>
      <trkpt lat="48.8126" lon="-0.40318">
        <ele>131</ele>
        <time>2016-05-21T14:32:42Z</time>
      </trkpt>
      <trkpt lat="48.81253" lon="-0.4034">
        <ele>133</ele>
        <time>2016-05-21T14:32:47Z</time>
      </trkpt>
      <trkpt lat="48.81245" lon="-0.4036">
        <ele>133</ele>
        <time>2016-05-21T14:32:51Z</time>
      </trkpt>
      <trkpt lat="48.81238" lon="-0.40383">
        <ele>134</ele>
        <time>2016-05-21T14:32:55Z</time>
      </trkpt>
      <trkpt lat="48.8123" lon="-0.40405">
        <ele>136</ele>
        <time>2016-05-21T14:32:59Z</time>
      </trkpt>
      <trkpt lat="48.81223" lon="-0.40433">
        <ele>139</ele>
        <time>2016-05-21T14:33:06Z</time>
      </trkpt>
      <trkpt lat="48.81215" lon="-0.40453">
        <ele>139</ele>
        <time>2016-05-21T14:33:11Z</time>
      </trkpt>
      <trkpt lat="48.81215" lon="-0.40475">
        <ele>141</ele>
        <time>2016-05-21T14:33:16Z</time>
      </trkpt>
      <trkpt lat="48.81215" lon="-0.40498">
        <ele>143</ele>
        <time>2016-05-21T14:33:21Z</time>
      </trkpt>
      <trkpt lat="48.81218" lon="-0.4052">
        <ele>144</ele>
        <time>2016-05-21T14:33:27Z</time>
      </trkpt>
      <trkpt lat="48.81218" lon="-0.4055">
        <ele>144</ele>
        <time>2016-05-21T14:33:33Z</time>
      </trkpt>
      <trkpt lat="48.81223" lon="-0.40573">
        <ele>145</ele>
        <time>2016-05-21T14:33:37Z</time>
      </trkpt>
      <trkpt lat="48.81228" lon="-0.40595">
        <ele>147</ele>
        <time>2016-05-21T14:33:42Z</time>
      </trkpt>
      <trkpt lat="48.81235" lon="-0.40615">
        <ele>148</ele>
        <time>2016-05-21T14:33:47Z</time>
      </trkpt>
      <trkpt lat="48.81248" lon="-0.40645">
        <ele>148</ele>
        <time>2016-05-21T14:33:55Z</time>
      </trkpt>
      <trkpt lat="48.81255" lon="-0.40665">
        <ele>149</ele>
        <time>2016-05-21T14:34:03Z</time>
      </trkpt>
      <trkpt lat="48.8127" lon="-0.40663">
        <ele>154</ele>
        <time>2016-05-21T14:34:32Z</time>
      </trkpt>
      <trkpt lat="48.81288" lon="-0.40655">
        <ele>154</ele>
        <time>2016-05-21T14:34:37Z</time>
      </trkpt>
      <trkpt lat="48.81305" lon="-0.40648">
        <ele>155</ele>
        <time>2016-05-21T14:34:41Z</time>
      </trkpt>
      <trkpt lat="48.8132" lon="-0.40645">
        <ele>156</ele>
        <time>2016-05-21T14:34:47Z</time>
      </trkpt>
      <trkpt lat="48.81345" lon="-0.40643">
        <ele>156</ele>
        <time>2016-05-21T14:34:53Z</time>
      </trkpt>
      <trkpt lat="48.8136" lon="-0.40638">
        <ele>156</ele>
        <time>2016-05-21T14:34:57Z</time>
      </trkpt>
      <trkpt lat="48.81375" lon="-0.40628">
        <ele>155</ele>
        <time>2016-05-21T14:35:00Z</time>
      </trkpt>
      <trkpt lat="48.8139" lon="-0.40623">
        <ele>155</ele>
        <time>2016-05-21T14:35:03Z</time>
      </trkpt>
      <trkpt lat="48.81408" lon="-0.40625">
        <ele>156</ele>
        <time>2016-05-21T14:35:07Z</time>
      </trkpt>
      <trkpt lat="48.8142" lon="-0.4064">
        <ele>155</ele>
        <time>2016-05-21T14:35:11Z</time>
      </trkpt>
      <trkpt lat="48.81438" lon="-0.4064">
        <ele>156</ele>
        <time>2016-05-21T14:35:15Z</time>
      </trkpt>
      <trkpt lat="48.81453" lon="-0.40635">
        <ele>156</ele>
        <time>2016-05-21T14:35:17Z</time>
      </trkpt>
      <trkpt lat="48.81478" lon="-0.40628">
        <ele>156</ele>
        <time>2016-05-21T14:35:21Z</time>
      </trkpt>
      <trkpt lat="48.81495" lon="-0.4062">
        <ele>155</ele>
        <time>2016-05-21T14:35:25Z</time>
      </trkpt>
      <trkpt lat="48.8151" lon="-0.40615">
        <ele>155</ele>
        <time>2016-05-21T14:35:27Z</time>
      </trkpt>
      <trkpt lat="48.81528" lon="-0.40608">
        <ele>154</ele>
        <time>2016-05-21T14:35:30Z</time>
      </trkpt>
      <trkpt lat="48.81543" lon="-0.40603">
        <ele>154</ele>
        <time>2016-05-21T14:35:32Z</time>
      </trkpt>
      <trkpt lat="48.81555" lon="-0.40593">
        <ele>154</ele>
        <time>2016-05-21T14:35:34Z</time>
      </trkpt>
      <trkpt lat="48.8158" lon="-0.40578">
        <ele>152</ele>
        <time>2016-05-21T14:35:37Z</time>
      </trkpt>
      <trkpt lat="48.81593" lon="-0.4059">
        <ele>151</ele>
        <time>2016-05-21T14:35:40Z</time>
      </trkpt>
      <trkpt lat="48.81593" lon="-0.40618">
        <ele>148</ele>
        <time>2016-05-21T14:35:44Z</time>
      </trkpt>
      <trkpt lat="48.81605" lon="-0.4063">
        <ele>147</ele>
        <time>2016-05-21T14:35:48Z</time>
      </trkpt>
      <trkpt lat="48.81618" lon="-0.40643">
        <ele>147</ele>
        <time>2016-05-21T14:35:52Z</time>
      </trkpt>
      <trkpt lat="48.81658" lon="-0.4067">
        <ele>143</ele>
        <time>2016-05-21T14:36:35Z</time>
      </trkpt>
      <trkpt lat="48.81673" lon="-0.40678">
        <ele>142</ele>
        <time>2016-05-21T14:36:52Z</time>
      </trkpt>
      <trkpt lat="48.81688" lon="-0.4067">
        <ele>142</ele>
        <time>2016-05-21T14:37:12Z</time>
      </trkpt>
      <trkpt lat="48.817" lon="-0.4066">
        <ele>142</ele>
        <time>2016-05-21T14:37:22Z</time>
      </trkpt>
      <trkpt lat="48.81713" lon="-0.4065">
        <ele>144</ele>
        <time>2016-05-21T14:37:32Z</time>
      </trkpt>
      <trkpt lat="48.81728" lon="-0.40643">
        <ele>144</ele>
        <time>2016-05-21T14:37:42Z</time>
      </trkpt>
      <trkpt lat="48.81743" lon="-0.4064">
        <ele>144</ele>
        <time>2016-05-21T14:37:49Z</time>
      </trkpt>
      <trkpt lat="48.8175" lon="-0.40658">
        <ele>144</ele>
        <time>2016-05-21T14:37:57Z</time>
      </trkpt>
      <trkpt lat="48.81755" lon="-0.40678">
        <ele>143</ele>
        <time>2016-05-21T14:38:02Z</time>
      </trkpt>
      <trkpt lat="48.81765" lon="-0.40698">
        <ele>143</ele>
        <time>2016-05-21T14:38:08Z</time>
      </trkpt>
      <trkpt lat="48.81778" lon="-0.40713">
        <ele>143</ele>
        <time>2016-05-21T14:38:15Z</time>
      </trkpt>
      <trkpt lat="48.81793" lon="-0.40715">
        <ele>144</ele>
        <time>2016-05-21T14:38:21Z</time>
      </trkpt>
      <trkpt lat="48.8181" lon="-0.40715">
        <ele>145</ele>
        <time>2016-05-21T14:38:27Z</time>
      </trkpt>
      <trkpt lat="48.81825" lon="-0.40713">
        <ele>145</ele>
        <time>2016-05-21T14:38:32Z</time>
      </trkpt>
      <trkpt lat="48.81843" lon="-0.40713">
        <ele>145</ele>
        <time>2016-05-21T14:38:36Z</time>
      </trkpt>
      <trkpt lat="48.81858" lon="-0.40715">
        <ele>145</ele>
        <time>2016-05-21T14:38:39Z</time>
      </trkpt>
      <trkpt lat="48.81875" lon="-0.40725">
        <ele>144</ele>
        <time>2016-05-21T14:38:43Z</time>
      </trkpt>
      <trkpt lat="48.8189" lon="-0.40735">
        <ele>144</ele>
        <time>2016-05-21T14:38:47Z</time>
      </trkpt>
      <trkpt lat="48.81903" lon="-0.40748">
        <ele>144</ele>
        <time>2016-05-21T14:38:53Z</time>
      </trkpt>
      <trkpt lat="48.81918" lon="-0.40753">
        <ele>145</ele>
        <time>2016-05-21T14:38:58Z</time>
      </trkpt>
      <trkpt lat="48.81933" lon="-0.40758">
        <ele>145</ele>
        <time>2016-05-21T14:39:03Z</time>
      </trkpt>
      <trkpt lat="48.81953" lon="-0.40763">
        <ele>147</ele>
        <time>2016-05-21T14:39:12Z</time>
      </trkpt>
      <trkpt lat="48.8197" lon="-0.40773">
        <ele>147</ele>
        <time>2016-05-21T14:39:19Z</time>
      </trkpt>
      <trkpt lat="48.81985" lon="-0.40778">
        <ele>148</ele>
        <time>2016-05-21T14:39:28Z</time>
      </trkpt>
      <trkpt lat="48.82" lon="-0.4078">
        <ele>149</ele>
        <time>2016-05-21T14:39:34Z</time>
      </trkpt>
      <trkpt lat="48.82015" lon="-0.4078">
        <ele>150</ele>
        <time>2016-05-21T14:39:39Z</time>
      </trkpt>
      <trkpt lat="48.82035" lon="-0.40778">
        <ele>151</ele>
        <time>2016-05-21T14:39:45Z</time>
      </trkpt>
      <trkpt lat="48.82053" lon="-0.40775">
        <ele>152</ele>
        <time>2016-05-21T14:39:52Z</time>
      </trkpt>
      <trkpt lat="48.82065" lon="-0.4076">
        <ele>152</ele>
        <time>2016-05-21T14:39:59Z</time>
      </trkpt>
      <trkpt lat="48.8208" lon="-0.4075">
        <ele>151</ele>
        <time>2016-05-21T14:40:06Z</time>
      </trkpt>
      <trkpt lat="48.82095" lon="-0.4075">
        <ele>152</ele>
        <time>2016-05-21T14:40:11Z</time>
      </trkpt>
      <trkpt lat="48.8211" lon="-0.40745">
        <ele>153</ele>
        <time>2016-05-21T14:40:18Z</time>
      </trkpt>
      <trkpt lat="48.82133" lon="-0.40738">
        <ele>155</ele>
        <time>2016-05-21T14:40:28Z</time>
      </trkpt>
      <trkpt lat="48.82148" lon="-0.40738">
        <ele>155</ele>
        <time>2016-05-21T14:40:37Z</time>
      </trkpt>
      <trkpt lat="48.82163" lon="-0.40735">
        <ele>155</ele>
        <time>2016-05-21T14:40:45Z</time>
      </trkpt>
      <trkpt lat="48.82178" lon="-0.40735">
        <ele>155</ele>
        <time>2016-05-21T14:40:50Z</time>
      </trkpt>
      <trkpt lat="48.82193" lon="-0.40735">
        <ele>155</ele>
        <time>2016-05-21T14:40:56Z</time>
      </trkpt>
      <trkpt lat="48.82208" lon="-0.40738">
        <ele>157</ele>
        <time>2016-05-21T14:41:02Z</time>
      </trkpt>
      <trkpt lat="48.82225" lon="-0.4074">
        <ele>158</ele>
        <time>2016-05-21T14:41:10Z</time>
      </trkpt>
      <trkpt lat="48.8224" lon="-0.40745">
        <ele>159</ele>
        <time>2016-05-21T14:41:18Z</time>
      </trkpt>
      <trkpt lat="48.82255" lon="-0.40735">
        <ele>161</ele>
        <time>2016-05-21T14:41:27Z</time>
      </trkpt>
      <trkpt lat="48.82258" lon="-0.4071">
        <ele>161</ele>
        <time>2016-05-21T14:41:34Z</time>
      </trkpt>
      <trkpt lat="48.82258" lon="-0.40685">
        <ele>161</ele>
        <time>2016-05-21T14:41:39Z</time>
      </trkpt>
      <trkpt lat="48.82258" lon="-0.4065">
        <ele>160</ele>
        <time>2016-05-21T14:41:46Z</time>
      </trkpt>
      <trkpt lat="48.82255" lon="-0.40628">
        <ele>160</ele>
        <time>2016-05-21T14:41:52Z</time>
      </trkpt>
      <trkpt lat="48.82255" lon="-0.40603">
        <ele>159</ele>
        <time>2016-05-21T14:41:58Z</time>
      </trkpt>
      <trkpt lat="48.82253" lon="-0.40578">
        <ele>158</ele>
        <time>2016-05-21T14:42:03Z</time>
      </trkpt>
      <trkpt lat="48.82248" lon="-0.40553">
        <ele>157</ele>
        <time>2016-05-21T14:42:08Z</time>
      </trkpt>
      <trkpt lat="48.82245" lon="-0.40528">
        <ele>157</ele>
        <time>2016-05-21T14:42:13Z</time>
      </trkpt>
      <trkpt lat="48.82245" lon="-0.40503">
        <ele>157</ele>
        <time>2016-05-21T14:42:17Z</time>
      </trkpt>
      <trkpt lat="48.82245" lon="-0.40478">
        <ele>156</ele>
        <time>2016-05-21T14:42:21Z</time>
      </trkpt>
      <trkpt lat="48.82248" lon="-0.40455">
        <ele>156</ele>
        <time>2016-05-21T14:42:25Z</time>
      </trkpt>
      <trkpt lat="48.8225" lon="-0.40428">
        <ele>155</ele>
        <time>2016-05-21T14:42:30Z</time>
      </trkpt>
      <trkpt lat="48.82255" lon="-0.40408">
        <ele>154</ele>
        <time>2016-05-21T14:42:34Z</time>
      </trkpt>
      <trkpt lat="48.82258" lon="-0.40383">
        <ele>153</ele>
        <time>2016-05-21T14:42:37Z</time>
      </trkpt>
      <trkpt lat="48.82258" lon="-0.4035">
        <ele>152</ele>
        <time>2016-05-21T14:42:43Z</time>
      </trkpt>
      <trkpt lat="48.82248" lon="-0.4033">
        <ele>152</ele>
        <time>2016-05-21T14:42:48Z</time>
      </trkpt>
      <trkpt lat="48.82238" lon="-0.40313">
        <ele>151</ele>
        <time>2016-05-21T14:42:52Z</time>
      </trkpt>
      <trkpt lat="48.82225" lon="-0.40303">
        <ele>150</ele>
        <time>2016-05-21T14:42:57Z</time>
      </trkpt>
      <trkpt lat="48.8221" lon="-0.40308">
        <ele>151</ele>
        <time>2016-05-21T14:43:01Z</time>
      </trkpt>
      <trkpt lat="48.82195" lon="-0.40318">
        <ele>151</ele>
        <time>2016-05-21T14:43:05Z</time>
      </trkpt>
      <trkpt lat="48.82183" lon="-0.40328">
        <ele>151</ele>
        <time>2016-05-21T14:43:08Z</time>
      </trkpt>
      <trkpt lat="48.8217" lon="-0.40338">
        <ele>151</ele>
        <time>2016-05-21T14:43:10Z</time>
      </trkpt>
      <trkpt lat="48.82155" lon="-0.40345">
        <ele>151</ele>
        <time>2016-05-21T14:43:13Z</time>
      </trkpt>
      <trkpt lat="48.82133" lon="-0.40358">
        <ele>150</ele>
        <time>2016-05-21T14:43:19Z</time>
      </trkpt>
      <trkpt lat="48.82118" lon="-0.40365">
        <ele>149</ele>
        <time>2016-05-21T14:43:22Z</time>
      </trkpt>
      <trkpt lat="48.82103" lon="-0.40365">
        <ele>151</ele>
        <time>2016-05-21T14:43:55Z</time>
      </trkpt>
      <trkpt lat="48.82088" lon="-0.40313">
        <ele>151</ele>
        <time>2016-05-21T14:44:21Z</time>
      </trkpt>
      <trkpt lat="48.8207" lon="-0.40283">
        <ele>154</ele>
        <time>2016-05-21T14:44:39Z</time>
      </trkpt>
      <trkpt lat="48.82058" lon="-0.40268">
        <ele>154</ele>
        <time>2016-05-21T14:44:47Z</time>
      </trkpt>
      <trkpt lat="48.82045" lon="-0.40258">
        <ele>154</ele>
        <time>2016-05-21T14:44:54Z</time>
      </trkpt>
      <trkpt lat="48.82035" lon="-0.40238">
        <ele>154</ele>
        <time>2016-05-21T14:44:59Z</time>
      </trkpt>
      <trkpt lat="48.82028" lon="-0.4022">
        <ele>153</ele>
        <time>2016-05-21T14:45:03Z</time>
      </trkpt>
      <trkpt lat="48.8202" lon="-0.402">
        <ele>153</ele>
        <time>2016-05-21T14:45:07Z</time>
      </trkpt>
      <trkpt lat="48.82018" lon="-0.40175">
        <ele>152</ele>
        <time>2016-05-21T14:45:12Z</time>
      </trkpt>
      <trkpt lat="48.82013" lon="-0.40153">
        <ele>151</ele>
        <time>2016-05-21T14:45:16Z</time>
      </trkpt>
      <trkpt lat="48.82008" lon="-0.40133">
        <ele>150</ele>
        <time>2016-05-21T14:45:20Z</time>
      </trkpt>
      <trkpt lat="48.82003" lon="-0.40113">
        <ele>149</ele>
        <time>2016-05-21T14:45:26Z</time>
      </trkpt>
      <trkpt lat="48.81993" lon="-0.40093">
        <ele>149</ele>
        <time>2016-05-21T14:45:30Z</time>
      </trkpt>
      <trkpt lat="48.81988" lon="-0.40073">
        <ele>149</ele>
        <time>2016-05-21T14:45:33Z</time>
      </trkpt>
      <trkpt lat="48.8199" lon="-0.40048">
        <ele>148</ele>
        <time>2016-05-21T14:45:38Z</time>
      </trkpt>
      <trkpt lat="48.81998" lon="-0.4003">
        <ele>148</ele>
        <time>2016-05-21T14:45:41Z</time>
      </trkpt>
      <trkpt lat="48.82008" lon="-0.40013">
        <ele>148</ele>
        <time>2016-05-21T14:45:45Z</time>
      </trkpt>
      <trkpt lat="48.82018" lon="-0.39988">
        <ele>148</ele>
        <time>2016-05-21T14:45:52Z</time>
      </trkpt>
      <trkpt lat="48.82025" lon="-0.39965">
        <ele>147</ele>
        <time>2016-05-21T14:45:57Z</time>
      </trkpt>
      <trkpt lat="48.82028" lon="-0.3994">
        <ele>147</ele>
        <time>2016-05-21T14:46:03Z</time>
      </trkpt>
      <trkpt lat="48.82033" lon="-0.3992">
        <ele>149</ele>
        <time>2016-05-21T14:46:08Z</time>
      </trkpt>
      <trkpt lat="48.8204" lon="-0.399">
        <ele>148</ele>
        <time>2016-05-21T14:46:13Z</time>
      </trkpt>
      <trkpt lat="48.82055" lon="-0.39883">
        <ele>146</ele>
        <time>2016-05-21T14:46:16Z</time>
      </trkpt>
      <trkpt lat="48.8207" lon="-0.39875">
        <ele>144</ele>
        <time>2016-05-21T14:46:20Z</time>
      </trkpt>
      <trkpt lat="48.82088" lon="-0.39868">
        <ele>142</ele>
        <time>2016-05-21T14:46:22Z</time>
      </trkpt>
      <trkpt lat="48.82108" lon="-0.39855">
        <ele>141</ele>
        <time>2016-05-21T14:46:27Z</time>
      </trkpt>
      <trkpt lat="48.8212" lon="-0.39845">
        <ele>141</ele>
        <time>2016-05-21T14:46:32Z</time>
      </trkpt>
      <trkpt lat="48.82133" lon="-0.39835">
        <ele>141</ele>
        <time>2016-05-21T14:46:38Z</time>
      </trkpt>
      <trkpt lat="48.8213" lon="-0.39813">
        <ele>141</ele>
        <time>2016-05-21T14:46:45Z</time>
      </trkpt>
      <trkpt lat="48.82125" lon="-0.39793">
        <ele>140</ele>
        <time>2016-05-21T14:46:52Z</time>
      </trkpt>
      <trkpt lat="48.8212" lon="-0.39773">
        <ele>139</ele>
        <time>2016-05-21T14:46:58Z</time>
      </trkpt>
      <trkpt lat="48.82115" lon="-0.3975">
        <ele>138</ele>
        <time>2016-05-21T14:47:06Z</time>
      </trkpt>
      <trkpt lat="48.82108" lon="-0.39728">
        <ele>138</ele>
        <time>2016-05-21T14:47:09Z</time>
      </trkpt>
      <trkpt lat="48.82103" lon="-0.39708">
        <ele>137</ele>
        <time>2016-05-21T14:47:13Z</time>
      </trkpt>
      <trkpt lat="48.82098" lon="-0.39683">
        <ele>137</ele>
        <time>2016-05-21T14:47:16Z</time>
      </trkpt>
      <trkpt lat="48.8209" lon="-0.39663">
        <ele>137</ele>
        <time>2016-05-21T14:47:20Z</time>
      </trkpt>
      <trkpt lat="48.8209" lon="-0.3964">
        <ele>137</ele>
        <time>2016-05-21T14:47:22Z</time>
      </trkpt>
      <trkpt lat="48.82103" lon="-0.39628">
        <ele>134</ele>
        <time>2016-05-21T14:47:28Z</time>
      </trkpt>
      <trkpt lat="48.82115" lon="-0.39618">
        <ele>132</ele>
        <time>2016-05-21T14:47:33Z</time>
      </trkpt>
      <trkpt lat="48.82143" lon="-0.39598">
        <ele>128</ele>
        <time>2016-05-21T14:47:41Z</time>
      </trkpt>
      <trkpt lat="48.8216" lon="-0.3959">
        <ele>128</ele>
        <time>2016-05-21T14:47:47Z</time>
      </trkpt>
      <trkpt lat="48.82188" lon="-0.39578">
        <ele>126</ele>
        <time>2016-05-21T14:47:55Z</time>
      </trkpt>
      <trkpt lat="48.82203" lon="-0.39573">
        <ele>126</ele>
        <time>2016-05-21T14:47:58Z</time>
      </trkpt>
      <trkpt lat="48.82213" lon="-0.39558">
        <ele>126</ele>
        <time>2016-05-21T14:48:01Z</time>
      </trkpt>
      <trkpt lat="48.8221" lon="-0.39533">
        <ele>127</ele>
        <time>2016-05-21T14:48:04Z</time>
      </trkpt>
      <trkpt lat="48.82205" lon="-0.3951">
        <ele>127</ele>
        <time>2016-05-21T14:48:10Z</time>
      </trkpt>
      <trkpt lat="48.82205" lon="-0.39485">
        <ele>127</ele>
        <time>2016-05-21T14:48:15Z</time>
      </trkpt>
      <trkpt lat="48.82203" lon="-0.39453">
        <ele>126</ele>
        <time>2016-05-21T14:48:22Z</time>
      </trkpt>
      <trkpt lat="48.82215" lon="-0.3944">
        <ele>125</ele>
        <time>2016-05-21T14:48:27Z</time>
      </trkpt>
      <trkpt lat="48.82235" lon="-0.3943">
        <ele>124</ele>
        <time>2016-05-21T14:48:34Z</time>
      </trkpt>
      <trkpt lat="48.82253" lon="-0.39423">
        <ele>125</ele>
        <time>2016-05-21T14:48:40Z</time>
      </trkpt>
      <trkpt lat="48.8227" lon="-0.3941">
        <ele>123</ele>
        <time>2016-05-21T14:48:45Z</time>
      </trkpt>
      <trkpt lat="48.82283" lon="-0.39395">
        <ele>123</ele>
        <time>2016-05-21T14:48:49Z</time>
      </trkpt>
      <trkpt lat="48.82295" lon="-0.39383">
        <ele>123</ele>
        <time>2016-05-21T14:48:53Z</time>
      </trkpt>
      <trkpt lat="48.82305" lon="-0.39365">
        <ele>124</ele>
        <time>2016-05-21T14:48:58Z</time>
      </trkpt>
      <trkpt lat="48.82323" lon="-0.3933">
        <ele>130</ele>
        <time>2016-05-21T14:49:15Z</time>
      </trkpt>
      <trkpt lat="48.82338" lon="-0.39325">
        <ele>129</ele>
        <time>2016-05-21T14:49:22Z</time>
      </trkpt>
      <trkpt lat="48.8235" lon="-0.39315">
        <ele>129</ele>
        <time>2016-05-21T14:49:29Z</time>
      </trkpt>
      <trkpt lat="48.82363" lon="-0.39303">
        <ele>130</ele>
        <time>2016-05-21T14:49:37Z</time>
      </trkpt>
      <trkpt lat="48.8235" lon="-0.39318">
        <ele>135</ele>
        <time>2016-05-21T14:50:19Z</time>
      </trkpt>
      <trkpt lat="48.82338" lon="-0.39328">
        <ele>133</ele>
        <time>2016-05-21T14:50:23Z</time>
      </trkpt>
      <trkpt lat="48.82323" lon="-0.39333">
        <ele>133</ele>
        <time>2016-05-21T14:50:31Z</time>
      </trkpt>
      <trkpt lat="48.8231" lon="-0.39353">
        <ele>131</ele>
        <time>2016-05-21T14:50:37Z</time>
      </trkpt>
      <trkpt lat="48.82303" lon="-0.39373">
        <ele>130</ele>
        <time>2016-05-21T14:50:41Z</time>
      </trkpt>
      <trkpt lat="48.8232" lon="-0.3938">
        <ele>125</ele>
        <time>2016-05-21T14:50:54Z</time>
      </trkpt>
      <trkpt lat="48.82335" lon="-0.39375">
        <ele>125</ele>
        <time>2016-05-21T14:51:00Z</time>
      </trkpt>
      <trkpt lat="48.8235" lon="-0.39368">
        <ele>125</ele>
        <time>2016-05-21T14:51:06Z</time>
      </trkpt>
      <trkpt lat="48.82378" lon="-0.39353">
        <ele>124</ele>
        <time>2016-05-21T14:51:14Z</time>
      </trkpt>
      <trkpt lat="48.82403" lon="-0.39338">
        <ele>123</ele>
        <time>2016-05-21T14:51:20Z</time>
      </trkpt>
      <trkpt lat="48.82418" lon="-0.39328">
        <ele>124</ele>
        <time>2016-05-21T14:51:24Z</time>
      </trkpt>
      <trkpt lat="48.8243" lon="-0.39318">
        <ele>124</ele>
        <time>2016-05-21T14:51:28Z</time>
      </trkpt>
      <trkpt lat="48.82445" lon="-0.39308">
        <ele>124</ele>
        <time>2016-05-21T14:51:34Z</time>
      </trkpt>
      <trkpt lat="48.82458" lon="-0.39298">
        <ele>124</ele>
        <time>2016-05-21T14:51:39Z</time>
      </trkpt>
      <trkpt lat="48.82473" lon="-0.39285">
        <ele>123</ele>
        <time>2016-05-21T14:51:44Z</time>
      </trkpt>
      <trkpt lat="48.8248" lon="-0.39268">
        <ele>122</ele>
        <time>2016-05-21T14:51:50Z</time>
      </trkpt>
      <trkpt lat="48.82488" lon="-0.39228">
        <ele>125</ele>
        <time>2016-05-21T14:53:26Z</time>
      </trkpt>
      <trkpt lat="48.82495" lon="-0.39208">
        <ele>124</ele>
        <time>2016-05-21T14:53:34Z</time>
      </trkpt>
      <trkpt lat="48.82505" lon="-0.39193">
        <ele>125</ele>
        <time>2016-05-21T14:53:39Z</time>
      </trkpt>
      <trkpt lat="48.82513" lon="-0.39175">
        <ele>125</ele>
        <time>2016-05-21T14:53:44Z</time>
      </trkpt>
      <trkpt lat="48.82523" lon="-0.3916">
        <ele>123</ele>
        <time>2016-05-21T14:53:48Z</time>
      </trkpt>
      <trkpt lat="48.82538" lon="-0.39158">
        <ele>123</ele>
        <time>2016-05-21T14:53:54Z</time>
      </trkpt>
      <trkpt lat="48.82553" lon="-0.39163">
        <ele>121</ele>
        <time>2016-05-21T14:53:59Z</time>
      </trkpt>
      <trkpt lat="48.82568" lon="-0.3917">
        <ele>121</ele>
        <time>2016-05-21T14:54:05Z</time>
      </trkpt>
      <trkpt lat="48.8258" lon="-0.39183">
        <ele>121</ele>
        <time>2016-05-21T14:54:10Z</time>
      </trkpt>
      <trkpt lat="48.82595" lon="-0.39198">
        <ele>119</ele>
        <time>2016-05-21T14:54:13Z</time>
      </trkpt>
      <trkpt lat="48.82605" lon="-0.39215">
        <ele>118</ele>
        <time>2016-05-21T14:54:16Z</time>
      </trkpt>
      <trkpt lat="48.8262" lon="-0.39235">
        <ele>116</ele>
        <time>2016-05-21T14:54:21Z</time>
      </trkpt>
      <trkpt lat="48.82638" lon="-0.39235">
        <ele>117</ele>
        <time>2016-05-21T14:54:24Z</time>
      </trkpt>
      <trkpt lat="48.82653" lon="-0.39233">
        <ele>117</ele>
        <time>2016-05-21T14:54:29Z</time>
      </trkpt>
      <trkpt lat="48.82658" lon="-0.39253">
        <ele>116</ele>
        <time>2016-05-21T14:54:37Z</time>
      </trkpt>
      <trkpt lat="48.82655" lon="-0.39275">
        <ele>114</ele>
        <time>2016-05-21T14:54:49Z</time>
      </trkpt>
      <trkpt lat="48.8266" lon="-0.39303">
        <ele>113</ele>
        <time>2016-05-21T14:54:52Z</time>
      </trkpt>
      <trkpt lat="48.82668" lon="-0.39328">
        <ele>110</ele>
        <time>2016-05-21T14:54:55Z</time>
      </trkpt>
      <trkpt lat="48.8267" lon="-0.3936">
        <ele>109</ele>
        <time>2016-05-21T14:54:58Z</time>
      </trkpt>
      <trkpt lat="48.82668" lon="-0.3939">
        <ele>109</ele>
        <time>2016-05-21T14:55:02Z</time>
      </trkpt>
      <trkpt lat="48.82665" lon="-0.39433">
        <ele>108</ele>
        <time>2016-05-21T14:55:07Z</time>
      </trkpt>
      <trkpt lat="48.82663" lon="-0.39455">
        <ele>108</ele>
        <time>2016-05-21T14:55:09Z</time>
      </trkpt>
      <trkpt lat="48.82658" lon="-0.39478">
        <ele>108</ele>
        <time>2016-05-21T14:55:12Z</time>
      </trkpt>
      <trkpt lat="48.8265" lon="-0.39508">
        <ele>109</ele>
        <time>2016-05-21T14:55:18Z</time>
      </trkpt>
      <trkpt lat="48.82648" lon="-0.39533">
        <ele>110</ele>
        <time>2016-05-21T14:55:21Z</time>
      </trkpt>
      <trkpt lat="48.82645" lon="-0.39555">
        <ele>111</ele>
        <time>2016-05-21T14:55:25Z</time>
      </trkpt>
      <trkpt lat="48.82645" lon="-0.39583">
        <ele>112</ele>
        <time>2016-05-21T14:55:30Z</time>
      </trkpt>
      <trkpt lat="48.82645" lon="-0.39608">
        <ele>113</ele>
        <time>2016-05-21T14:55:34Z</time>
      </trkpt>
      <trkpt lat="48.82643" lon="-0.3963">
        <ele>114</ele>
        <time>2016-05-21T14:55:39Z</time>
      </trkpt>
      <trkpt lat="48.8264" lon="-0.39653">
        <ele>115</ele>
        <time>2016-05-21T14:55:43Z</time>
      </trkpt>
      <trkpt lat="48.82635" lon="-0.39673">
        <ele>116</ele>
        <time>2016-05-21T14:55:46Z</time>
      </trkpt>
      <trkpt lat="48.82635" lon="-0.39695">
        <ele>117</ele>
        <time>2016-05-21T14:55:51Z</time>
      </trkpt>
      <trkpt lat="48.8263" lon="-0.39718">
        <ele>118</ele>
        <time>2016-05-21T14:55:55Z</time>
      </trkpt>
      <trkpt lat="48.82625" lon="-0.3975">
        <ele>120</ele>
        <time>2016-05-21T14:56:03Z</time>
      </trkpt>
      <trkpt lat="48.82623" lon="-0.39773">
        <ele>121</ele>
        <time>2016-05-21T14:56:08Z</time>
      </trkpt>
      <trkpt lat="48.82618" lon="-0.39795">
        <ele>123</ele>
        <time>2016-05-21T14:56:13Z</time>
      </trkpt>
      <trkpt lat="48.8261" lon="-0.39825">
        <ele>125</ele>
        <time>2016-05-21T14:56:20Z</time>
      </trkpt>
      <trkpt lat="48.82605" lon="-0.39845">
        <ele>126</ele>
        <time>2016-05-21T14:56:25Z</time>
      </trkpt>
      <trkpt lat="48.82598" lon="-0.39865">
        <ele>127</ele>
        <time>2016-05-21T14:56:29Z</time>
      </trkpt>
      <trkpt lat="48.8259" lon="-0.39885">
        <ele>129</ele>
        <time>2016-05-21T14:56:34Z</time>
      </trkpt>
      <trkpt lat="48.8258" lon="-0.39903">
        <ele>130</ele>
        <time>2016-05-21T14:56:40Z</time>
      </trkpt>
      <trkpt lat="48.82568" lon="-0.39918">
        <ele>132</ele>
        <time>2016-05-21T14:56:45Z</time>
      </trkpt>
      <trkpt lat="48.82553" lon="-0.39935">
        <ele>133</ele>
        <time>2016-05-21T14:56:50Z</time>
      </trkpt>
      <trkpt lat="48.82538" lon="-0.3995">
        <ele>133</ele>
        <time>2016-05-21T14:56:57Z</time>
      </trkpt>
      <trkpt lat="48.82528" lon="-0.39968">
        <ele>134</ele>
        <time>2016-05-21T14:57:01Z</time>
      </trkpt>
      <trkpt lat="48.82518" lon="-0.3999">
        <ele>135</ele>
        <time>2016-05-21T14:57:09Z</time>
      </trkpt>
      <trkpt lat="48.8251" lon="-0.4001">
        <ele>136</ele>
        <time>2016-05-21T14:57:13Z</time>
      </trkpt>
      <trkpt lat="48.825" lon="-0.40028">
        <ele>136</ele>
        <time>2016-05-21T14:57:19Z</time>
      </trkpt>
      <trkpt lat="48.8249" lon="-0.40048">
        <ele>137</ele>
        <time>2016-05-21T14:57:25Z</time>
      </trkpt>
      <trkpt lat="48.82485" lon="-0.40068">
        <ele>138</ele>
        <time>2016-05-21T14:57:29Z</time>
      </trkpt>
      <trkpt lat="48.82488" lon="-0.4009">
        <ele>138</ele>
        <time>2016-05-21T14:57:35Z</time>
      </trkpt>
      <trkpt lat="48.82493" lon="-0.40123">
        <ele>140</ele>
        <time>2016-05-21T14:57:42Z</time>
      </trkpt>
      <trkpt lat="48.825" lon="-0.40163">
        <ele>141</ele>
        <time>2016-05-21T14:57:52Z</time>
      </trkpt>
      <trkpt lat="48.82508" lon="-0.40193">
        <ele>142</ele>
        <time>2016-05-21T14:57:58Z</time>
      </trkpt>
      <trkpt lat="48.82513" lon="-0.40213">
        <ele>144</ele>
        <time>2016-05-21T14:58:03Z</time>
      </trkpt>
      <trkpt lat="48.82518" lon="-0.40238">
        <ele>146</ele>
        <time>2016-05-21T14:58:09Z</time>
      </trkpt>
      <trkpt lat="48.82523" lon="-0.4026">
        <ele>147</ele>
        <time>2016-05-21T14:58:13Z</time>
      </trkpt>
      <trkpt lat="48.82528" lon="-0.4028">
        <ele>148</ele>
        <time>2016-05-21T14:58:18Z</time>
      </trkpt>
      <trkpt lat="48.8253" lon="-0.40305">
        <ele>149</ele>
        <time>2016-05-21T14:58:23Z</time>
      </trkpt>
      <trkpt lat="48.82533" lon="-0.40328">
        <ele>150</ele>
        <time>2016-05-21T14:58:28Z</time>
      </trkpt>
      <trkpt lat="48.82533" lon="-0.40353">
        <ele>150</ele>
        <time>2016-05-21T14:58:34Z</time>
      </trkpt>
      <trkpt lat="48.82533" lon="-0.40383">
        <ele>152</ele>
        <time>2016-05-21T14:58:39Z</time>
      </trkpt>
      <trkpt lat="48.82535" lon="-0.40423">
        <ele>154</ele>
        <time>2016-05-21T14:58:48Z</time>
      </trkpt>
      <trkpt lat="48.82538" lon="-0.40448">
        <ele>155</ele>
        <time>2016-05-21T14:58:54Z</time>
      </trkpt>
      <trkpt lat="48.8254" lon="-0.4047">
        <ele>156</ele>
        <time>2016-05-21T14:58:58Z</time>
      </trkpt>
      <trkpt lat="48.82543" lon="-0.40493">
        <ele>158</ele>
        <time>2016-05-21T14:59:04Z</time>
      </trkpt>
      <trkpt lat="48.82548" lon="-0.40513">
        <ele>159</ele>
        <time>2016-05-21T14:59:08Z</time>
      </trkpt>
      <trkpt lat="48.8255" lon="-0.40538">
        <ele>160</ele>
        <time>2016-05-21T14:59:13Z</time>
      </trkpt>
      <trkpt lat="48.82553" lon="-0.4056">
        <ele>160</ele>
        <time>2016-05-21T14:59:17Z</time>
      </trkpt>
      <trkpt lat="48.82553" lon="-0.40585">
        <ele>161</ele>
        <time>2016-05-21T14:59:22Z</time>
      </trkpt>
      <trkpt lat="48.82555" lon="-0.4061">
        <ele>161</ele>
        <time>2016-05-21T14:59:27Z</time>
      </trkpt>
      <trkpt lat="48.82558" lon="-0.40658">
        <ele>161</ele>
        <time>2016-05-21T14:59:36Z</time>
      </trkpt>
      <trkpt lat="48.82558" lon="-0.40685">
        <ele>161</ele>
        <time>2016-05-21T14:59:39Z</time>
      </trkpt>
      <trkpt lat="48.82555" lon="-0.4071">
        <ele>161</ele>
        <time>2016-05-21T14:59:42Z</time>
      </trkpt>
      <trkpt lat="48.82553" lon="-0.40735">
        <ele>160</ele>
        <time>2016-05-21T14:59:46Z</time>
      </trkpt>
      <trkpt lat="48.82545" lon="-0.40763">
        <ele>161</ele>
        <time>2016-05-21T14:59:49Z</time>
      </trkpt>
      <trkpt lat="48.82548" lon="-0.40788">
        <ele>161</ele>
        <time>2016-05-21T14:59:52Z</time>
      </trkpt>
      <trkpt lat="48.82563" lon="-0.40793">
        <ele>162</ele>
        <time>2016-05-21T14:59:57Z</time>
      </trkpt>
      <trkpt lat="48.82578" lon="-0.40795">
        <ele>161</ele>
        <time>2016-05-21T15:00:01Z</time>
      </trkpt>
      <trkpt lat="48.826" lon="-0.40798">
        <ele>160</ele>
        <time>2016-05-21T15:00:04Z</time>
      </trkpt>
      <trkpt lat="48.82623" lon="-0.40803">
        <ele>160</ele>
        <time>2016-05-21T15:00:09Z</time>
      </trkpt>
      <trkpt lat="48.82695" lon="-0.4082">
        <ele>156</ele>
        <time>2016-05-21T15:00:21Z</time>
      </trkpt>
      <trkpt lat="48.82733" lon="-0.4083">
        <ele>157</ele>
        <time>2016-05-21T15:00:28Z</time>
      </trkpt>
      <trkpt lat="48.82748" lon="-0.40835">
        <ele>156</ele>
        <time>2016-05-21T15:00:31Z</time>
      </trkpt>
      <trkpt lat="48.82763" lon="-0.4083">
        <ele>156</ele>
        <time>2016-05-21T15:00:35Z</time>
      </trkpt>
      <trkpt lat="48.82775" lon="-0.40818">
        <ele>155</ele>
        <time>2016-05-21T15:00:40Z</time>
      </trkpt>
      <trkpt lat="48.82788" lon="-0.40808">
        <ele>155</ele>
        <time>2016-05-21T15:00:45Z</time>
      </trkpt>
      <trkpt lat="48.82798" lon="-0.40793">
        <ele>158</ele>
        <time>2016-05-21T15:01:17Z</time>
      </trkpt>
      <trkpt lat="48.82785" lon="-0.40805">
        <ele>152</ele>
        <time>2016-05-21T15:02:27Z</time>
      </trkpt>
      <trkpt lat="48.82773" lon="-0.4082">
        <ele>151</ele>
        <time>2016-05-21T15:02:34Z</time>
      </trkpt>
      <trkpt lat="48.8276" lon="-0.40835">
        <ele>151</ele>
        <time>2016-05-21T15:02:41Z</time>
      </trkpt>
      <trkpt lat="48.82745" lon="-0.40833">
        <ele>149</ele>
        <time>2016-05-21T15:02:46Z</time>
      </trkpt>
      <trkpt lat="48.82728" lon="-0.4083">
        <ele>149</ele>
        <time>2016-05-21T15:02:51Z</time>
      </trkpt>
      <trkpt lat="48.82705" lon="-0.40825">
        <ele>149</ele>
        <time>2016-05-21T15:02:57Z</time>
      </trkpt>
      <trkpt lat="48.82685" lon="-0.4082">
        <ele>150</ele>
        <time>2016-05-21T15:03:02Z</time>
      </trkpt>
      <trkpt lat="48.8267" lon="-0.40818">
        <ele>150</ele>
        <time>2016-05-21T15:03:06Z</time>
      </trkpt>
      <trkpt lat="48.82653" lon="-0.40813">
        <ele>150</ele>
        <time>2016-05-21T15:03:11Z</time>
      </trkpt>
      <trkpt lat="48.82635" lon="-0.4081">
        <ele>151</ele>
        <time>2016-05-21T15:03:15Z</time>
      </trkpt>
      <trkpt lat="48.82615" lon="-0.40805">
        <ele>151</ele>
        <time>2016-05-21T15:03:22Z</time>
      </trkpt>
      <trkpt lat="48.8263" lon="-0.40805">
        <ele>150</ele>
        <time>2016-05-21T15:03:27Z</time>
      </trkpt>
      <trkpt lat="48.82648" lon="-0.40808">
        <ele>150</ele>
        <time>2016-05-21T15:03:31Z</time>
      </trkpt>
      <trkpt lat="48.82665" lon="-0.40813">
        <ele>150</ele>
        <time>2016-05-21T15:03:34Z</time>
      </trkpt>
      <trkpt lat="48.82695" lon="-0.4082">
        <ele>148</ele>
        <time>2016-05-21T15:03:40Z</time>
      </trkpt>
      <trkpt lat="48.8273" lon="-0.4083">
        <ele>149</ele>
        <time>2016-05-21T15:03:46Z</time>
      </trkpt>
      <trkpt lat="48.8275" lon="-0.40835">
        <ele>149</ele>
        <time>2016-05-21T15:03:49Z</time>
      </trkpt>
      <trkpt lat="48.82768" lon="-0.40825">
        <ele>149</ele>
        <time>2016-05-21T15:03:54Z</time>
      </trkpt>
      <trkpt lat="48.8278" lon="-0.40813">
        <ele>149</ele>
        <time>2016-05-21T15:03:59Z</time>
      </trkpt>
      <trkpt lat="48.82795" lon="-0.40803">
        <ele>149</ele>
        <time>2016-05-21T15:04:03Z</time>
      </trkpt>
      <trkpt lat="48.82813" lon="-0.4079">
        <ele>149</ele>
        <time>2016-05-21T15:04:08Z</time>
      </trkpt>
      <trkpt lat="48.8283" lon="-0.4078">
        <ele>150</ele>
        <time>2016-05-21T15:04:12Z</time>
      </trkpt>
      <trkpt lat="48.82845" lon="-0.40775">
        <ele>151</ele>
        <time>2016-05-21T15:04:16Z</time>
      </trkpt>
      <trkpt lat="48.8286" lon="-0.40778">
        <ele>151</ele>
        <time>2016-05-21T15:04:19Z</time>
      </trkpt>
      <trkpt lat="48.82878" lon="-0.40783">
        <ele>151</ele>
        <time>2016-05-21T15:04:23Z</time>
      </trkpt>
      <trkpt lat="48.82893" lon="-0.40773">
        <ele>150</ele>
        <time>2016-05-21T15:04:26Z</time>
      </trkpt>
      <trkpt lat="48.82905" lon="-0.4076">
        <ele>150</ele>
        <time>2016-05-21T15:04:29Z</time>
      </trkpt>
      <trkpt lat="48.8292" lon="-0.40745">
        <ele>150</ele>
        <time>2016-05-21T15:04:33Z</time>
      </trkpt>
      <trkpt lat="48.82943" lon="-0.4073">
        <ele>149</ele>
        <time>2016-05-21T15:04:36Z</time>
      </trkpt>
      <trkpt lat="48.82955" lon="-0.4072">
        <ele>148</ele>
        <time>2016-05-21T15:04:40Z</time>
      </trkpt>
      <trkpt lat="48.8298" lon="-0.407">
        <ele>148</ele>
        <time>2016-05-21T15:04:45Z</time>
      </trkpt>
      <trkpt lat="48.82995" lon="-0.40693">
        <ele>146</ele>
        <time>2016-05-21T15:04:48Z</time>
      </trkpt>
      <trkpt lat="48.83013" lon="-0.40685">
        <ele>145</ele>
        <time>2016-05-21T15:04:51Z</time>
      </trkpt>
      <trkpt lat="48.83028" lon="-0.4068">
        <ele>145</ele>
        <time>2016-05-21T15:04:54Z</time>
      </trkpt>
      <trkpt lat="48.83043" lon="-0.40675">
        <ele>145</ele>
        <time>2016-05-21T15:04:57Z</time>
      </trkpt>
      <trkpt lat="48.83063" lon="-0.4067">
        <ele>144</ele>
        <time>2016-05-21T15:05:00Z</time>
      </trkpt>
      <trkpt lat="48.83078" lon="-0.40668">
        <ele>142</ele>
        <time>2016-05-21T15:05:02Z</time>
      </trkpt>
      <trkpt lat="48.83093" lon="-0.40665">
        <ele>140</ele>
        <time>2016-05-21T15:05:04Z</time>
      </trkpt>
      <trkpt lat="48.83115" lon="-0.40663">
        <ele>139</ele>
        <time>2016-05-21T15:05:07Z</time>
      </trkpt>
      <trkpt lat="48.83133" lon="-0.4066">
        <ele>138</ele>
        <time>2016-05-21T15:05:10Z</time>
      </trkpt>
      <trkpt lat="48.8316" lon="-0.40655">
        <ele>136</ele>
        <time>2016-05-21T15:05:15Z</time>
      </trkpt>
      <trkpt lat="48.8318" lon="-0.40653">
        <ele>136</ele>
        <time>2016-05-21T15:05:19Z</time>
      </trkpt>
      <trkpt lat="48.832" lon="-0.4065">
        <ele>134</ele>
        <time>2016-05-21T15:05:22Z</time>
      </trkpt>
      <trkpt lat="48.83215" lon="-0.40648">
        <ele>131</ele>
        <time>2016-05-21T15:05:24Z</time>
      </trkpt>
      <trkpt lat="48.83235" lon="-0.40643">
        <ele>129</ele>
        <time>2016-05-21T15:05:27Z</time>
      </trkpt>
      <trkpt lat="48.83255" lon="-0.4063">
        <ele>128</ele>
        <time>2016-05-21T15:05:30Z</time>
      </trkpt>
      <trkpt lat="48.83278" lon="-0.40623">
        <ele>126</ele>
        <time>2016-05-21T15:05:33Z</time>
      </trkpt>
      <trkpt lat="48.83298" lon="-0.40615">
        <ele>125</ele>
        <time>2016-05-21T15:05:36Z</time>
      </trkpt>
      <trkpt lat="48.8332" lon="-0.406">
        <ele>124</ele>
        <time>2016-05-21T15:05:39Z</time>
      </trkpt>
      <trkpt lat="48.83353" lon="-0.4058">
        <ele>120</ele>
        <time>2016-05-21T15:05:43Z</time>
      </trkpt>
      <trkpt lat="48.83375" lon="-0.40565">
        <ele>118</ele>
        <time>2016-05-21T15:05:45Z</time>
      </trkpt>
      <trkpt lat="48.83395" lon="-0.40553">
        <ele>114</ele>
        <time>2016-05-21T15:05:48Z</time>
      </trkpt>
      <trkpt lat="48.8343" lon="-0.40533">
        <ele>111</ele>
        <time>2016-05-21T15:05:53Z</time>
      </trkpt>
      <trkpt lat="48.83463" lon="-0.40508">
        <ele>106</ele>
        <time>2016-05-21T15:05:57Z</time>
      </trkpt>
      <trkpt lat="48.83488" lon="-0.40488">
        <ele>102</ele>
        <time>2016-05-21T15:05:59Z</time>
      </trkpt>
      <trkpt lat="48.83505" lon="-0.4049">
        <ele>99</ele>
        <time>2016-05-21T15:06:04Z</time>
      </trkpt>
      <trkpt lat="48.8352" lon="-0.4049">
        <ele>97</ele>
        <time>2016-05-21T15:06:07Z</time>
      </trkpt>
      <trkpt lat="48.83533" lon="-0.40478">
        <ele>95</ele>
        <time>2016-05-21T15:06:10Z</time>
      </trkpt>
      <trkpt lat="48.83548" lon="-0.40463">
        <ele>94</ele>
        <time>2016-05-21T15:06:13Z</time>
      </trkpt>
      <trkpt lat="48.8356" lon="-0.40448">
        <ele>94</ele>
        <time>2016-05-21T15:06:16Z</time>
      </trkpt>
      <trkpt lat="48.83575" lon="-0.40438">
        <ele>91</ele>
        <time>2016-05-21T15:06:20Z</time>
      </trkpt>
      <trkpt lat="48.83595" lon="-0.40418">
        <ele>89</ele>
        <time>2016-05-21T15:06:22Z</time>
      </trkpt>
      <trkpt lat="48.83613" lon="-0.40395">
        <ele>86</ele>
        <time>2016-05-21T15:06:25Z</time>
      </trkpt>
      <trkpt lat="48.83633" lon="-0.4037">
        <ele>85</ele>
        <time>2016-05-21T15:06:28Z</time>
      </trkpt>
      <trkpt lat="48.83645" lon="-0.40358">
        <ele>85</ele>
        <time>2016-05-21T15:06:30Z</time>
      </trkpt>
      <trkpt lat="48.8367" lon="-0.40343">
        <ele>80</ele>
        <time>2016-05-21T15:06:33Z</time>
      </trkpt>
      <trkpt lat="48.8394" lon="-0.40175">
        <ele>76</ele>
        <time>2016-05-21T15:07:11Z</time>
      </trkpt>
      <trkpt lat="48.83983" lon="-0.40153">
        <ele>76</ele>
        <time>2016-05-21T15:07:19Z</time>
      </trkpt>
      <trkpt lat="48.8401" lon="-0.40135">
        <ele>77</ele>
        <time>2016-05-21T15:07:23Z</time>
      </trkpt>
      <trkpt lat="48.84025" lon="-0.40125">
        <ele>78</ele>
        <time>2016-05-21T15:07:27Z</time>
      </trkpt>
      <trkpt lat="48.8405" lon="-0.40108">
        <ele>78</ele>
        <time>2016-05-21T15:07:30Z</time>
      </trkpt>
      <trkpt lat="48.84065" lon="-0.40093">
        <ele>78</ele>
        <time>2016-05-21T15:07:33Z</time>
      </trkpt>
      <trkpt lat="48.8408" lon="-0.40075">
        <ele>79</ele>
        <time>2016-05-21T15:07:38Z</time>
      </trkpt>
      <trkpt lat="48.84095" lon="-0.40063">
        <ele>80</ele>
        <time>2016-05-21T15:07:40Z</time>
      </trkpt>
      <trkpt lat="48.84108" lon="-0.40048">
        <ele>80</ele>
        <time>2016-05-21T15:07:43Z</time>
      </trkpt>
      <trkpt lat="48.84138" lon="-0.40018">
        <ele>80</ele>
        <time>2016-05-21T15:07:51Z</time>
      </trkpt>
      <trkpt lat="48.84153" lon="-0.40005">
        <ele>81</ele>
        <time>2016-05-21T15:07:55Z</time>
      </trkpt>
      <trkpt lat="48.8417" lon="-0.39998">
        <ele>83</ele>
        <time>2016-05-21T15:08:01Z</time>
      </trkpt>
      <trkpt lat="48.8419" lon="-0.4">
        <ele>88</ele>
        <time>2016-05-21T15:08:07Z</time>
      </trkpt>
      <trkpt lat="48.84218" lon="-0.40005">
        <ele>90</ele>
        <time>2016-05-21T15:08:15Z</time>
      </trkpt>
      <trkpt lat="48.84233" lon="-0.40005">
        <ele>90</ele>
        <time>2016-05-21T15:08:21Z</time>
      </trkpt>
      <trkpt lat="48.84248" lon="-0.4001">
        <ele>90</ele>
        <time>2016-05-21T15:08:25Z</time>
      </trkpt>
      <trkpt lat="48.84263" lon="-0.40008">
        <ele>92</ele>
        <time>2016-05-21T15:08:30Z</time>
      </trkpt>
      <trkpt lat="48.8428" lon="-0.40005">
        <ele>93</ele>
        <time>2016-05-21T15:08:38Z</time>
      </trkpt>
      <trkpt lat="48.84298" lon="-0.39998">
        <ele>94</ele>
        <time>2016-05-21T15:08:43Z</time>
      </trkpt>
      <trkpt lat="48.84313" lon="-0.3999">
        <ele>95</ele>
        <time>2016-05-21T15:08:47Z</time>
      </trkpt>
      <trkpt lat="48.84333" lon="-0.3998">
        <ele>97</ele>
        <time>2016-05-21T15:08:55Z</time>
      </trkpt>
      <trkpt lat="48.84348" lon="-0.39973">
        <ele>98</ele>
        <time>2016-05-21T15:09:00Z</time>
      </trkpt>
      <trkpt lat="48.84363" lon="-0.39965">
        <ele>100</ele>
        <time>2016-05-21T15:09:09Z</time>
      </trkpt>
      <trkpt lat="48.84378" lon="-0.39955">
        <ele>101</ele>
        <time>2016-05-21T15:09:15Z</time>
      </trkpt>
      <trkpt lat="48.84388" lon="-0.3994">
        <ele>103</ele>
        <time>2016-05-21T15:09:21Z</time>
      </trkpt>
      <trkpt lat="48.84403" lon="-0.39938">
        <ele>105</ele>
        <time>2016-05-21T15:09:29Z</time>
      </trkpt>
      <trkpt lat="48.84418" lon="-0.39938">
        <ele>107</ele>
        <time>2016-05-21T15:09:37Z</time>
      </trkpt>
      <trkpt lat="48.84433" lon="-0.39933">
        <ele>109</ele>
        <time>2016-05-21T15:09:42Z</time>
      </trkpt>
      <trkpt lat="48.84453" lon="-0.39925">
        <ele>111</ele>
        <time>2016-05-21T15:09:51Z</time>
      </trkpt>
      <trkpt lat="48.84468" lon="-0.39925">
        <ele>115</ele>
        <time>2016-05-21T15:09:57Z</time>
      </trkpt>
      <trkpt lat="48.84483" lon="-0.39933">
        <ele>117</ele>
        <time>2016-05-21T15:10:06Z</time>
      </trkpt>
      <trkpt lat="48.84488" lon="-0.39953">
        <ele>119</ele>
        <time>2016-05-21T15:10:13Z</time>
      </trkpt>
      <trkpt lat="48.84508" lon="-0.39968">
        <ele>124</ele>
        <time>2016-05-21T15:11:07Z</time>
      </trkpt>
      <trkpt lat="48.84523" lon="-0.39965">
        <ele>124</ele>
        <time>2016-05-21T15:11:13Z</time>
      </trkpt>
      <trkpt lat="48.84538" lon="-0.3996">
        <ele>124</ele>
        <time>2016-05-21T15:11:17Z</time>
      </trkpt>
      <trkpt lat="48.8456" lon="-0.39953">
        <ele>124</ele>
        <time>2016-05-21T15:11:22Z</time>
      </trkpt>
      <trkpt lat="48.84575" lon="-0.3995">
        <ele>123</ele>
        <time>2016-05-21T15:11:27Z</time>
      </trkpt>
      <trkpt lat="48.84593" lon="-0.39953">
        <ele>123</ele>
        <time>2016-05-21T15:11:31Z</time>
      </trkpt>
      <trkpt lat="48.84615" lon="-0.39955">
        <ele>122</ele>
        <time>2016-05-21T15:11:36Z</time>
      </trkpt>
      <trkpt lat="48.8463" lon="-0.39955">
        <ele>123</ele>
        <time>2016-05-21T15:11:40Z</time>
      </trkpt>
      <trkpt lat="48.84648" lon="-0.39955">
        <ele>122</ele>
        <time>2016-05-21T15:11:45Z</time>
      </trkpt>
      <trkpt lat="48.84675" lon="-0.39953">
        <ele>122</ele>
        <time>2016-05-21T15:11:52Z</time>
      </trkpt>
      <trkpt lat="48.8469" lon="-0.3995">
        <ele>122</ele>
        <time>2016-05-21T15:11:56Z</time>
      </trkpt>
      <trkpt lat="48.84715" lon="-0.39945">
        <ele>121</ele>
        <time>2016-05-21T15:12:02Z</time>
      </trkpt>
      <trkpt lat="48.8473" lon="-0.39945">
        <ele>122</ele>
        <time>2016-05-21T15:12:04Z</time>
      </trkpt>
      <trkpt lat="48.84745" lon="-0.39948">
        <ele>121</ele>
        <time>2016-05-21T15:12:09Z</time>
      </trkpt>
      <trkpt lat="48.8476" lon="-0.39953">
        <ele>121</ele>
        <time>2016-05-21T15:12:13Z</time>
      </trkpt>
      <trkpt lat="48.84788" lon="-0.3996">
        <ele>121</ele>
        <time>2016-05-21T15:12:19Z</time>
      </trkpt>
      <trkpt lat="48.84803" lon="-0.39968">
        <ele>121</ele>
        <time>2016-05-21T15:12:22Z</time>
      </trkpt>
      <trkpt lat="48.84823" lon="-0.3998">
        <ele>120</ele>
        <time>2016-05-21T15:12:26Z</time>
      </trkpt>
      <trkpt lat="48.84838" lon="-0.3999">
        <ele>120</ele>
        <time>2016-05-21T15:12:28Z</time>
      </trkpt>
      <trkpt lat="48.8485" lon="-0.4">
        <ele>120</ele>
        <time>2016-05-21T15:12:32Z</time>
      </trkpt>
      <trkpt lat="48.84865" lon="-0.40013">
        <ele>120</ele>
        <time>2016-05-21T15:12:35Z</time>
      </trkpt>
      <trkpt lat="48.8488" lon="-0.40025">
        <ele>119</ele>
        <time>2016-05-21T15:12:38Z</time>
      </trkpt>
      <trkpt lat="48.84918" lon="-0.40053">
        <ele>118</ele>
        <time>2016-05-21T15:12:47Z</time>
      </trkpt>
      <trkpt lat="48.8493" lon="-0.4007">
        <ele>117</ele>
        <time>2016-05-21T15:12:50Z</time>
      </trkpt>
      <trkpt lat="48.84935" lon="-0.40093">
        <ele>117</ele>
        <time>2016-05-21T15:12:53Z</time>
      </trkpt>
      <trkpt lat="48.8494" lon="-0.40115">
        <ele>116</ele>
        <time>2016-05-21T15:12:56Z</time>
      </trkpt>
      <trkpt lat="48.84943" lon="-0.40138">
        <ele>115</ele>
        <time>2016-05-21T15:12:59Z</time>
      </trkpt>
      <trkpt lat="48.84948" lon="-0.4016">
        <ele>115</ele>
        <time>2016-05-21T15:13:02Z</time>
      </trkpt>
      <trkpt lat="48.8495" lon="-0.40188">
        <ele>116</ele>
        <time>2016-05-21T15:13:06Z</time>
      </trkpt>
      <trkpt lat="48.84955" lon="-0.40215">
        <ele>117</ele>
        <time>2016-05-21T15:13:11Z</time>
      </trkpt>
      <trkpt lat="48.84963" lon="-0.40245">
        <ele>117</ele>
        <time>2016-05-21T15:13:17Z</time>
      </trkpt>
      <trkpt lat="48.84958" lon="-0.40268">
        <ele>117</ele>
        <time>2016-05-21T15:13:21Z</time>
      </trkpt>
      <trkpt lat="48.84945" lon="-0.40283">
        <ele>117</ele>
        <time>2016-05-21T15:13:25Z</time>
      </trkpt>
      <trkpt lat="48.84935" lon="-0.40298">
        <ele>117</ele>
        <time>2016-05-21T15:13:28Z</time>
      </trkpt>
      <trkpt lat="48.8492" lon="-0.40315">
        <ele>117</ele>
        <time>2016-05-21T15:13:31Z</time>
      </trkpt>
      <trkpt lat="48.8491" lon="-0.40333">
        <ele>117</ele>
        <time>2016-05-21T15:13:36Z</time>
      </trkpt>
      <trkpt lat="48.849" lon="-0.4035">
        <ele>117</ele>
        <time>2016-05-21T15:13:40Z</time>
      </trkpt>
      <trkpt lat="48.84885" lon="-0.4038">
        <ele>116</ele>
        <time>2016-05-21T15:13:46Z</time>
      </trkpt>
      <trkpt lat="48.84875" lon="-0.40398">
        <ele>116</ele>
        <time>2016-05-21T15:13:49Z</time>
      </trkpt>
      <trkpt lat="48.84863" lon="-0.40415">
        <ele>115</ele>
        <time>2016-05-21T15:13:51Z</time>
      </trkpt>
      <trkpt lat="48.8483" lon="-0.4047">
        <ele>115</ele>
        <time>2016-05-21T15:13:59Z</time>
      </trkpt>
      <trkpt lat="48.84818" lon="-0.4049">
        <ele>114</ele>
        <time>2016-05-21T15:14:02Z</time>
      </trkpt>
      <trkpt lat="48.84768" lon="-0.40565">
        <ele>113</ele>
        <time>2016-05-21T15:14:15Z</time>
      </trkpt>
      <trkpt lat="48.84678" lon="-0.407">
        <ele>112</ele>
        <time>2016-05-21T15:14:39Z</time>
      </trkpt>
      <trkpt lat="48.84665" lon="-0.40718">
        <ele>114</ele>
        <time>2016-05-21T15:15:08Z</time>
      </trkpt>
      <trkpt lat="48.84653" lon="-0.40705">
        <ele>114</ele>
        <time>2016-05-21T15:15:14Z</time>
      </trkpt>
      <trkpt lat="48.8464" lon="-0.40693">
        <ele>114</ele>
        <time>2016-05-21T15:15:19Z</time>
      </trkpt>
      <trkpt lat="48.84628" lon="-0.40683">
        <ele>115</ele>
        <time>2016-05-21T15:15:24Z</time>
      </trkpt>
      <trkpt lat="48.846" lon="-0.4066">
        <ele>115</ele>
        <time>2016-05-21T15:15:33Z</time>
      </trkpt>
      <trkpt lat="48.84573" lon="-0.40638">
        <ele>116</ele>
        <time>2016-05-21T15:15:40Z</time>
      </trkpt>
      <trkpt lat="48.8456" lon="-0.40628">
        <ele>116</ele>
        <time>2016-05-21T15:15:45Z</time>
      </trkpt>
      <trkpt lat="48.84545" lon="-0.40618">
        <ele>116</ele>
        <time>2016-05-21T15:15:49Z</time>
      </trkpt>
      <trkpt lat="48.84528" lon="-0.406">
        <ele>115</ele>
        <time>2016-05-21T15:15:53Z</time>
      </trkpt>
      <trkpt lat="48.84515" lon="-0.40588">
        <ele>115</ele>
        <time>2016-05-21T15:15:58Z</time>
      </trkpt>
      <trkpt lat="48.8448" lon="-0.40553">
        <ele>116</ele>
        <time>2016-05-21T15:16:07Z</time>
      </trkpt>
      <trkpt lat="48.84468" lon="-0.4054">
        <ele>116</ele>
        <time>2016-05-21T15:16:12Z</time>
      </trkpt>
      <trkpt lat="48.84455" lon="-0.40528">
        <ele>117</ele>
        <time>2016-05-21T15:16:19Z</time>
      </trkpt>
      <trkpt lat="48.8444" lon="-0.40518">
        <ele>117</ele>
        <time>2016-05-21T15:16:27Z</time>
      </trkpt>
      <trkpt lat="48.84428" lon="-0.40508">
        <ele>118</ele>
        <time>2016-05-21T15:16:31Z</time>
      </trkpt>
      <trkpt lat="48.84398" lon="-0.40483">
        <ele>117</ele>
        <time>2016-05-21T15:16:41Z</time>
      </trkpt>
      <trkpt lat="48.84383" lon="-0.40475">
        <ele>117</ele>
        <time>2016-05-21T15:16:46Z</time>
      </trkpt>
      <trkpt lat="48.84368" lon="-0.40475">
        <ele>117</ele>
        <time>2016-05-21T15:16:49Z</time>
      </trkpt>
      <trkpt lat="48.84358" lon="-0.4049">
        <ele>118</ele>
        <time>2016-05-21T15:16:55Z</time>
      </trkpt>
      <trkpt lat="48.8435" lon="-0.40508">
        <ele>119</ele>
        <time>2016-05-21T15:16:59Z</time>
      </trkpt>
      <trkpt lat="48.84345" lon="-0.40528">
        <ele>120</ele>
        <time>2016-05-21T15:17:04Z</time>
      </trkpt>
      <trkpt lat="48.84338" lon="-0.40555">
        <ele>122</ele>
        <time>2016-05-21T15:17:12Z</time>
      </trkpt>
      <trkpt lat="48.8433" lon="-0.4058">
        <ele>124</ele>
        <time>2016-05-21T15:17:20Z</time>
      </trkpt>
      <trkpt lat="48.84323" lon="-0.406">
        <ele>127</ele>
        <time>2016-05-21T15:17:28Z</time>
      </trkpt>
      <trkpt lat="48.84315" lon="-0.40623">
        <ele>130</ele>
        <time>2016-05-21T15:17:35Z</time>
      </trkpt>
      <trkpt lat="48.8431" lon="-0.40645">
        <ele>133</ele>
        <time>2016-05-21T15:17:43Z</time>
      </trkpt>
      <trkpt lat="48.84305" lon="-0.40665">
        <ele>135</ele>
        <time>2016-05-21T15:17:51Z</time>
      </trkpt>
      <trkpt lat="48.843" lon="-0.40685">
        <ele>139</ele>
        <time>2016-05-21T15:17:58Z</time>
      </trkpt>
      <trkpt lat="48.84293" lon="-0.4071">
        <ele>142</ele>
        <time>2016-05-21T15:18:09Z</time>
      </trkpt>
      <trkpt lat="48.84288" lon="-0.4073">
        <ele>144</ele>
        <time>2016-05-21T15:18:17Z</time>
      </trkpt>
      <trkpt lat="48.84283" lon="-0.4075">
        <ele>145</ele>
        <time>2016-05-21T15:18:23Z</time>
      </trkpt>
      <trkpt lat="48.84278" lon="-0.4077">
        <ele>147</ele>
        <time>2016-05-21T15:18:29Z</time>
      </trkpt>
      <trkpt lat="48.8427" lon="-0.40788">
        <ele>147</ele>
        <time>2016-05-21T15:18:36Z</time>
      </trkpt>
      <trkpt lat="48.84263" lon="-0.40808">
        <ele>150</ele>
        <time>2016-05-21T15:18:43Z</time>
      </trkpt>
      <trkpt lat="48.84258" lon="-0.40828">
        <ele>151</ele>
        <time>2016-05-21T15:18:51Z</time>
      </trkpt>
      <trkpt lat="48.8425" lon="-0.40848">
        <ele>152</ele>
        <time>2016-05-21T15:18:59Z</time>
      </trkpt>
      <trkpt lat="48.8424" lon="-0.40865">
        <ele>152</ele>
        <time>2016-05-21T15:19:06Z</time>
      </trkpt>
      <trkpt lat="48.84233" lon="-0.40883">
        <ele>153</ele>
        <time>2016-05-21T15:19:11Z</time>
      </trkpt>
      <trkpt lat="48.8422" lon="-0.40908">
        <ele>154</ele>
        <time>2016-05-21T15:19:18Z</time>
      </trkpt>
      <trkpt lat="48.84213" lon="-0.40928">
        <ele>155</ele>
        <time>2016-05-21T15:19:23Z</time>
      </trkpt>
      <trkpt lat="48.84205" lon="-0.40945">
        <ele>155</ele>
        <time>2016-05-21T15:19:27Z</time>
      </trkpt>
      <trkpt lat="48.84198" lon="-0.40963">
        <ele>157</ele>
        <time>2016-05-21T15:19:33Z</time>
      </trkpt>
      <trkpt lat="48.8419" lon="-0.4098">
        <ele>158</ele>
        <time>2016-05-21T15:19:38Z</time>
      </trkpt>
      <trkpt lat="48.84183" lon="-0.40998">
        <ele>159</ele>
        <time>2016-05-21T15:19:44Z</time>
      </trkpt>
      <trkpt lat="48.84173" lon="-0.41015">
        <ele>162</ele>
        <time>2016-05-21T15:19:52Z</time>
      </trkpt>
      <trkpt lat="48.84165" lon="-0.41033">
        <ele>164</ele>
        <time>2016-05-21T15:19:59Z</time>
      </trkpt>
      <trkpt lat="48.84158" lon="-0.4105">
        <ele>164</ele>
        <time>2016-05-21T15:20:04Z</time>
      </trkpt>
      <trkpt lat="48.8415" lon="-0.41068">
        <ele>166</ele>
        <time>2016-05-21T15:20:11Z</time>
      </trkpt>
      <trkpt lat="48.8414" lon="-0.41088">
        <ele>167</ele>
        <time>2016-05-21T15:20:18Z</time>
      </trkpt>
      <trkpt lat="48.8413" lon="-0.4111">
        <ele>168</ele>
        <time>2016-05-21T15:20:24Z</time>
      </trkpt>
      <trkpt lat="48.84123" lon="-0.41128">
        <ele>169</ele>
        <time>2016-05-21T15:20:30Z</time>
      </trkpt>
      <trkpt lat="48.84115" lon="-0.41145">
        <ele>170</ele>
        <time>2016-05-21T15:20:36Z</time>
      </trkpt>
      <trkpt lat="48.84108" lon="-0.41163">
        <ele>173</ele>
        <time>2016-05-21T15:20:42Z</time>
      </trkpt>
      <trkpt lat="48.84108" lon="-0.41185">
        <ele>176</ele>
        <time>2016-05-21T15:20:48Z</time>
      </trkpt>
      <trkpt lat="48.8411" lon="-0.41208">
        <ele>178</ele>
        <time>2016-05-21T15:20:54Z</time>
      </trkpt>
      <trkpt lat="48.84113" lon="-0.41233">
        <ele>178</ele>
        <time>2016-05-21T15:20:59Z</time>
      </trkpt>
      <trkpt lat="48.84118" lon="-0.4126">
        <ele>179</ele>
        <time>2016-05-21T15:21:05Z</time>
      </trkpt>
      <trkpt lat="48.84123" lon="-0.41285">
        <ele>179</ele>
        <time>2016-05-21T15:21:10Z</time>
      </trkpt>
      <trkpt lat="48.84128" lon="-0.4131">
        <ele>180</ele>
        <time>2016-05-21T15:21:15Z</time>
      </trkpt>
      <trkpt lat="48.84133" lon="-0.41333">
        <ele>181</ele>
        <time>2016-05-21T15:21:20Z</time>
      </trkpt>
      <trkpt lat="48.84133" lon="-0.41358">
        <ele>182</ele>
        <time>2016-05-21T15:21:26Z</time>
      </trkpt>
      <trkpt lat="48.84138" lon="-0.4138">
        <ele>181</ele>
        <time>2016-05-21T15:21:32Z</time>
      </trkpt>
      <trkpt lat="48.8414" lon="-0.41405">
        <ele>182</ele>
        <time>2016-05-21T15:21:38Z</time>
      </trkpt>
      <trkpt lat="48.84143" lon="-0.41435">
        <ele>183</ele>
        <time>2016-05-21T15:21:45Z</time>
      </trkpt>
      <trkpt lat="48.84148" lon="-0.4146">
        <ele>184</ele>
        <time>2016-05-21T15:21:51Z</time>
      </trkpt>
      <trkpt lat="48.8415" lon="-0.41483">
        <ele>186</ele>
        <time>2016-05-21T15:21:56Z</time>
      </trkpt>
      <trkpt lat="48.8415" lon="-0.41508">
        <ele>186</ele>
        <time>2016-05-21T15:22:01Z</time>
      </trkpt>
      <trkpt lat="48.8415" lon="-0.4153">
        <ele>185</ele>
        <time>2016-05-21T15:22:06Z</time>
      </trkpt>
      <trkpt lat="48.8415" lon="-0.41558">
        <ele>185</ele>
        <time>2016-05-21T15:22:13Z</time>
      </trkpt>
      <trkpt lat="48.84155" lon="-0.4158">
        <ele>185</ele>
        <time>2016-05-21T15:22:18Z</time>
      </trkpt>
      <trkpt lat="48.84155" lon="-0.41603">
        <ele>186</ele>
        <time>2016-05-21T15:22:23Z</time>
      </trkpt>
      <trkpt lat="48.84158" lon="-0.41625">
        <ele>187</ele>
        <time>2016-05-21T15:22:29Z</time>
      </trkpt>
      <trkpt lat="48.8416" lon="-0.41648">
        <ele>188</ele>
        <time>2016-05-21T15:22:34Z</time>
      </trkpt>
      <trkpt lat="48.84163" lon="-0.41673">
        <ele>209</ele>
        <time>2016-05-21T15:29:34Z</time>
      </trkpt>
      <trkpt lat="48.84163" lon="-0.41695">
        <ele>206</ele>
        <time>2016-05-21T15:29:40Z</time>
      </trkpt>
      <trkpt lat="48.84163" lon="-0.41718">
        <ele>203</ele>
        <time>2016-05-21T15:29:48Z</time>
      </trkpt>
      <trkpt lat="48.84163" lon="-0.41745">
        <ele>200</ele>
        <time>2016-05-21T15:29:53Z</time>
      </trkpt>
      <trkpt lat="48.84163" lon="-0.41768">
        <ele>199</ele>
        <time>2016-05-21T15:30:00Z</time>
      </trkpt>
      <trkpt lat="48.8416" lon="-0.41793">
        <ele>197</ele>
        <time>2016-05-21T15:30:06Z</time>
      </trkpt>
      <trkpt lat="48.84158" lon="-0.41818">
        <ele>197</ele>
        <time>2016-05-21T15:30:10Z</time>
      </trkpt>
      <trkpt lat="48.84155" lon="-0.4184">
        <ele>198</ele>
        <time>2016-05-21T15:30:16Z</time>
      </trkpt>
      <trkpt lat="48.84155" lon="-0.41865">
        <ele>198</ele>
        <time>2016-05-21T15:30:22Z</time>
      </trkpt>
      <trkpt lat="48.84158" lon="-0.41895">
        <ele>199</ele>
        <time>2016-05-21T15:30:29Z</time>
      </trkpt>
      <trkpt lat="48.8416" lon="-0.41918">
        <ele>198</ele>
        <time>2016-05-21T15:30:36Z</time>
      </trkpt>
      <trkpt lat="48.8416" lon="-0.4194">
        <ele>201</ele>
        <time>2016-05-21T15:30:44Z</time>
      </trkpt>
      <trkpt lat="48.8416" lon="-0.41965">
        <ele>199</ele>
        <time>2016-05-21T15:30:48Z</time>
      </trkpt>
      <trkpt lat="48.84158" lon="-0.41988">
        <ele>199</ele>
        <time>2016-05-21T15:30:55Z</time>
      </trkpt>
      <trkpt lat="48.84155" lon="-0.42015">
        <ele>199</ele>
        <time>2016-05-21T15:31:02Z</time>
      </trkpt>
      <trkpt lat="48.8416" lon="-0.41995">
        <ele>202</ele>
        <time>2016-05-21T15:31:34Z</time>
      </trkpt>
      <trkpt lat="48.8416" lon="-0.4197">
        <ele>200</ele>
        <time>2016-05-21T15:31:38Z</time>
      </trkpt>
      <trkpt lat="48.8416" lon="-0.4193">
        <ele>200</ele>
        <time>2016-05-21T15:31:44Z</time>
      </trkpt>
      <trkpt lat="48.84158" lon="-0.4187">
        <ele>201</ele>
        <time>2016-05-21T15:31:53Z</time>
      </trkpt>
      <trkpt lat="48.8416" lon="-0.41848">
        <ele>201</ele>
        <time>2016-05-21T15:31:55Z</time>
      </trkpt>
      <trkpt lat="48.84163" lon="-0.41813">
        <ele>199</ele>
        <time>2016-05-21T15:32:01Z</time>
      </trkpt>
      <trkpt lat="48.84163" lon="-0.4179">
        <ele>198</ele>
        <time>2016-05-21T15:32:04Z</time>
      </trkpt>
      <trkpt lat="48.8416" lon="-0.41768">
        <ele>201</ele>
        <time>2016-05-21T15:32:12Z</time>
      </trkpt>
      <trkpt lat="48.84163" lon="-0.41743">
        <ele>202</ele>
        <time>2016-05-21T15:32:20Z</time>
      </trkpt>
      <trkpt lat="48.84163" lon="-0.41768">
        <ele>196</ele>
        <time>2016-05-21T15:32:37Z</time>
      </trkpt>
      <trkpt lat="48.8416" lon="-0.41795">
        <ele>194</ele>
        <time>2016-05-21T15:32:42Z</time>
      </trkpt>
      <trkpt lat="48.84158" lon="-0.41833">
        <ele>194</ele>
        <time>2016-05-21T15:32:48Z</time>
      </trkpt>
      <trkpt lat="48.84155" lon="-0.41873">
        <ele>196</ele>
        <time>2016-05-21T15:32:54Z</time>
      </trkpt>
      <trkpt lat="48.84158" lon="-0.41895">
        <ele>197</ele>
        <time>2016-05-21T15:32:57Z</time>
      </trkpt>
      <trkpt lat="48.84158" lon="-0.41918">
        <ele>198</ele>
        <time>2016-05-21T15:33:01Z</time>
      </trkpt>
      <trkpt lat="48.8416" lon="-0.41943">
        <ele>198</ele>
        <time>2016-05-21T15:33:08Z</time>
      </trkpt>
      <trkpt lat="48.8416" lon="-0.4197">
        <ele>197</ele>
        <time>2016-05-21T15:33:11Z</time>
      </trkpt>
      <trkpt lat="48.8416" lon="-0.41995">
        <ele>196</ele>
        <time>2016-05-21T15:33:16Z</time>
      </trkpt>
      <trkpt lat="48.84168" lon="-0.42013">
        <ele>198</ele>
        <time>2016-05-21T15:33:21Z</time>
      </trkpt>
      <trkpt lat="48.84175" lon="-0.4203">
        <ele>202</ele>
        <time>2016-05-21T15:33:27Z</time>
      </trkpt>
      <trkpt lat="48.84188" lon="-0.4205">
        <ele>204</ele>
        <time>2016-05-21T15:33:32Z</time>
      </trkpt>
      <trkpt lat="48.84198" lon="-0.4207">
        <ele>206</ele>
        <time>2016-05-21T15:33:38Z</time>
      </trkpt>
      <trkpt lat="48.84208" lon="-0.42088">
        <ele>209</ele>
        <time>2016-05-21T15:33:44Z</time>
      </trkpt>
      <trkpt lat="48.84218" lon="-0.42103">
        <ele>211</ele>
        <time>2016-05-21T15:33:50Z</time>
      </trkpt>
      <trkpt lat="48.84228" lon="-0.42118">
        <ele>214</ele>
        <time>2016-05-21T15:33:55Z</time>
      </trkpt>
      <trkpt lat="48.84243" lon="-0.42135">
        <ele>216</ele>
        <time>2016-05-21T15:34:01Z</time>
      </trkpt>
      <trkpt lat="48.8426" lon="-0.42153">
        <ele>217</ele>
        <time>2016-05-21T15:34:06Z</time>
      </trkpt>
      <trkpt lat="48.8427" lon="-0.4217">
        <ele>217</ele>
        <time>2016-05-21T15:34:10Z</time>
      </trkpt>
      <trkpt lat="48.8428" lon="-0.4219">
        <ele>219</ele>
        <time>2016-05-21T15:34:16Z</time>
      </trkpt>
      <trkpt lat="48.8429" lon="-0.42208">
        <ele>221</ele>
        <time>2016-05-21T15:34:21Z</time>
      </trkpt>
      <trkpt lat="48.843" lon="-0.42223">
        <ele>223</ele>
        <time>2016-05-21T15:34:24Z</time>
      </trkpt>
      <trkpt lat="48.8431" lon="-0.42243">
        <ele>224</ele>
        <time>2016-05-21T15:34:29Z</time>
      </trkpt>
      <trkpt lat="48.84318" lon="-0.42263">
        <ele>223</ele>
        <time>2016-05-21T15:34:33Z</time>
      </trkpt>
      <trkpt lat="48.84325" lon="-0.42288">
        <ele>223</ele>
        <time>2016-05-21T15:34:39Z</time>
      </trkpt>
      <trkpt lat="48.84333" lon="-0.4231">
        <ele>224</ele>
        <time>2016-05-21T15:34:44Z</time>
      </trkpt>
      <trkpt lat="48.84338" lon="-0.4233">
        <ele>224</ele>
        <time>2016-05-21T15:34:49Z</time>
      </trkpt>
      <trkpt lat="48.84343" lon="-0.4235">
        <ele>223</ele>
        <time>2016-05-21T15:34:52Z</time>
      </trkpt>
      <trkpt lat="48.84345" lon="-0.42373">
        <ele>221</ele>
        <time>2016-05-21T15:34:57Z</time>
      </trkpt>
      <trkpt lat="48.84343" lon="-0.42398">
        <ele>221</ele>
        <time>2016-05-21T15:35:01Z</time>
      </trkpt>
      <trkpt lat="48.84345" lon="-0.4242">
        <ele>220</ele>
        <time>2016-05-21T15:35:06Z</time>
      </trkpt>
      <trkpt lat="48.84353" lon="-0.4244">
        <ele>220</ele>
        <time>2016-05-21T15:35:08Z</time>
      </trkpt>
      <trkpt lat="48.84355" lon="-0.42463">
        <ele>219</ele>
        <time>2016-05-21T15:35:13Z</time>
      </trkpt>
      <trkpt lat="48.8435" lon="-0.42485">
        <ele>220</ele>
        <time>2016-05-21T15:35:16Z</time>
      </trkpt>
      <trkpt lat="48.84343" lon="-0.42503">
        <ele>220</ele>
        <time>2016-05-21T15:35:20Z</time>
      </trkpt>
      <trkpt lat="48.84333" lon="-0.42518">
        <ele>221</ele>
        <time>2016-05-21T15:35:25Z</time>
      </trkpt>
      <trkpt lat="48.84325" lon="-0.42538">
        <ele>224</ele>
        <time>2016-05-21T15:35:29Z</time>
      </trkpt>
      <trkpt lat="48.84315" lon="-0.42555">
        <ele>226</ele>
        <time>2016-05-21T15:35:34Z</time>
      </trkpt>
      <trkpt lat="48.84303" lon="-0.42568">
        <ele>226</ele>
        <time>2016-05-21T15:35:40Z</time>
      </trkpt>
      <trkpt lat="48.8429" lon="-0.4258">
        <ele>227</ele>
        <time>2016-05-21T15:35:44Z</time>
      </trkpt>
      <trkpt lat="48.84275" lon="-0.42598">
        <ele>228</ele>
        <time>2016-05-21T15:35:50Z</time>
      </trkpt>
      <trkpt lat="48.84263" lon="-0.4261">
        <ele>230</ele>
        <time>2016-05-21T15:35:55Z</time>
      </trkpt>
      <trkpt lat="48.84248" lon="-0.4262">
        <ele>231</ele>
        <time>2016-05-21T15:35:59Z</time>
      </trkpt>
      <trkpt lat="48.8423" lon="-0.4263">
        <ele>232</ele>
        <time>2016-05-21T15:36:04Z</time>
      </trkpt>
      <trkpt lat="48.84213" lon="-0.4264">
        <ele>233</ele>
        <time>2016-05-21T15:36:10Z</time>
      </trkpt>
      <trkpt lat="48.84198" lon="-0.42648">
        <ele>235</ele>
        <time>2016-05-21T15:36:14Z</time>
      </trkpt>
      <trkpt lat="48.84183" lon="-0.42655">
        <ele>235</ele>
        <time>2016-05-21T15:36:19Z</time>
      </trkpt>
      <trkpt lat="48.84168" lon="-0.42665">
        <ele>234</ele>
        <time>2016-05-21T15:36:25Z</time>
      </trkpt>
      <trkpt lat="48.84148" lon="-0.42678">
        <ele>234</ele>
        <time>2016-05-21T15:36:34Z</time>
      </trkpt>
      <trkpt lat="48.84135" lon="-0.4269">
        <ele>235</ele>
        <time>2016-05-21T15:36:40Z</time>
      </trkpt>
      <trkpt lat="48.84123" lon="-0.42703">
        <ele>235</ele>
        <time>2016-05-21T15:36:45Z</time>
      </trkpt>
      <trkpt lat="48.84113" lon="-0.4272">
        <ele>234</ele>
        <time>2016-05-21T15:36:51Z</time>
      </trkpt>
      <trkpt lat="48.84103" lon="-0.42738">
        <ele>234</ele>
        <time>2016-05-21T15:36:56Z</time>
      </trkpt>
      <trkpt lat="48.84095" lon="-0.42755">
        <ele>234</ele>
        <time>2016-05-21T15:37:01Z</time>
      </trkpt>
      <trkpt lat="48.84095" lon="-0.42783">
        <ele>234</ele>
        <time>2016-05-21T15:37:07Z</time>
      </trkpt>
      <trkpt lat="48.84095" lon="-0.42813">
        <ele>233</ele>
        <time>2016-05-21T15:37:14Z</time>
      </trkpt>
      <trkpt lat="48.84095" lon="-0.42835">
        <ele>231</ele>
        <time>2016-05-21T15:37:18Z</time>
      </trkpt>
      <trkpt lat="48.84098" lon="-0.42858">
        <ele>232</ele>
        <time>2016-05-21T15:37:22Z</time>
      </trkpt>
      <trkpt lat="48.841" lon="-0.4288">
        <ele>233</ele>
        <time>2016-05-21T15:37:25Z</time>
      </trkpt>
      <trkpt lat="48.84105" lon="-0.4292">
        <ele>235</ele>
        <time>2016-05-21T15:37:33Z</time>
      </trkpt>
      <trkpt lat="48.84113" lon="-0.4294">
        <ele>236</ele>
        <time>2016-05-21T15:37:38Z</time>
      </trkpt>
      <trkpt lat="48.8412" lon="-0.4296">
        <ele>237</ele>
        <time>2016-05-21T15:37:43Z</time>
      </trkpt>
      <trkpt lat="48.84128" lon="-0.42983">
        <ele>237</ele>
        <time>2016-05-21T15:37:48Z</time>
      </trkpt>
      <trkpt lat="48.84138" lon="-0.43005">
        <ele>237</ele>
        <time>2016-05-21T15:37:53Z</time>
      </trkpt>
      <trkpt lat="48.84148" lon="-0.43023">
        <ele>236</ele>
        <time>2016-05-21T15:37:56Z</time>
      </trkpt>
      <trkpt lat="48.8415" lon="-0.43045">
        <ele>235</ele>
        <time>2016-05-21T15:37:59Z</time>
      </trkpt>
      <trkpt lat="48.8415" lon="-0.43068">
        <ele>233</ele>
        <time>2016-05-21T15:38:04Z</time>
      </trkpt>
      <trkpt lat="48.84148" lon="-0.4309">
        <ele>231</ele>
        <time>2016-05-21T15:38:07Z</time>
      </trkpt>
      <trkpt lat="48.84148" lon="-0.43113">
        <ele>230</ele>
        <time>2016-05-21T15:38:12Z</time>
      </trkpt>
      <trkpt lat="48.84148" lon="-0.43135">
        <ele>229</ele>
        <time>2016-05-21T15:38:16Z</time>
      </trkpt>
      <trkpt lat="48.84145" lon="-0.43178">
        <ele>227</ele>
        <time>2016-05-21T15:38:23Z</time>
      </trkpt>
      <trkpt lat="48.84143" lon="-0.43203">
        <ele>224</ele>
        <time>2016-05-21T15:38:25Z</time>
      </trkpt>
      <trkpt lat="48.84145" lon="-0.43258">
        <ele>223</ele>
        <time>2016-05-21T15:38:33Z</time>
      </trkpt>
      <trkpt lat="48.8415" lon="-0.43283">
        <ele>223</ele>
        <time>2016-05-21T15:38:35Z</time>
      </trkpt>
      <trkpt lat="48.84155" lon="-0.43305">
        <ele>224</ele>
        <time>2016-05-21T15:38:40Z</time>
      </trkpt>
      <trkpt lat="48.84158" lon="-0.4333">
        <ele>227</ele>
        <time>2016-05-21T15:38:46Z</time>
      </trkpt>
      <trkpt lat="48.8416" lon="-0.43355">
        <ele>225</ele>
        <time>2016-05-21T15:38:52Z</time>
      </trkpt>
      <trkpt lat="48.8416" lon="-0.43378">
        <ele>224</ele>
        <time>2016-05-21T15:38:56Z</time>
      </trkpt>
      <trkpt lat="48.84163" lon="-0.43403">
        <ele>224</ele>
        <time>2016-05-21T15:38:59Z</time>
      </trkpt>
      <trkpt lat="48.84168" lon="-0.43425">
        <ele>225</ele>
        <time>2016-05-21T15:39:04Z</time>
      </trkpt>
      <trkpt lat="48.84175" lon="-0.43443">
        <ele>224</ele>
        <time>2016-05-21T15:39:07Z</time>
      </trkpt>
      <trkpt lat="48.84185" lon="-0.4346">
        <ele>224</ele>
        <time>2016-05-21T15:39:11Z</time>
      </trkpt>
      <trkpt lat="48.84205" lon="-0.435">
        <ele>225</ele>
        <time>2016-05-21T15:39:21Z</time>
      </trkpt>
      <trkpt lat="48.84215" lon="-0.43515">
        <ele>225</ele>
        <time>2016-05-21T15:39:25Z</time>
      </trkpt>
      <trkpt lat="48.84225" lon="-0.43535">
        <ele>226</ele>
        <time>2016-05-21T15:39:29Z</time>
      </trkpt>
      <trkpt lat="48.84235" lon="-0.43553">
        <ele>226</ele>
        <time>2016-05-21T15:39:34Z</time>
      </trkpt>
      <trkpt lat="48.84245" lon="-0.4357">
        <ele>226</ele>
        <time>2016-05-21T15:39:39Z</time>
      </trkpt>
      <trkpt lat="48.84253" lon="-0.43588">
        <ele>228</ele>
        <time>2016-05-21T15:39:46Z</time>
      </trkpt>
      <trkpt lat="48.84263" lon="-0.43603">
        <ele>230</ele>
        <time>2016-05-21T15:39:52Z</time>
      </trkpt>
      <trkpt lat="48.84273" lon="-0.43585">
        <ele>230</ele>
        <time>2016-05-21T15:39:58Z</time>
      </trkpt>
      <trkpt lat="48.8428" lon="-0.43565">
        <ele>230</ele>
        <time>2016-05-21T15:40:04Z</time>
      </trkpt>
      <trkpt lat="48.8429" lon="-0.4354">
        <ele>230</ele>
        <time>2016-05-21T15:40:09Z</time>
      </trkpt>
      <trkpt lat="48.84295" lon="-0.43515">
        <ele>230</ele>
        <time>2016-05-21T15:40:13Z</time>
      </trkpt>
      <trkpt lat="48.84303" lon="-0.43493">
        <ele>230</ele>
        <time>2016-05-21T15:40:17Z</time>
      </trkpt>
      <trkpt lat="48.84308" lon="-0.43473">
        <ele>230</ele>
        <time>2016-05-21T15:40:20Z</time>
      </trkpt>
      <trkpt lat="48.84313" lon="-0.43445">
        <ele>229</ele>
        <time>2016-05-21T15:40:25Z</time>
      </trkpt>
      <trkpt lat="48.84315" lon="-0.43423">
        <ele>229</ele>
        <time>2016-05-21T15:40:27Z</time>
      </trkpt>
      <trkpt lat="48.84323" lon="-0.434">
        <ele>229</ele>
        <time>2016-05-21T15:40:30Z</time>
      </trkpt>
      <trkpt lat="48.84335" lon="-0.43363">
        <ele>229</ele>
        <time>2016-05-21T15:40:35Z</time>
      </trkpt>
      <trkpt lat="48.84345" lon="-0.43335">
        <ele>227</ele>
        <time>2016-05-21T15:40:38Z</time>
      </trkpt>
      <trkpt lat="48.84355" lon="-0.43315">
        <ele>227</ele>
        <time>2016-05-21T15:40:40Z</time>
      </trkpt>
      <trkpt lat="48.84378" lon="-0.43263">
        <ele>227</ele>
        <time>2016-05-21T15:40:45Z</time>
      </trkpt>
      <trkpt lat="48.84395" lon="-0.43235">
        <ele>225</ele>
        <time>2016-05-21T15:40:47Z</time>
      </trkpt>
      <trkpt lat="48.84413" lon="-0.43218">
        <ele>225</ele>
        <time>2016-05-21T15:40:51Z</time>
      </trkpt>
      <trkpt lat="48.8443" lon="-0.43198">
        <ele>225</ele>
        <time>2016-05-21T15:40:54Z</time>
      </trkpt>
      <trkpt lat="48.84448" lon="-0.43183">
        <ele>225</ele>
        <time>2016-05-21T15:40:57Z</time>
      </trkpt>
      <trkpt lat="48.8446" lon="-0.43173">
        <ele>225</ele>
        <time>2016-05-21T15:40:59Z</time>
      </trkpt>
      <trkpt lat="48.8449" lon="-0.43138">
        <ele>225</ele>
        <time>2016-05-21T15:41:04Z</time>
      </trkpt>
      <trkpt lat="48.8451" lon="-0.43123">
        <ele>226</ele>
        <time>2016-05-21T15:41:07Z</time>
      </trkpt>
      <trkpt lat="48.8453" lon="-0.43108">
        <ele>226</ele>
        <time>2016-05-21T15:41:10Z</time>
      </trkpt>
      <trkpt lat="48.84553" lon="-0.43095">
        <ele>226</ele>
        <time>2016-05-21T15:41:13Z</time>
      </trkpt>
      <trkpt lat="48.84575" lon="-0.43083">
        <ele>227</ele>
        <time>2016-05-21T15:41:16Z</time>
      </trkpt>
      <trkpt lat="48.84598" lon="-0.43075">
        <ele>227</ele>
        <time>2016-05-21T15:41:19Z</time>
      </trkpt>
      <trkpt lat="48.8462" lon="-0.43073">
        <ele>226</ele>
        <time>2016-05-21T15:41:22Z</time>
      </trkpt>
      <trkpt lat="48.84653" lon="-0.43065">
        <ele>223</ele>
        <time>2016-05-21T15:41:25Z</time>
      </trkpt>
      <trkpt lat="48.84693" lon="-0.43058">
        <ele>222</ele>
        <time>2016-05-21T15:41:31Z</time>
      </trkpt>
      <trkpt lat="48.8472" lon="-0.43053">
        <ele>219</ele>
        <time>2016-05-21T15:41:34Z</time>
      </trkpt>
      <trkpt lat="48.84775" lon="-0.43043">
        <ele>213</ele>
        <time>2016-05-21T15:41:39Z</time>
      </trkpt>
      <trkpt lat="48.8484" lon="-0.4303">
        <ele>207</ele>
        <time>2016-05-21T15:41:47Z</time>
      </trkpt>
      <trkpt lat="48.8487" lon="-0.43023">
        <ele>205</ele>
        <time>2016-05-21T15:41:50Z</time>
      </trkpt>
      <trkpt lat="48.84895" lon="-0.43013">
        <ele>203</ele>
        <time>2016-05-21T15:41:53Z</time>
      </trkpt>
      <trkpt lat="48.84915" lon="-0.43003">
        <ele>201</ele>
        <time>2016-05-21T15:41:55Z</time>
      </trkpt>
      <trkpt lat="48.8495" lon="-0.42983">
        <ele>198</ele>
        <time>2016-05-21T15:42:01Z</time>
      </trkpt>
      <trkpt lat="48.84963" lon="-0.42993">
        <ele>197</ele>
        <time>2016-05-21T15:42:07Z</time>
      </trkpt>
      <trkpt lat="48.84975" lon="-0.43005">
        <ele>198</ele>
        <time>2016-05-21T15:42:43Z</time>
      </trkpt>
      <trkpt lat="48.84985" lon="-0.43023">
        <ele>197</ele>
        <time>2016-05-21T15:42:48Z</time>
      </trkpt>
      <trkpt lat="48.84998" lon="-0.43043">
        <ele>196</ele>
        <time>2016-05-21T15:42:53Z</time>
      </trkpt>
      <trkpt lat="48.85013" lon="-0.4304">
        <ele>195</ele>
        <time>2016-05-21T15:42:58Z</time>
      </trkpt>
      <trkpt lat="48.8503" lon="-0.4303">
        <ele>194</ele>
        <time>2016-05-21T15:43:02Z</time>
      </trkpt>
      <trkpt lat="48.85043" lon="-0.4302">
        <ele>194</ele>
        <time>2016-05-21T15:43:05Z</time>
      </trkpt>
      <trkpt lat="48.85075" lon="-0.42995">
        <ele>193</ele>
        <time>2016-05-21T15:43:12Z</time>
      </trkpt>
      <trkpt lat="48.85088" lon="-0.42985">
        <ele>193</ele>
        <time>2016-05-21T15:43:15Z</time>
      </trkpt>
      <trkpt lat="48.85103" lon="-0.42968">
        <ele>193</ele>
        <time>2016-05-21T15:43:19Z</time>
      </trkpt>
      <trkpt lat="48.85135" lon="-0.42928">
        <ele>193</ele>
        <time>2016-05-21T15:43:27Z</time>
      </trkpt>
      <trkpt lat="48.85148" lon="-0.42915">
        <ele>193</ele>
        <time>2016-05-21T15:43:29Z</time>
      </trkpt>
      <trkpt lat="48.85163" lon="-0.42905">
        <ele>193</ele>
        <time>2016-05-21T15:43:33Z</time>
      </trkpt>
      <trkpt lat="48.85178" lon="-0.42888">
        <ele>193</ele>
        <time>2016-05-21T15:43:36Z</time>
      </trkpt>
      <trkpt lat="48.8519" lon="-0.4287">
        <ele>193</ele>
        <time>2016-05-21T15:43:41Z</time>
      </trkpt>
      <trkpt lat="48.852" lon="-0.4285">
        <ele>193</ele>
        <time>2016-05-21T15:43:45Z</time>
      </trkpt>
      <trkpt lat="48.8521" lon="-0.42833">
        <ele>193</ele>
        <time>2016-05-21T15:43:49Z</time>
      </trkpt>
      <trkpt lat="48.8522" lon="-0.42815">
        <ele>193</ele>
        <time>2016-05-21T15:43:53Z</time>
      </trkpt>
      <trkpt lat="48.8523" lon="-0.428">
        <ele>193</ele>
        <time>2016-05-21T15:43:57Z</time>
      </trkpt>
      <trkpt lat="48.8524" lon="-0.42783">
        <ele>193</ele>
        <time>2016-05-21T15:43:59Z</time>
      </trkpt>
      <trkpt lat="48.85255" lon="-0.42768">
        <ele>191</ele>
        <time>2016-05-21T15:44:03Z</time>
      </trkpt>
      <trkpt lat="48.85263" lon="-0.4275">
        <ele>191</ele>
        <time>2016-05-21T15:44:06Z</time>
      </trkpt>
      <trkpt lat="48.85275" lon="-0.4273">
        <ele>189</ele>
        <time>2016-05-21T15:44:10Z</time>
      </trkpt>
      <trkpt lat="48.85285" lon="-0.42713">
        <ele>189</ele>
        <time>2016-05-21T15:44:13Z</time>
      </trkpt>
      <trkpt lat="48.85295" lon="-0.42688">
        <ele>189</ele>
        <time>2016-05-21T15:44:15Z</time>
      </trkpt>
      <trkpt lat="48.8532" lon="-0.42615">
        <ele>186</ele>
        <time>2016-05-21T15:44:23Z</time>
      </trkpt>
      <trkpt lat="48.85333" lon="-0.42583">
        <ele>184</ele>
        <time>2016-05-21T15:44:25Z</time>
      </trkpt>
      <trkpt lat="48.8534" lon="-0.42563">
        <ele>184</ele>
        <time>2016-05-21T15:44:27Z</time>
      </trkpt>
      <trkpt lat="48.85355" lon="-0.4251">
        <ele>181</ele>
        <time>2016-05-21T15:44:33Z</time>
      </trkpt>
      <trkpt lat="48.85363" lon="-0.42488">
        <ele>180</ele>
        <time>2016-05-21T15:44:35Z</time>
      </trkpt>
      <trkpt lat="48.8538" lon="-0.42453">
        <ele>177</ele>
        <time>2016-05-21T15:44:39Z</time>
      </trkpt>
      <trkpt lat="48.85388" lon="-0.42428">
        <ele>175</ele>
        <time>2016-05-21T15:44:41Z</time>
      </trkpt>
      <trkpt lat="48.85395" lon="-0.42408">
        <ele>174</ele>
        <time>2016-05-21T15:44:44Z</time>
      </trkpt>
      <trkpt lat="48.854" lon="-0.42383">
        <ele>172</ele>
        <time>2016-05-21T15:44:49Z</time>
      </trkpt>
      <trkpt lat="48.8541" lon="-0.42365">
        <ele>171</ele>
        <time>2016-05-21T15:44:52Z</time>
      </trkpt>
      <trkpt lat="48.85418" lon="-0.42343">
        <ele>170</ele>
        <time>2016-05-21T15:44:56Z</time>
      </trkpt>
      <trkpt lat="48.85425" lon="-0.42325">
        <ele>168</ele>
        <time>2016-05-21T15:44:59Z</time>
      </trkpt>
      <trkpt lat="48.85435" lon="-0.42303">
        <ele>166</ele>
        <time>2016-05-21T15:45:02Z</time>
      </trkpt>
      <trkpt lat="48.8544" lon="-0.4228">
        <ele>166</ele>
        <time>2016-05-21T15:45:04Z</time>
      </trkpt>
      <trkpt lat="48.85453" lon="-0.42255">
        <ele>165</ele>
        <time>2016-05-21T15:45:07Z</time>
      </trkpt>
      <trkpt lat="48.85465" lon="-0.4223">
        <ele>164</ele>
        <time>2016-05-21T15:45:09Z</time>
      </trkpt>
      <trkpt lat="48.85485" lon="-0.4218">
        <ele>159</ele>
        <time>2016-05-21T15:45:15Z</time>
      </trkpt>
      <trkpt lat="48.85498" lon="-0.4216">
        <ele>159</ele>
        <time>2016-05-21T15:45:17Z</time>
      </trkpt>
      <trkpt lat="48.85515" lon="-0.42123">
        <ele>157</ele>
        <time>2016-05-21T15:45:21Z</time>
      </trkpt>
      <trkpt lat="48.8553" lon="-0.42095">
        <ele>156</ele>
        <time>2016-05-21T15:45:23Z</time>
      </trkpt>
      <trkpt lat="48.85545" lon="-0.42073">
        <ele>154</ele>
        <time>2016-05-21T15:45:26Z</time>
      </trkpt>
      <trkpt lat="48.85568" lon="-0.4204">
        <ele>152</ele>
        <time>2016-05-21T15:45:31Z</time>
      </trkpt>
      <trkpt lat="48.85578" lon="-0.42023">
        <ele>152</ele>
        <time>2016-05-21T15:45:33Z</time>
      </trkpt>
      <trkpt lat="48.85595" lon="-0.41995">
        <ele>151</ele>
        <time>2016-05-21T15:45:36Z</time>
      </trkpt>
      <trkpt lat="48.85608" lon="-0.4198">
        <ele>150</ele>
        <time>2016-05-21T15:45:38Z</time>
      </trkpt>
      <trkpt lat="48.85625" lon="-0.41953">
        <ele>148</ele>
        <time>2016-05-21T15:45:41Z</time>
      </trkpt>
      <trkpt lat="48.85643" lon="-0.41925">
        <ele>147</ele>
        <time>2016-05-21T15:45:44Z</time>
      </trkpt>
      <trkpt lat="48.85655" lon="-0.419">
        <ele>145</ele>
        <time>2016-05-21T15:45:47Z</time>
      </trkpt>
      <trkpt lat="48.85668" lon="-0.41885">
        <ele>144</ele>
        <time>2016-05-21T15:45:50Z</time>
      </trkpt>
      <trkpt lat="48.85683" lon="-0.4188">
        <ele>144</ele>
        <time>2016-05-21T15:45:53Z</time>
      </trkpt>
      <trkpt lat="48.85698" lon="-0.41875">
        <ele>143</ele>
        <time>2016-05-21T15:45:57Z</time>
      </trkpt>
      <trkpt lat="48.8573" lon="-0.41863">
        <ele>140</ele>
        <time>2016-05-21T15:46:01Z</time>
      </trkpt>
      <trkpt lat="48.8575" lon="-0.41853">
        <ele>138</ele>
        <time>2016-05-21T15:46:05Z</time>
      </trkpt>
      <trkpt lat="48.85785" lon="-0.41833">
        <ele>136</ele>
        <time>2016-05-21T15:46:10Z</time>
      </trkpt>
      <trkpt lat="48.85808" lon="-0.41823">
        <ele>135</ele>
        <time>2016-05-21T15:46:13Z</time>
      </trkpt>
      <trkpt lat="48.8583" lon="-0.4181">
        <ele>134</ele>
        <time>2016-05-21T15:46:16Z</time>
      </trkpt>
      <trkpt lat="48.85853" lon="-0.41795">
        <ele>134</ele>
        <time>2016-05-21T15:46:18Z</time>
      </trkpt>
      <trkpt lat="48.85873" lon="-0.41783">
        <ele>134</ele>
        <time>2016-05-21T15:46:22Z</time>
      </trkpt>
      <trkpt lat="48.85898" lon="-0.41763">
        <ele>133</ele>
        <time>2016-05-21T15:46:26Z</time>
      </trkpt>
      <trkpt lat="48.85925" lon="-0.4174">
        <ele>132</ele>
        <time>2016-05-21T15:46:29Z</time>
      </trkpt>
      <trkpt lat="48.85943" lon="-0.41723">
        <ele>131</ele>
        <time>2016-05-21T15:46:32Z</time>
      </trkpt>
      <trkpt lat="48.8596" lon="-0.41708">
        <ele>130</ele>
        <time>2016-05-21T15:46:35Z</time>
      </trkpt>
      <trkpt lat="48.85988" lon="-0.41683">
        <ele>128</ele>
        <time>2016-05-21T15:46:40Z</time>
      </trkpt>
      <trkpt lat="48.86003" lon="-0.41668">
        <ele>128</ele>
        <time>2016-05-21T15:46:45Z</time>
      </trkpt>
      <trkpt lat="48.86015" lon="-0.41658">
        <ele>128</ele>
        <time>2016-05-21T15:46:49Z</time>
      </trkpt>
      <trkpt lat="48.8603" lon="-0.41655">
        <ele>127</ele>
        <time>2016-05-21T15:46:56Z</time>
      </trkpt>
      <trkpt lat="48.86015" lon="-0.41663">
        <ele>129</ele>
        <time>2016-05-21T15:47:40Z</time>
      </trkpt>
      <trkpt lat="48.86005" lon="-0.41678">
        <ele>133</ele>
        <time>2016-05-21T15:48:03Z</time>
      </trkpt>
      <trkpt lat="48.8599" lon="-0.41685">
        <ele>132</ele>
        <time>2016-05-21T15:48:09Z</time>
      </trkpt>
      <trkpt lat="48.85978" lon="-0.41695">
        <ele>131</ele>
        <time>2016-05-21T15:48:15Z</time>
      </trkpt>
      <trkpt lat="48.85963" lon="-0.41705">
        <ele>129</ele>
        <time>2016-05-21T15:48:21Z</time>
      </trkpt>
      <trkpt lat="48.8595" lon="-0.41718">
        <ele>128</ele>
        <time>2016-05-21T15:48:27Z</time>
      </trkpt>
      <trkpt lat="48.85938" lon="-0.41728">
        <ele>127</ele>
        <time>2016-05-21T15:48:32Z</time>
      </trkpt>
      <trkpt lat="48.8592" lon="-0.41743">
        <ele>128</ele>
        <time>2016-05-21T15:48:40Z</time>
      </trkpt>
      <trkpt lat="48.85908" lon="-0.41753">
        <ele>129</ele>
        <time>2016-05-21T15:48:45Z</time>
      </trkpt>
      <trkpt lat="48.85895" lon="-0.41763">
        <ele>129</ele>
        <time>2016-05-21T15:48:50Z</time>
      </trkpt>
      <trkpt lat="48.8588" lon="-0.41775">
        <ele>130</ele>
        <time>2016-05-21T15:48:55Z</time>
      </trkpt>
      <trkpt lat="48.85868" lon="-0.41785">
        <ele>130</ele>
        <time>2016-05-21T15:49:01Z</time>
      </trkpt>
      <trkpt lat="48.85853" lon="-0.41795">
        <ele>130</ele>
        <time>2016-05-21T15:49:06Z</time>
      </trkpt>
      <trkpt lat="48.85835" lon="-0.41805">
        <ele>130</ele>
        <time>2016-05-21T15:49:12Z</time>
      </trkpt>
      <trkpt lat="48.85818" lon="-0.41815">
        <ele>132</ele>
        <time>2016-05-21T15:49:18Z</time>
      </trkpt>
      <trkpt lat="48.85803" lon="-0.41823">
        <ele>133</ele>
        <time>2016-05-21T15:49:24Z</time>
      </trkpt>
      <trkpt lat="48.85785" lon="-0.4183">
        <ele>134</ele>
        <time>2016-05-21T15:49:30Z</time>
      </trkpt>
      <trkpt lat="48.85768" lon="-0.4184">
        <ele>135</ele>
        <time>2016-05-21T15:49:37Z</time>
      </trkpt>
      <trkpt lat="48.85753" lon="-0.41848">
        <ele>135</ele>
        <time>2016-05-21T15:49:42Z</time>
      </trkpt>
      <trkpt lat="48.85738" lon="-0.41855">
        <ele>136</ele>
        <time>2016-05-21T15:49:47Z</time>
      </trkpt>
      <trkpt lat="48.8572" lon="-0.41863">
        <ele>138</ele>
        <time>2016-05-21T15:49:53Z</time>
      </trkpt>
      <trkpt lat="48.85705" lon="-0.41868">
        <ele>139</ele>
        <time>2016-05-21T15:49:59Z</time>
      </trkpt>
      <trkpt lat="48.8569" lon="-0.41873">
        <ele>139</ele>
        <time>2016-05-21T15:50:05Z</time>
      </trkpt>
      <trkpt lat="48.85675" lon="-0.41878">
        <ele>140</ele>
        <time>2016-05-21T15:50:15Z</time>
      </trkpt>
      <trkpt lat="48.8566" lon="-0.41878">
        <ele>141</ele>
        <time>2016-05-21T15:51:52Z</time>
      </trkpt>
      <trkpt lat="48.85675" lon="-0.41873">
        <ele>138</ele>
        <time>2016-05-21T15:52:11Z</time>
      </trkpt>
      <trkpt lat="48.8569" lon="-0.4187">
        <ele>137</ele>
        <time>2016-05-21T15:52:15Z</time>
      </trkpt>
      <trkpt lat="48.85705" lon="-0.41868">
        <ele>136</ele>
        <time>2016-05-21T15:52:17Z</time>
      </trkpt>
      <trkpt lat="48.85733" lon="-0.41858">
        <ele>133</ele>
        <time>2016-05-21T15:52:21Z</time>
      </trkpt>
      <trkpt lat="48.8576" lon="-0.41843">
        <ele>131</ele>
        <time>2016-05-21T15:52:26Z</time>
      </trkpt>
      <trkpt lat="48.85818" lon="-0.41818">
        <ele>128</ele>
        <time>2016-05-21T15:52:33Z</time>
      </trkpt>
      <trkpt lat="48.8584" lon="-0.41805">
        <ele>126</ele>
        <time>2016-05-21T15:52:36Z</time>
      </trkpt>
      <trkpt lat="48.85863" lon="-0.41788">
        <ele>125</ele>
        <time>2016-05-21T15:52:39Z</time>
      </trkpt>
      <trkpt lat="48.8592" lon="-0.41743">
        <ele>123</ele>
        <time>2016-05-21T15:52:47Z</time>
      </trkpt>
      <trkpt lat="48.85933" lon="-0.4173">
        <ele>123</ele>
        <time>2016-05-21T15:52:49Z</time>
      </trkpt>
      <trkpt lat="48.85953" lon="-0.41713">
        <ele>123</ele>
        <time>2016-05-21T15:52:52Z</time>
      </trkpt>
      <trkpt lat="48.85993" lon="-0.4168">
        <ele>121</ele>
        <time>2016-05-21T15:52:58Z</time>
      </trkpt>
      <trkpt lat="48.86013" lon="-0.41665">
        <ele>120</ele>
        <time>2016-05-21T15:53:01Z</time>
      </trkpt>
      <trkpt lat="48.8603" lon="-0.4166">
        <ele>120</ele>
        <time>2016-05-21T15:53:04Z</time>
      </trkpt>
      <trkpt lat="48.86043" lon="-0.41673">
        <ele>121</ele>
        <time>2016-05-21T15:53:07Z</time>
      </trkpt>
      <trkpt lat="48.86058" lon="-0.41688">
        <ele>121</ele>
        <time>2016-05-21T15:53:11Z</time>
      </trkpt>
      <trkpt lat="48.86073" lon="-0.41705">
        <ele>120</ele>
        <time>2016-05-21T15:53:16Z</time>
      </trkpt>
      <trkpt lat="48.86085" lon="-0.41725">
        <ele>120</ele>
        <time>2016-05-21T15:53:19Z</time>
      </trkpt>
      <trkpt lat="48.861" lon="-0.41745">
        <ele>119</ele>
        <time>2016-05-21T15:53:21Z</time>
      </trkpt>
      <trkpt lat="48.8613" lon="-0.41783">
        <ele>117</ele>
        <time>2016-05-21T15:53:28Z</time>
      </trkpt>
      <trkpt lat="48.86178" lon="-0.41843">
        <ele>115</ele>
        <time>2016-05-21T15:53:36Z</time>
      </trkpt>
      <trkpt lat="48.86195" lon="-0.41865">
        <ele>113</ele>
        <time>2016-05-21T15:53:39Z</time>
      </trkpt>
      <trkpt lat="48.8621" lon="-0.41888">
        <ele>112</ele>
        <time>2016-05-21T15:53:42Z</time>
      </trkpt>
      <trkpt lat="48.86225" lon="-0.41913">
        <ele>110</ele>
        <time>2016-05-21T15:53:45Z</time>
      </trkpt>
      <trkpt lat="48.8624" lon="-0.41938">
        <ele>108</ele>
        <time>2016-05-21T15:53:48Z</time>
      </trkpt>
      <trkpt lat="48.86248" lon="-0.4196">
        <ele>106</ele>
        <time>2016-05-21T15:53:50Z</time>
      </trkpt>
      <trkpt lat="48.86258" lon="-0.42">
        <ele>103</ele>
        <time>2016-05-21T15:53:53Z</time>
      </trkpt>
      <trkpt lat="48.86265" lon="-0.42048">
        <ele>101</ele>
        <time>2016-05-21T15:53:56Z</time>
      </trkpt>
      <trkpt lat="48.8628" lon="-0.42133">
        <ele>96</ele>
        <time>2016-05-21T15:54:01Z</time>
      </trkpt>
      <trkpt lat="48.8629" lon="-0.42163">
        <ele>95</ele>
        <time>2016-05-21T15:54:04Z</time>
      </trkpt>
      <trkpt lat="48.86303" lon="-0.42203">
        <ele>92</ele>
        <time>2016-05-21T15:54:07Z</time>
      </trkpt>
      <trkpt lat="48.86323" lon="-0.42243">
        <ele>87</ele>
        <time>2016-05-21T15:54:10Z</time>
      </trkpt>
      <trkpt lat="48.8633" lon="-0.42293">
        <ele>81</ele>
        <time>2016-05-21T15:54:13Z</time>
      </trkpt>
      <trkpt lat="48.86338" lon="-0.42335">
        <ele>76</ele>
        <time>2016-05-21T15:54:16Z</time>
      </trkpt>
      <trkpt lat="48.86348" lon="-0.42368">
        <ele>72</ele>
        <time>2016-05-21T15:54:19Z</time>
      </trkpt>
      <trkpt lat="48.86365" lon="-0.424">
        <ele>71</ele>
        <time>2016-05-21T15:54:22Z</time>
      </trkpt>
      <trkpt lat="48.8638" lon="-0.42413">
        <ele>70</ele>
        <time>2016-05-21T15:54:25Z</time>
      </trkpt>
      <trkpt lat="48.86395" lon="-0.42425">
        <ele>69</ele>
        <time>2016-05-21T15:54:29Z</time>
      </trkpt>
      <trkpt lat="48.8641" lon="-0.42435">
        <ele>70</ele>
        <time>2016-05-21T15:54:32Z</time>
      </trkpt>
      <trkpt lat="48.86423" lon="-0.42453">
        <ele>71</ele>
        <time>2016-05-21T15:54:49Z</time>
      </trkpt>
      <trkpt lat="48.86415" lon="-0.4247">
        <ele>71</ele>
        <time>2016-05-21T15:54:55Z</time>
      </trkpt>
      <trkpt lat="48.86405" lon="-0.42485">
        <ele>71</ele>
        <time>2016-05-21T15:55:01Z</time>
      </trkpt>
      <trkpt lat="48.86393" lon="-0.42498">
        <ele>71</ele>
        <time>2016-05-21T15:55:07Z</time>
      </trkpt>
      <trkpt lat="48.86378" lon="-0.42513">
        <ele>71</ele>
        <time>2016-05-21T15:55:14Z</time>
      </trkpt>
      <trkpt lat="48.86365" lon="-0.42525">
        <ele>73</ele>
        <time>2016-05-21T15:55:23Z</time>
      </trkpt>
      <trkpt lat="48.8636" lon="-0.42545">
        <ele>75</ele>
        <time>2016-05-21T15:55:30Z</time>
      </trkpt>
      <trkpt lat="48.86358" lon="-0.42568">
        <ele>75</ele>
        <time>2016-05-21T15:55:35Z</time>
      </trkpt>
      <trkpt lat="48.8635" lon="-0.42605">
        <ele>73</ele>
        <time>2016-05-21T15:55:41Z</time>
      </trkpt>
      <trkpt lat="48.86343" lon="-0.42628">
        <ele>73</ele>
        <time>2016-05-21T15:55:46Z</time>
      </trkpt>
      <trkpt lat="48.86333" lon="-0.42648">
        <ele>73</ele>
        <time>2016-05-21T15:55:49Z</time>
      </trkpt>
      <trkpt lat="48.86318" lon="-0.4268">
        <ele>72</ele>
        <time>2016-05-21T15:55:55Z</time>
      </trkpt>
      <trkpt lat="48.86313" lon="-0.4271">
        <ele>71</ele>
        <time>2016-05-21T15:55:57Z</time>
      </trkpt>
      <trkpt lat="48.86313" lon="-0.42748">
        <ele>67</ele>
        <time>2016-05-21T15:56:00Z</time>
      </trkpt>
      <trkpt lat="48.86313" lon="-0.4279">
        <ele>62</ele>
        <time>2016-05-21T15:56:03Z</time>
      </trkpt>
      <trkpt lat="48.86323" lon="-0.42828">
        <ele>60</ele>
        <time>2016-05-21T15:56:06Z</time>
      </trkpt>
      <trkpt lat="48.86338" lon="-0.42843">
        <ele>59</ele>
        <time>2016-05-21T15:56:08Z</time>
      </trkpt>
      <trkpt lat="48.8635" lon="-0.4286">
        <ele>59</ele>
        <time>2016-05-21T15:56:11Z</time>
      </trkpt>
      <trkpt lat="48.86338" lon="-0.42848">
        <ele>59</ele>
        <time>2016-05-21T15:56:34Z</time>
      </trkpt>
      <trkpt lat="48.86325" lon="-0.42833">
        <ele>58</ele>
        <time>2016-05-21T15:56:39Z</time>
      </trkpt>
      <trkpt lat="48.8633" lon="-0.42813">
        <ele>58</ele>
        <time>2016-05-21T15:56:45Z</time>
      </trkpt>
      <trkpt lat="48.86338" lon="-0.42795">
        <ele>58</ele>
        <time>2016-05-21T15:56:49Z</time>
      </trkpt>
      <trkpt lat="48.86348" lon="-0.42778">
        <ele>58</ele>
        <time>2016-05-21T15:56:53Z</time>
      </trkpt>
      <trkpt lat="48.8636" lon="-0.4276">
        <ele>57</ele>
        <time>2016-05-21T15:56:58Z</time>
      </trkpt>
      <trkpt lat="48.86368" lon="-0.42743">
        <ele>57</ele>
        <time>2016-05-21T15:57:02Z</time>
      </trkpt>
      <trkpt lat="48.8638" lon="-0.42725">
        <ele>58</ele>
        <time>2016-05-21T15:57:06Z</time>
      </trkpt>
      <trkpt lat="48.86393" lon="-0.42708">
        <ele>59</ele>
        <time>2016-05-21T15:57:10Z</time>
      </trkpt>
      <trkpt lat="48.86408" lon="-0.42698">
        <ele>60</ele>
        <time>2016-05-21T15:57:14Z</time>
      </trkpt>
      <trkpt lat="48.8642" lon="-0.42685">
        <ele>61</ele>
        <time>2016-05-21T15:57:19Z</time>
      </trkpt>
      <trkpt lat="48.86433" lon="-0.42675">
        <ele>62</ele>
        <time>2016-05-21T15:57:22Z</time>
      </trkpt>
      <trkpt lat="48.8645" lon="-0.42668">
        <ele>63</ele>
        <time>2016-05-21T15:57:24Z</time>
      </trkpt>
      <trkpt lat="48.86465" lon="-0.42655">
        <ele>64</ele>
        <time>2016-05-21T15:57:28Z</time>
      </trkpt>
      <trkpt lat="48.86483" lon="-0.42643">
        <ele>65</ele>
        <time>2016-05-21T15:57:31Z</time>
      </trkpt>
      <trkpt lat="48.86495" lon="-0.4263">
        <ele>65</ele>
        <time>2016-05-21T15:57:34Z</time>
      </trkpt>
      <trkpt lat="48.8651" lon="-0.42613">
        <ele>64</ele>
        <time>2016-05-21T15:57:36Z</time>
      </trkpt>
      <trkpt lat="48.86523" lon="-0.426">
        <ele>64</ele>
        <time>2016-05-21T15:57:39Z</time>
      </trkpt>
      <trkpt lat="48.86535" lon="-0.42583">
        <ele>64</ele>
        <time>2016-05-21T15:57:41Z</time>
      </trkpt>
      <trkpt lat="48.86548" lon="-0.42565">
        <ele>66</ele>
        <time>2016-05-21T15:57:46Z</time>
      </trkpt>
      <trkpt lat="48.86558" lon="-0.42548">
        <ele>68</ele>
        <time>2016-05-21T15:57:50Z</time>
      </trkpt>
      <trkpt lat="48.8657" lon="-0.42533">
        <ele>69</ele>
        <time>2016-05-21T15:57:54Z</time>
      </trkpt>
      <trkpt lat="48.86585" lon="-0.4251">
        <ele>70</ele>
        <time>2016-05-21T15:57:58Z</time>
      </trkpt>
      <trkpt lat="48.866" lon="-0.4248">
        <ele>70</ele>
        <time>2016-05-21T15:58:03Z</time>
      </trkpt>
      <trkpt lat="48.86608" lon="-0.4246">
        <ele>68</ele>
        <time>2016-05-21T15:58:05Z</time>
      </trkpt>
      <trkpt lat="48.86618" lon="-0.42445">
        <ele>69</ele>
        <time>2016-05-21T15:58:08Z</time>
      </trkpt>
      <trkpt lat="48.86625" lon="-0.42425">
        <ele>69</ele>
        <time>2016-05-21T15:58:12Z</time>
      </trkpt>
      <trkpt lat="48.8663" lon="-0.42403">
        <ele>69</ele>
        <time>2016-05-21T15:58:16Z</time>
      </trkpt>
      <trkpt lat="48.86635" lon="-0.4238">
        <ele>69</ele>
        <time>2016-05-21T15:58:20Z</time>
      </trkpt>
      <trkpt lat="48.8664" lon="-0.42358">
        <ele>69</ele>
        <time>2016-05-21T15:58:24Z</time>
      </trkpt>
      <trkpt lat="48.86645" lon="-0.42335">
        <ele>68</ele>
        <time>2016-05-21T15:58:28Z</time>
      </trkpt>
      <trkpt lat="48.86653" lon="-0.42313">
        <ele>68</ele>
        <time>2016-05-21T15:58:32Z</time>
      </trkpt>
      <trkpt lat="48.86653" lon="-0.42288">
        <ele>66</ele>
        <time>2016-05-21T15:58:36Z</time>
      </trkpt>
      <trkpt lat="48.8666" lon="-0.42268">
        <ele>65</ele>
        <time>2016-05-21T15:58:40Z</time>
      </trkpt>
      <trkpt lat="48.86663" lon="-0.42245">
        <ele>67</ele>
        <time>2016-05-21T15:58:44Z</time>
      </trkpt>
      <trkpt lat="48.86668" lon="-0.42223">
        <ele>68</ele>
        <time>2016-05-21T15:58:56Z</time>
      </trkpt>
      <trkpt lat="48.8667" lon="-0.422">
        <ele>66</ele>
        <time>2016-05-21T15:58:59Z</time>
      </trkpt>
      <trkpt lat="48.86675" lon="-0.42175">
        <ele>68</ele>
        <time>2016-05-21T15:59:05Z</time>
      </trkpt>
      <trkpt lat="48.8668" lon="-0.4215">
        <ele>67</ele>
        <time>2016-05-21T15:59:10Z</time>
      </trkpt>
      <trkpt lat="48.86688" lon="-0.42125">
        <ele>68</ele>
        <time>2016-05-21T15:59:14Z</time>
      </trkpt>
      <trkpt lat="48.86695" lon="-0.42108">
        <ele>69</ele>
        <time>2016-05-21T15:59:17Z</time>
      </trkpt>
      <trkpt lat="48.86698" lon="-0.42083">
        <ele>69</ele>
        <time>2016-05-21T15:59:20Z</time>
      </trkpt>
      <trkpt lat="48.86705" lon="-0.4206">
        <ele>69</ele>
        <time>2016-05-21T15:59:25Z</time>
      </trkpt>
      <trkpt lat="48.86708" lon="-0.42035">
        <ele>68</ele>
        <time>2016-05-21T15:59:28Z</time>
      </trkpt>
      <trkpt lat="48.86713" lon="-0.42013">
        <ele>68</ele>
        <time>2016-05-21T15:59:33Z</time>
      </trkpt>
      <trkpt lat="48.86718" lon="-0.4199">
        <ele>68</ele>
        <time>2016-05-21T15:59:36Z</time>
      </trkpt>
      <trkpt lat="48.8672" lon="-0.41963">
        <ele>68</ele>
        <time>2016-05-21T15:59:41Z</time>
      </trkpt>
      <trkpt lat="48.86728" lon="-0.4194">
        <ele>68</ele>
        <time>2016-05-21T15:59:45Z</time>
      </trkpt>
      <trkpt lat="48.86733" lon="-0.4192">
        <ele>69</ele>
        <time>2016-05-21T15:59:47Z</time>
      </trkpt>
      <trkpt lat="48.8674" lon="-0.419">
        <ele>69</ele>
        <time>2016-05-21T15:59:51Z</time>
      </trkpt>
      <trkpt lat="48.8675" lon="-0.4187">
        <ele>69</ele>
        <time>2016-05-21T15:59:55Z</time>
      </trkpt>
      <trkpt lat="48.86755" lon="-0.41848">
        <ele>69</ele>
        <time>2016-05-21T15:59:57Z</time>
      </trkpt>
      <trkpt lat="48.8676" lon="-0.41823">
        <ele>69</ele>
        <time>2016-05-21T16:00:00Z</time>
      </trkpt>
      <trkpt lat="48.8677" lon="-0.41798">
        <ele>68</ele>
        <time>2016-05-21T16:00:03Z</time>
      </trkpt>
      <trkpt lat="48.86775" lon="-0.41778">
        <ele>69</ele>
        <time>2016-05-21T16:00:07Z</time>
      </trkpt>
      <trkpt lat="48.8678" lon="-0.41755">
        <ele>69</ele>
        <time>2016-05-21T16:00:09Z</time>
      </trkpt>
      <trkpt lat="48.8678" lon="-0.4173">
        <ele>69</ele>
        <time>2016-05-21T16:00:13Z</time>
      </trkpt>
      <trkpt lat="48.86783" lon="-0.41703">
        <ele>69</ele>
        <time>2016-05-21T16:00:18Z</time>
      </trkpt>
      <trkpt lat="48.86785" lon="-0.41678">
        <ele>67</ele>
        <time>2016-05-21T16:00:23Z</time>
      </trkpt>
      <trkpt lat="48.86793" lon="-0.41658">
        <ele>67</ele>
        <time>2016-05-21T16:00:27Z</time>
      </trkpt>
      <trkpt lat="48.868" lon="-0.4163">
        <ele>65</ele>
        <time>2016-05-21T16:00:31Z</time>
      </trkpt>
      <trkpt lat="48.86805" lon="-0.41603">
        <ele>61</ele>
        <time>2016-05-21T16:00:36Z</time>
      </trkpt>
      <trkpt lat="48.86813" lon="-0.4158">
        <ele>61</ele>
        <time>2016-05-21T16:00:40Z</time>
      </trkpt>
      <trkpt lat="48.8682" lon="-0.41553">
        <ele>62</ele>
        <time>2016-05-21T16:00:43Z</time>
      </trkpt>
      <trkpt lat="48.86828" lon="-0.41535">
        <ele>62</ele>
        <time>2016-05-21T16:00:47Z</time>
      </trkpt>
      <trkpt lat="48.86838" lon="-0.41498">
        <ele>60</ele>
        <time>2016-05-21T16:00:53Z</time>
      </trkpt>
      <trkpt lat="48.86838" lon="-0.41475">
        <ele>59</ele>
        <time>2016-05-21T16:00:57Z</time>
      </trkpt>
      <trkpt lat="48.86848" lon="-0.41455">
        <ele>60</ele>
        <time>2016-05-21T16:01:01Z</time>
      </trkpt>
      <trkpt lat="48.86853" lon="-0.41433">
        <ele>59</ele>
        <time>2016-05-21T16:01:04Z</time>
      </trkpt>
      <trkpt lat="48.86858" lon="-0.4141">
        <ele>59</ele>
        <time>2016-05-21T16:01:09Z</time>
      </trkpt>
      <trkpt lat="48.8686" lon="-0.41385">
        <ele>60</ele>
        <time>2016-05-21T16:01:13Z</time>
      </trkpt>
      <trkpt lat="48.86868" lon="-0.41363">
        <ele>59</ele>
        <time>2016-05-21T16:01:16Z</time>
      </trkpt>
      <trkpt lat="48.86873" lon="-0.41343">
        <ele>59</ele>
        <time>2016-05-21T16:01:19Z</time>
      </trkpt>
      <trkpt lat="48.8688" lon="-0.41325">
        <ele>60</ele>
        <time>2016-05-21T16:01:22Z</time>
      </trkpt>
      <trkpt lat="48.86883" lon="-0.41303">
        <ele>59</ele>
        <time>2016-05-21T16:01:26Z</time>
      </trkpt>
      <trkpt lat="48.86888" lon="-0.41283">
        <ele>58</ele>
        <time>2016-05-21T16:01:28Z</time>
      </trkpt>
      <trkpt lat="48.86895" lon="-0.4126">
        <ele>56</ele>
        <time>2016-05-21T16:01:31Z</time>
      </trkpt>
      <trkpt lat="48.86903" lon="-0.41238">
        <ele>55</ele>
        <time>2016-05-21T16:01:35Z</time>
      </trkpt>
      <trkpt lat="48.86913" lon="-0.4122">
        <ele>55</ele>
        <time>2016-05-21T16:01:39Z</time>
      </trkpt>
      <trkpt lat="48.86918" lon="-0.412">
        <ele>54</ele>
        <time>2016-05-21T16:01:42Z</time>
      </trkpt>
      <trkpt lat="48.86925" lon="-0.4118">
        <ele>55</ele>
        <time>2016-05-21T16:01:45Z</time>
      </trkpt>
      <trkpt lat="48.8693" lon="-0.41158">
        <ele>55</ele>
        <time>2016-05-21T16:01:48Z</time>
      </trkpt>
      <trkpt lat="48.86938" lon="-0.41135">
        <ele>54</ele>
        <time>2016-05-21T16:01:51Z</time>
      </trkpt>
      <trkpt lat="48.86945" lon="-0.4111">
        <ele>54</ele>
        <time>2016-05-21T16:01:55Z</time>
      </trkpt>
      <trkpt lat="48.86953" lon="-0.41085">
        <ele>55</ele>
        <time>2016-05-21T16:01:58Z</time>
      </trkpt>
      <trkpt lat="48.86963" lon="-0.41065">
        <ele>55</ele>
        <time>2016-05-21T16:02:03Z</time>
      </trkpt>
      <trkpt lat="48.86973" lon="-0.41045">
        <ele>56</ele>
        <time>2016-05-21T16:02:07Z</time>
      </trkpt>
      <trkpt lat="48.86978" lon="-0.4102">
        <ele>56</ele>
        <time>2016-05-21T16:02:11Z</time>
      </trkpt>
      <trkpt lat="48.86983" lon="-0.41">
        <ele>55</ele>
        <time>2016-05-21T16:02:15Z</time>
      </trkpt>
      <trkpt lat="48.86998" lon="-0.40993">
        <ele>56</ele>
        <time>2016-05-21T16:02:20Z</time>
      </trkpt>
      <trkpt lat="48.8701" lon="-0.41003">
        <ele>56</ele>
        <time>2016-05-21T16:02:23Z</time>
      </trkpt>
      <trkpt lat="48.87088" lon="-0.4106">
        <ele>59</ele>
        <time>2016-05-21T16:02:40Z</time>
      </trkpt>
      <trkpt lat="48.8708" lon="-0.41078">
        <ele>56</ele>
        <time>2016-05-21T16:02:46Z</time>
      </trkpt>
      <trkpt lat="48.87093" lon="-0.41065">
        <ele>52</ele>
        <time>2016-05-21T16:17:10Z</time>
      </trkpt>
      <trkpt lat="48.87078" lon="-0.41055">
        <ele>54</ele>
        <time>2016-05-21T16:18:05Z</time>
      </trkpt>
      <trkpt lat="48.87063" lon="-0.41045">
        <ele>55</ele>
        <time>2016-05-21T16:18:09Z</time>
      </trkpt>
      <trkpt lat="48.87043" lon="-0.4103">
        <ele>56</ele>
        <time>2016-05-21T16:18:15Z</time>
      </trkpt>
      <trkpt lat="48.8702" lon="-0.41015">
        <ele>57</ele>
        <time>2016-05-21T16:18:21Z</time>
      </trkpt>
      <trkpt lat="48.86993" lon="-0.40998">
        <ele>58</ele>
        <time>2016-05-21T16:18:27Z</time>
      </trkpt>
      <trkpt lat="48.86975" lon="-0.40985">
        <ele>58</ele>
        <time>2016-05-21T16:18:32Z</time>
      </trkpt>
      <trkpt lat="48.86935" lon="-0.40955">
        <ele>61</ele>
        <time>2016-05-21T16:18:42Z</time>
      </trkpt>
      <trkpt lat="48.86915" lon="-0.4094">
        <ele>62</ele>
        <time>2016-05-21T16:18:47Z</time>
      </trkpt>
      <trkpt lat="48.8688" lon="-0.40913">
        <ele>65</ele>
        <time>2016-05-21T16:18:55Z</time>
      </trkpt>
      <trkpt lat="48.86863" lon="-0.40903">
        <ele>66</ele>
        <time>2016-05-21T16:18:59Z</time>
      </trkpt>
      <trkpt lat="48.86848" lon="-0.4089">
        <ele>67</ele>
        <time>2016-05-21T16:19:03Z</time>
      </trkpt>
      <trkpt lat="48.86795" lon="-0.40853">
        <ele>70</ele>
        <time>2016-05-21T16:19:15Z</time>
      </trkpt>
      <trkpt lat="48.8678" lon="-0.4084">
        <ele>71</ele>
        <time>2016-05-21T16:19:19Z</time>
      </trkpt>
      <trkpt lat="48.86763" lon="-0.40835">
        <ele>72</ele>
        <time>2016-05-21T16:19:23Z</time>
      </trkpt>
      <trkpt lat="48.86753" lon="-0.4085">
        <ele>73</ele>
        <time>2016-05-21T16:19:28Z</time>
      </trkpt>
      <trkpt lat="48.86743" lon="-0.40865">
        <ele>73</ele>
        <time>2016-05-21T16:19:33Z</time>
      </trkpt>
      <trkpt lat="48.86733" lon="-0.40883">
        <ele>74</ele>
        <time>2016-05-21T16:19:38Z</time>
      </trkpt>
      <trkpt lat="48.86725" lon="-0.409">
        <ele>76</ele>
        <time>2016-05-21T16:19:42Z</time>
      </trkpt>
      <trkpt lat="48.8671" lon="-0.4093">
        <ele>78</ele>
        <time>2016-05-21T16:19:52Z</time>
      </trkpt>
      <trkpt lat="48.86703" lon="-0.4095">
        <ele>79</ele>
        <time>2016-05-21T16:19:59Z</time>
      </trkpt>
      <trkpt lat="48.86695" lon="-0.4097">
        <ele>79</ele>
        <time>2016-05-21T16:20:05Z</time>
      </trkpt>
      <trkpt lat="48.86688" lon="-0.40988">
        <ele>81</ele>
        <time>2016-05-21T16:20:11Z</time>
      </trkpt>
      <trkpt lat="48.8668" lon="-0.41008">
        <ele>81</ele>
        <time>2016-05-21T16:20:15Z</time>
      </trkpt>
      <trkpt lat="48.8667" lon="-0.41028">
        <ele>82</ele>
        <time>2016-05-21T16:20:21Z</time>
      </trkpt>
      <trkpt lat="48.86663" lon="-0.41045">
        <ele>83</ele>
        <time>2016-05-21T16:20:27Z</time>
      </trkpt>
      <trkpt lat="48.86653" lon="-0.41063">
        <ele>84</ele>
        <time>2016-05-21T16:20:31Z</time>
      </trkpt>
      <trkpt lat="48.86638" lon="-0.41088">
        <ele>85</ele>
        <time>2016-05-21T16:20:37Z</time>
      </trkpt>
      <trkpt lat="48.86623" lon="-0.41108">
        <ele>87</ele>
        <time>2016-05-21T16:20:44Z</time>
      </trkpt>
      <trkpt lat="48.86608" lon="-0.4113">
        <ele>88</ele>
        <time>2016-05-21T16:20:50Z</time>
      </trkpt>
      <trkpt lat="48.86595" lon="-0.41145">
        <ele>88</ele>
        <time>2016-05-21T16:20:54Z</time>
      </trkpt>
      <trkpt lat="48.86583" lon="-0.41155">
        <ele>89</ele>
        <time>2016-05-21T16:20:59Z</time>
      </trkpt>
      <trkpt lat="48.86565" lon="-0.41163">
        <ele>90</ele>
        <time>2016-05-21T16:21:04Z</time>
      </trkpt>
      <trkpt lat="48.86543" lon="-0.41175">
        <ele>90</ele>
        <time>2016-05-21T16:21:10Z</time>
      </trkpt>
      <trkpt lat="48.8653" lon="-0.41185">
        <ele>90</ele>
        <time>2016-05-21T16:21:13Z</time>
      </trkpt>
      <trkpt lat="48.8652" lon="-0.41203">
        <ele>91</ele>
        <time>2016-05-21T16:21:17Z</time>
      </trkpt>
      <trkpt lat="48.86508" lon="-0.4122">
        <ele>91</ele>
        <time>2016-05-21T16:21:22Z</time>
      </trkpt>
      <trkpt lat="48.86493" lon="-0.4123">
        <ele>92</ele>
        <time>2016-05-21T16:21:28Z</time>
      </trkpt>
      <trkpt lat="48.86475" lon="-0.41243">
        <ele>92</ele>
        <time>2016-05-21T16:21:34Z</time>
      </trkpt>
      <trkpt lat="48.8646" lon="-0.41248">
        <ele>93</ele>
        <time>2016-05-21T16:21:37Z</time>
      </trkpt>
      <trkpt lat="48.86445" lon="-0.4126">
        <ele>93</ele>
        <time>2016-05-21T16:21:42Z</time>
      </trkpt>
      <trkpt lat="48.86433" lon="-0.41275">
        <ele>94</ele>
        <time>2016-05-21T16:21:46Z</time>
      </trkpt>
      <trkpt lat="48.86423" lon="-0.41293">
        <ele>94</ele>
        <time>2016-05-21T16:21:51Z</time>
      </trkpt>
      <trkpt lat="48.86413" lon="-0.41315">
        <ele>94</ele>
        <time>2016-05-21T16:21:56Z</time>
      </trkpt>
      <trkpt lat="48.864" lon="-0.41343">
        <ele>95</ele>
        <time>2016-05-21T16:22:01Z</time>
      </trkpt>
      <trkpt lat="48.86393" lon="-0.4136">
        <ele>96</ele>
        <time>2016-05-21T16:22:05Z</time>
      </trkpt>
      <trkpt lat="48.86385" lon="-0.4138">
        <ele>96</ele>
        <time>2016-05-21T16:22:11Z</time>
      </trkpt>
      <trkpt lat="48.86378" lon="-0.41398">
        <ele>97</ele>
        <time>2016-05-21T16:22:14Z</time>
      </trkpt>
      <trkpt lat="48.86368" lon="-0.41415">
        <ele>97</ele>
        <time>2016-05-21T16:22:19Z</time>
      </trkpt>
      <trkpt lat="48.86355" lon="-0.4143">
        <ele>99</ele>
        <time>2016-05-21T16:22:23Z</time>
      </trkpt>
      <trkpt lat="48.8634" lon="-0.41448">
        <ele>101</ele>
        <time>2016-05-21T16:22:29Z</time>
      </trkpt>
      <trkpt lat="48.86328" lon="-0.41463">
        <ele>101</ele>
        <time>2016-05-21T16:22:35Z</time>
      </trkpt>
      <trkpt lat="48.86313" lon="-0.41455">
        <ele>101</ele>
        <time>2016-05-21T16:22:40Z</time>
      </trkpt>
      <trkpt lat="48.863" lon="-0.41438">
        <ele>101</ele>
        <time>2016-05-21T16:22:44Z</time>
      </trkpt>
      <trkpt lat="48.86285" lon="-0.41413">
        <ele>101</ele>
        <time>2016-05-21T16:22:50Z</time>
      </trkpt>
      <trkpt lat="48.86273" lon="-0.41395">
        <ele>102</ele>
        <time>2016-05-21T16:22:55Z</time>
      </trkpt>
      <trkpt lat="48.8626" lon="-0.41383">
        <ele>103</ele>
        <time>2016-05-21T16:22:58Z</time>
      </trkpt>
      <trkpt lat="48.86238" lon="-0.41358">
        <ele>105</ele>
        <time>2016-05-21T16:23:06Z</time>
      </trkpt>
      <trkpt lat="48.86223" lon="-0.4134">
        <ele>104</ele>
        <time>2016-05-21T16:23:13Z</time>
      </trkpt>
      <trkpt lat="48.86213" lon="-0.41325">
        <ele>104</ele>
        <time>2016-05-21T16:23:16Z</time>
      </trkpt>
      <trkpt lat="48.862" lon="-0.4131">
        <ele>105</ele>
        <time>2016-05-21T16:23:22Z</time>
      </trkpt>
      <trkpt lat="48.86168" lon="-0.41275">
        <ele>106</ele>
        <time>2016-05-21T16:23:29Z</time>
      </trkpt>
      <trkpt lat="48.86153" lon="-0.41263">
        <ele>104</ele>
        <time>2016-05-21T16:23:32Z</time>
      </trkpt>
      <trkpt lat="48.86135" lon="-0.41253">
        <ele>103</ele>
        <time>2016-05-21T16:23:36Z</time>
      </trkpt>
      <trkpt lat="48.86123" lon="-0.4123">
        <ele>101</ele>
        <time>2016-05-21T16:23:39Z</time>
      </trkpt>
      <trkpt lat="48.86125" lon="-0.41205">
        <ele>100</ele>
        <time>2016-05-21T16:23:42Z</time>
      </trkpt>
      <trkpt lat="48.86128" lon="-0.41178">
        <ele>99</ele>
        <time>2016-05-21T16:23:46Z</time>
      </trkpt>
      <trkpt lat="48.86125" lon="-0.4115">
        <ele>100</ele>
        <time>2016-05-21T16:23:57Z</time>
      </trkpt>
      <trkpt lat="48.8611" lon="-0.41163">
        <ele>100</ele>
        <time>2016-05-21T16:24:08Z</time>
      </trkpt>
      <trkpt lat="48.86093" lon="-0.4118">
        <ele>101</ele>
        <time>2016-05-21T16:24:15Z</time>
      </trkpt>
      <trkpt lat="48.86083" lon="-0.41198">
        <ele>102</ele>
        <time>2016-05-21T16:24:20Z</time>
      </trkpt>
      <trkpt lat="48.86068" lon="-0.41223">
        <ele>104</ele>
        <time>2016-05-21T16:24:31Z</time>
      </trkpt>
      <trkpt lat="48.86055" lon="-0.41235">
        <ele>105</ele>
        <time>2016-05-21T16:24:37Z</time>
      </trkpt>
      <trkpt lat="48.86038" lon="-0.41225">
        <ele>106</ele>
        <time>2016-05-21T16:24:43Z</time>
      </trkpt>
      <trkpt lat="48.86023" lon="-0.41215">
        <ele>108</ele>
        <time>2016-05-21T16:24:50Z</time>
      </trkpt>
      <trkpt lat="48.8601" lon="-0.41205">
        <ele>108</ele>
        <time>2016-05-21T16:24:54Z</time>
      </trkpt>
      <trkpt lat="48.85998" lon="-0.41195">
        <ele>108</ele>
        <time>2016-05-21T16:25:00Z</time>
      </trkpt>
      <trkpt lat="48.85983" lon="-0.41195">
        <ele>110</ele>
        <time>2016-05-21T16:25:06Z</time>
      </trkpt>
      <trkpt lat="48.8597" lon="-0.41208">
        <ele>110</ele>
        <time>2016-05-21T16:25:13Z</time>
      </trkpt>
      <trkpt lat="48.85955" lon="-0.4121">
        <ele>112</ele>
        <time>2016-05-21T16:25:21Z</time>
      </trkpt>
      <trkpt lat="48.85938" lon="-0.41215">
        <ele>116</ele>
        <time>2016-05-21T16:27:21Z</time>
      </trkpt>
      <trkpt lat="48.85923" lon="-0.41215">
        <ele>116</ele>
        <time>2016-05-21T16:27:28Z</time>
      </trkpt>
      <trkpt lat="48.85908" lon="-0.41218">
        <ele>117</ele>
        <time>2016-05-21T16:27:34Z</time>
      </trkpt>
      <trkpt lat="48.85873" lon="-0.41225">
        <ele>118</ele>
        <time>2016-05-21T16:27:46Z</time>
      </trkpt>
      <trkpt lat="48.85858" lon="-0.41233">
        <ele>119</ele>
        <time>2016-05-21T16:27:50Z</time>
      </trkpt>
      <trkpt lat="48.85843" lon="-0.41238">
        <ele>120</ele>
        <time>2016-05-21T16:27:53Z</time>
      </trkpt>
      <trkpt lat="48.85828" lon="-0.4124">
        <ele>120</ele>
        <time>2016-05-21T16:27:58Z</time>
      </trkpt>
      <trkpt lat="48.85813" lon="-0.41248">
        <ele>120</ele>
        <time>2016-05-21T16:28:02Z</time>
      </trkpt>
      <trkpt lat="48.85795" lon="-0.41253">
        <ele>120</ele>
        <time>2016-05-21T16:28:08Z</time>
      </trkpt>
      <trkpt lat="48.85778" lon="-0.41258">
        <ele>121</ele>
        <time>2016-05-21T16:28:11Z</time>
      </trkpt>
      <trkpt lat="48.8576" lon="-0.41263">
        <ele>121</ele>
        <time>2016-05-21T16:28:16Z</time>
      </trkpt>
      <trkpt lat="48.85745" lon="-0.41268">
        <ele>121</ele>
        <time>2016-05-21T16:28:19Z</time>
      </trkpt>
      <trkpt lat="48.85733" lon="-0.41278">
        <ele>120</ele>
        <time>2016-05-21T16:28:23Z</time>
      </trkpt>
      <trkpt lat="48.85718" lon="-0.41283">
        <ele>121</ele>
        <time>2016-05-21T16:28:26Z</time>
      </trkpt>
      <trkpt lat="48.857" lon="-0.41275">
        <ele>121</ele>
        <time>2016-05-21T16:28:31Z</time>
      </trkpt>
      <trkpt lat="48.85683" lon="-0.4127">
        <ele>122</ele>
        <time>2016-05-21T16:28:34Z</time>
      </trkpt>
      <trkpt lat="48.85665" lon="-0.4126">
        <ele>122</ele>
        <time>2016-05-21T16:28:38Z</time>
      </trkpt>
      <trkpt lat="48.85653" lon="-0.4125">
        <ele>123</ele>
        <time>2016-05-21T16:28:41Z</time>
      </trkpt>
      <trkpt lat="48.85638" lon="-0.4124">
        <ele>124</ele>
        <time>2016-05-21T16:28:45Z</time>
      </trkpt>
      <trkpt lat="48.85623" lon="-0.4123">
        <ele>124</ele>
        <time>2016-05-21T16:28:49Z</time>
      </trkpt>
      <trkpt lat="48.85608" lon="-0.41223">
        <ele>125</ele>
        <time>2016-05-21T16:28:52Z</time>
      </trkpt>
      <trkpt lat="48.8559" lon="-0.41218">
        <ele>125</ele>
        <time>2016-05-21T16:28:55Z</time>
      </trkpt>
      <trkpt lat="48.85573" lon="-0.41213">
        <ele>125</ele>
        <time>2016-05-21T16:28:58Z</time>
      </trkpt>
      <trkpt lat="48.85558" lon="-0.41213">
        <ele>125</ele>
        <time>2016-05-21T16:29:01Z</time>
      </trkpt>
      <trkpt lat="48.8554" lon="-0.41208">
        <ele>127</ele>
        <time>2016-05-21T16:29:04Z</time>
      </trkpt>
      <trkpt lat="48.85525" lon="-0.412">
        <ele>128</ele>
        <time>2016-05-21T16:29:07Z</time>
      </trkpt>
      <trkpt lat="48.8551" lon="-0.41193">
        <ele>129</ele>
        <time>2016-05-21T16:29:09Z</time>
      </trkpt>
      <trkpt lat="48.85495" lon="-0.41183">
        <ele>130</ele>
        <time>2016-05-21T16:29:13Z</time>
      </trkpt>
      <trkpt lat="48.8548" lon="-0.41168">
        <ele>131</ele>
        <time>2016-05-21T16:29:16Z</time>
      </trkpt>
      <trkpt lat="48.85448" lon="-0.41143">
        <ele>131</ele>
        <time>2016-05-21T16:29:21Z</time>
      </trkpt>
      <trkpt lat="48.85428" lon="-0.4113">
        <ele>132</ele>
        <time>2016-05-21T16:29:26Z</time>
      </trkpt>
      <trkpt lat="48.85413" lon="-0.4112">
        <ele>133</ele>
        <time>2016-05-21T16:29:29Z</time>
      </trkpt>
      <trkpt lat="48.85393" lon="-0.41103">
        <ele>133</ele>
        <time>2016-05-21T16:29:32Z</time>
      </trkpt>
      <trkpt lat="48.85375" lon="-0.411">
        <ele>131</ele>
        <time>2016-05-21T16:29:35Z</time>
      </trkpt>
      <trkpt lat="48.8536" lon="-0.41095">
        <ele>130</ele>
        <time>2016-05-21T16:29:40Z</time>
      </trkpt>
      <trkpt lat="48.85365" lon="-0.41068">
        <ele>128</ele>
        <time>2016-05-21T16:29:44Z</time>
      </trkpt>
      <trkpt lat="48.8537" lon="-0.41048">
        <ele>127</ele>
        <time>2016-05-21T16:29:46Z</time>
      </trkpt>
      <trkpt lat="48.85378" lon="-0.41028">
        <ele>127</ele>
        <time>2016-05-21T16:29:48Z</time>
      </trkpt>
      <trkpt lat="48.85393" lon="-0.4098">
        <ele>124</ele>
        <time>2016-05-21T16:29:51Z</time>
      </trkpt>
      <trkpt lat="48.85405" lon="-0.40948">
        <ele>123</ele>
        <time>2016-05-21T16:29:54Z</time>
      </trkpt>
      <trkpt lat="48.85418" lon="-0.40908">
        <ele>121</ele>
        <time>2016-05-21T16:29:59Z</time>
      </trkpt>
      <trkpt lat="48.85425" lon="-0.4089">
        <ele>120</ele>
        <time>2016-05-21T16:30:01Z</time>
      </trkpt>
      <trkpt lat="48.85433" lon="-0.4087">
        <ele>118</ele>
        <time>2016-05-21T16:30:04Z</time>
      </trkpt>
      <trkpt lat="48.85443" lon="-0.40853">
        <ele>116</ele>
        <time>2016-05-21T16:30:07Z</time>
      </trkpt>
      <trkpt lat="48.8545" lon="-0.4083">
        <ele>115</ele>
        <time>2016-05-21T16:30:10Z</time>
      </trkpt>
      <trkpt lat="48.8546" lon="-0.40805">
        <ele>114</ele>
        <time>2016-05-21T16:30:13Z</time>
      </trkpt>
      <trkpt lat="48.85468" lon="-0.40788">
        <ele>113</ele>
        <time>2016-05-21T16:30:15Z</time>
      </trkpt>
      <trkpt lat="48.8548" lon="-0.40758">
        <ele>111</ele>
        <time>2016-05-21T16:30:18Z</time>
      </trkpt>
      <trkpt lat="48.85498" lon="-0.40718">
        <ele>109</ele>
        <time>2016-05-21T16:30:21Z</time>
      </trkpt>
      <trkpt lat="48.85595" lon="-0.40503">
        <ele>97</ele>
        <time>2016-05-21T16:30:38Z</time>
      </trkpt>
      <trkpt lat="48.8561" lon="-0.40458">
        <ele>94</ele>
        <time>2016-05-21T16:30:41Z</time>
      </trkpt>
      <trkpt lat="48.8562" lon="-0.40408">
        <ele>91</ele>
        <time>2016-05-21T16:30:45Z</time>
      </trkpt>
      <trkpt lat="48.85625" lon="-0.40355">
        <ele>87</ele>
        <time>2016-05-21T16:30:47Z</time>
      </trkpt>
      <trkpt lat="48.85633" lon="-0.403">
        <ele>83</ele>
        <time>2016-05-21T16:30:51Z</time>
      </trkpt>
      <trkpt lat="48.85643" lon="-0.40243">
        <ele>78</ele>
        <time>2016-05-21T16:30:53Z</time>
      </trkpt>
      <trkpt lat="48.8566" lon="-0.4019">
        <ele>73</ele>
        <time>2016-05-21T16:30:56Z</time>
      </trkpt>
      <trkpt lat="48.85685" lon="-0.40145">
        <ele>70</ele>
        <time>2016-05-21T16:30:59Z</time>
      </trkpt>
      <trkpt lat="48.85713" lon="-0.4011">
        <ele>67</ele>
        <time>2016-05-21T16:31:02Z</time>
      </trkpt>
      <trkpt lat="48.85735" lon="-0.40073">
        <ele>64</ele>
        <time>2016-05-21T16:31:05Z</time>
      </trkpt>
      <trkpt lat="48.85748" lon="-0.4004">
        <ele>61</ele>
        <time>2016-05-21T16:31:08Z</time>
      </trkpt>
      <trkpt lat="48.85735" lon="-0.40005">
        <ele>58</ele>
        <time>2016-05-21T16:31:11Z</time>
      </trkpt>
      <trkpt lat="48.85725" lon="-0.39973">
        <ele>56</ele>
        <time>2016-05-21T16:31:14Z</time>
      </trkpt>
      <trkpt lat="48.85718" lon="-0.39938">
        <ele>58</ele>
        <time>2016-05-21T16:31:17Z</time>
      </trkpt>
      <trkpt lat="48.85705" lon="-0.39908">
        <ele>57</ele>
        <time>2016-05-21T16:31:20Z</time>
      </trkpt>
      <trkpt lat="48.85683" lon="-0.3987">
        <ele>56</ele>
        <time>2016-05-21T16:31:25Z</time>
      </trkpt>
      <trkpt lat="48.85678" lon="-0.39848">
        <ele>55</ele>
        <time>2016-05-21T16:31:27Z</time>
      </trkpt>
      <trkpt lat="48.85665" lon="-0.39828">
        <ele>57</ele>
        <time>2016-05-21T16:31:30Z</time>
      </trkpt>
      <trkpt lat="48.85653" lon="-0.39818">
        <ele>58</ele>
        <time>2016-05-21T16:31:33Z</time>
      </trkpt>
      <trkpt lat="48.85643" lon="-0.398">
        <ele>59</ele>
        <time>2016-05-21T16:31:36Z</time>
      </trkpt>
      <trkpt lat="48.856" lon="-0.39725">
        <ele>61</ele>
        <time>2016-05-21T16:31:48Z</time>
      </trkpt>
      <trkpt lat="48.85593" lon="-0.39705">
        <ele>60</ele>
        <time>2016-05-21T16:31:52Z</time>
      </trkpt>
      <trkpt lat="48.8558" lon="-0.39685">
        <ele>60</ele>
        <time>2016-05-21T16:31:55Z</time>
      </trkpt>
      <trkpt lat="48.85553" lon="-0.39635">
        <ele>58</ele>
        <time>2016-05-21T16:32:01Z</time>
      </trkpt>
      <trkpt lat="48.85523" lon="-0.39578">
        <ele>56</ele>
        <time>2016-05-21T16:32:10Z</time>
      </trkpt>
      <trkpt lat="48.8551" lon="-0.39558">
        <ele>56</ele>
        <time>2016-05-21T16:32:13Z</time>
      </trkpt>
      <trkpt lat="48.85495" lon="-0.3953">
        <ele>55</ele>
        <time>2016-05-21T16:32:16Z</time>
      </trkpt>
      <trkpt lat="48.85465" lon="-0.39473">
        <ele>56</ele>
        <time>2016-05-21T16:32:24Z</time>
      </trkpt>
      <trkpt lat="48.85428" lon="-0.39403">
        <ele>55</ele>
        <time>2016-05-21T16:32:35Z</time>
      </trkpt>
      <trkpt lat="48.85415" lon="-0.39385">
        <ele>55</ele>
        <time>2016-05-21T16:32:38Z</time>
      </trkpt>
      <trkpt lat="48.85403" lon="-0.39365">
        <ele>55</ele>
        <time>2016-05-21T16:32:41Z</time>
      </trkpt>
      <trkpt lat="48.8539" lon="-0.39353">
        <ele>55</ele>
        <time>2016-05-21T16:32:45Z</time>
      </trkpt>
      <trkpt lat="48.85375" lon="-0.39343">
        <ele>55</ele>
        <time>2016-05-21T16:32:47Z</time>
      </trkpt>
      <trkpt lat="48.85363" lon="-0.3933">
        <ele>55</ele>
        <time>2016-05-21T16:32:50Z</time>
      </trkpt>
      <trkpt lat="48.8535" lon="-0.39315">
        <ele>55</ele>
        <time>2016-05-21T16:32:53Z</time>
      </trkpt>
      <trkpt lat="48.85335" lon="-0.39303">
        <ele>55</ele>
        <time>2016-05-21T16:32:57Z</time>
      </trkpt>
      <trkpt lat="48.85318" lon="-0.39303">
        <ele>55</ele>
        <time>2016-05-21T16:32:59Z</time>
      </trkpt>
      <trkpt lat="48.85288" lon="-0.393">
        <ele>55</ele>
        <time>2016-05-21T16:33:04Z</time>
      </trkpt>
      <trkpt lat="48.8527" lon="-0.39303">
        <ele>56</ele>
        <time>2016-05-21T16:33:07Z</time>
      </trkpt>
      <trkpt lat="48.85258" lon="-0.39313">
        <ele>55</ele>
        <time>2016-05-21T16:33:10Z</time>
      </trkpt>
      <trkpt lat="48.85245" lon="-0.39328">
        <ele>55</ele>
        <time>2016-05-21T16:33:13Z</time>
      </trkpt>
      <trkpt lat="48.85228" lon="-0.39348">
        <ele>56</ele>
        <time>2016-05-21T16:33:17Z</time>
      </trkpt>
      <trkpt lat="48.85215" lon="-0.3936">
        <ele>56</ele>
        <time>2016-05-21T16:33:20Z</time>
      </trkpt>
      <trkpt lat="48.85203" lon="-0.39373">
        <ele>59</ele>
        <time>2016-05-21T16:33:25Z</time>
      </trkpt>
      <trkpt lat="48.85188" lon="-0.39368">
        <ele>61</ele>
        <time>2016-05-21T16:33:30Z</time>
      </trkpt>
      <trkpt lat="48.85175" lon="-0.39383">
        <ele>62</ele>
        <time>2016-05-21T16:33:36Z</time>
      </trkpt>
      <trkpt lat="48.85163" lon="-0.39395">
        <ele>62</ele>
        <time>2016-05-21T16:33:39Z</time>
      </trkpt>
      <trkpt lat="48.8515" lon="-0.39378">
        <ele>67</ele>
        <time>2016-05-21T16:33:50Z</time>
      </trkpt>
      <trkpt lat="48.85138" lon="-0.3936">
        <ele>71</ele>
        <time>2016-05-21T16:33:58Z</time>
      </trkpt>
      <trkpt lat="48.85125" lon="-0.3935">
        <ele>75</ele>
        <time>2016-05-21T16:34:04Z</time>
      </trkpt>
      <trkpt lat="48.8511" lon="-0.3935">
        <ele>89</ele>
        <time>2016-05-21T16:35:16Z</time>
      </trkpt>
      <trkpt lat="48.85103" lon="-0.3933">
        <ele>88</ele>
        <time>2016-05-21T16:35:22Z</time>
      </trkpt>
      <trkpt lat="48.85095" lon="-0.3931">
        <ele>88</ele>
        <time>2016-05-21T16:35:26Z</time>
      </trkpt>
      <trkpt lat="48.85085" lon="-0.39288">
        <ele>87</ele>
        <time>2016-05-21T16:35:29Z</time>
      </trkpt>
      <trkpt lat="48.85075" lon="-0.3927">
        <ele>86</ele>
        <time>2016-05-21T16:35:32Z</time>
      </trkpt>
      <trkpt lat="48.85065" lon="-0.39253">
        <ele>85</ele>
        <time>2016-05-21T16:35:36Z</time>
      </trkpt>
      <trkpt lat="48.8505" lon="-0.39225">
        <ele>85</ele>
        <time>2016-05-21T16:35:39Z</time>
      </trkpt>
      <trkpt lat="48.85035" lon="-0.392">
        <ele>84</ele>
        <time>2016-05-21T16:35:42Z</time>
      </trkpt>
      <trkpt lat="48.85015" lon="-0.39178">
        <ele>83</ele>
        <time>2016-05-21T16:35:45Z</time>
      </trkpt>
      <trkpt lat="48.84995" lon="-0.39163">
        <ele>81</ele>
        <time>2016-05-21T16:35:49Z</time>
      </trkpt>
      <trkpt lat="48.84995" lon="-0.39185">
        <ele>80</ele>
        <time>2016-05-21T16:38:39Z</time>
      </trkpt>
      <trkpt lat="48.84985" lon="-0.39203">
        <ele>78</ele>
        <time>2016-05-21T16:38:45Z</time>
      </trkpt>
      <trkpt lat="48.8497" lon="-0.39205">
        <ele>77</ele>
        <time>2016-05-21T16:38:51Z</time>
      </trkpt>
      <trkpt lat="48.84955" lon="-0.39195">
        <ele>78</ele>
        <time>2016-05-21T16:38:58Z</time>
      </trkpt>
      <trkpt lat="48.84945" lon="-0.39178">
        <ele>78</ele>
        <time>2016-05-21T16:39:03Z</time>
      </trkpt>
      <trkpt lat="48.84913" lon="-0.39145">
        <ele>82</ele>
        <time>2016-05-21T16:39:15Z</time>
      </trkpt>
      <trkpt lat="48.849" lon="-0.3913">
        <ele>83</ele>
        <time>2016-05-21T16:39:21Z</time>
      </trkpt>
      <trkpt lat="48.84888" lon="-0.39115">
        <ele>85</ele>
        <time>2016-05-21T16:39:28Z</time>
      </trkpt>
      <trkpt lat="48.84873" lon="-0.39105">
        <ele>85</ele>
        <time>2016-05-21T16:39:33Z</time>
      </trkpt>
      <trkpt lat="48.84858" lon="-0.39103">
        <ele>86</ele>
        <time>2016-05-21T16:39:38Z</time>
      </trkpt>
      <trkpt lat="48.84843" lon="-0.3911">
        <ele>87</ele>
        <time>2016-05-21T16:39:44Z</time>
      </trkpt>
      <trkpt lat="48.84833" lon="-0.3913">
        <ele>88</ele>
        <time>2016-05-21T16:39:51Z</time>
      </trkpt>
      <trkpt lat="48.84825" lon="-0.3915">
        <ele>88</ele>
        <time>2016-05-21T16:39:57Z</time>
      </trkpt>
      <trkpt lat="48.8482" lon="-0.39173">
        <ele>90</ele>
        <time>2016-05-21T16:40:03Z</time>
      </trkpt>
      <trkpt lat="48.84813" lon="-0.39195">
        <ele>91</ele>
        <time>2016-05-21T16:40:09Z</time>
      </trkpt>
      <trkpt lat="48.84808" lon="-0.39218">
        <ele>92</ele>
        <time>2016-05-21T16:40:15Z</time>
      </trkpt>
      <trkpt lat="48.84798" lon="-0.39235">
        <ele>94</ele>
        <time>2016-05-21T16:40:20Z</time>
      </trkpt>
      <trkpt lat="48.8479" lon="-0.39258">
        <ele>96</ele>
        <time>2016-05-21T16:40:24Z</time>
      </trkpt>
      <trkpt lat="48.84778" lon="-0.39283">
        <ele>97</ele>
        <time>2016-05-21T16:40:31Z</time>
      </trkpt>
      <trkpt lat="48.8477" lon="-0.393">
        <ele>99</ele>
        <time>2016-05-21T16:40:34Z</time>
      </trkpt>
      <trkpt lat="48.8476" lon="-0.39315">
        <ele>99</ele>
        <time>2016-05-21T16:40:39Z</time>
      </trkpt>
      <trkpt lat="48.84748" lon="-0.39333">
        <ele>98</ele>
        <time>2016-05-21T16:40:43Z</time>
      </trkpt>
      <trkpt lat="48.8474" lon="-0.3935">
        <ele>99</ele>
        <time>2016-05-21T16:40:46Z</time>
      </trkpt>
      <trkpt lat="48.84733" lon="-0.3937">
        <ele>100</ele>
        <time>2016-05-21T16:40:50Z</time>
      </trkpt>
      <trkpt lat="48.84723" lon="-0.39385">
        <ele>101</ele>
        <time>2016-05-21T16:40:55Z</time>
      </trkpt>
      <trkpt lat="48.84708" lon="-0.39388">
        <ele>104</ele>
        <time>2016-05-21T16:41:00Z</time>
      </trkpt>
      <trkpt lat="48.84693" lon="-0.39385">
        <ele>106</ele>
        <time>2016-05-21T16:41:06Z</time>
      </trkpt>
      <trkpt lat="48.84678" lon="-0.39388">
        <ele>106</ele>
        <time>2016-05-21T16:41:12Z</time>
      </trkpt>
      <trkpt lat="48.8467" lon="-0.39365">
        <ele>107</ele>
        <time>2016-05-21T16:42:30Z</time>
      </trkpt>
      <trkpt lat="48.84673" lon="-0.3934">
        <ele>106</ele>
        <time>2016-05-21T16:42:34Z</time>
      </trkpt>
      <trkpt lat="48.84675" lon="-0.39318">
        <ele>106</ele>
        <time>2016-05-21T16:42:40Z</time>
      </trkpt>
      <trkpt lat="48.84675" lon="-0.39293">
        <ele>105</ele>
        <time>2016-05-21T16:42:45Z</time>
      </trkpt>
      <trkpt lat="48.84675" lon="-0.39268">
        <ele>106</ele>
        <time>2016-05-21T16:42:51Z</time>
      </trkpt>
      <trkpt lat="48.84673" lon="-0.39245">
        <ele>107</ele>
        <time>2016-05-21T16:42:57Z</time>
      </trkpt>
      <trkpt lat="48.84668" lon="-0.39225">
        <ele>109</ele>
        <time>2016-05-21T16:43:05Z</time>
      </trkpt>
      <trkpt lat="48.84665" lon="-0.39203">
        <ele>110</ele>
        <time>2016-05-21T16:43:10Z</time>
      </trkpt>
      <trkpt lat="48.84665" lon="-0.3918">
        <ele>111</ele>
        <time>2016-05-21T16:43:14Z</time>
      </trkpt>
      <trkpt lat="48.8466" lon="-0.39155">
        <ele>111</ele>
        <time>2016-05-21T16:43:18Z</time>
      </trkpt>
      <trkpt lat="48.84653" lon="-0.39128">
        <ele>113</ele>
        <time>2016-05-21T16:43:24Z</time>
      </trkpt>
      <trkpt lat="48.8465" lon="-0.39105">
        <ele>113</ele>
        <time>2016-05-21T16:43:29Z</time>
      </trkpt>
      <trkpt lat="48.84648" lon="-0.39083">
        <ele>113</ele>
        <time>2016-05-21T16:43:33Z</time>
      </trkpt>
      <trkpt lat="48.84643" lon="-0.39063">
        <ele>114</ele>
        <time>2016-05-21T16:43:37Z</time>
      </trkpt>
      <trkpt lat="48.84635" lon="-0.39045">
        <ele>115</ele>
        <time>2016-05-21T16:43:41Z</time>
      </trkpt>
      <trkpt lat="48.84628" lon="-0.39023">
        <ele>116</ele>
        <time>2016-05-21T16:43:47Z</time>
      </trkpt>
      <trkpt lat="48.84623" lon="-0.39003">
        <ele>117</ele>
        <time>2016-05-21T16:43:52Z</time>
      </trkpt>
      <trkpt lat="48.84615" lon="-0.38985">
        <ele>117</ele>
        <time>2016-05-21T16:43:56Z</time>
      </trkpt>
      <trkpt lat="48.84605" lon="-0.3897">
        <ele>117</ele>
        <time>2016-05-21T16:44:00Z</time>
      </trkpt>
      <trkpt lat="48.84595" lon="-0.38953">
        <ele>118</ele>
        <time>2016-05-21T16:44:04Z</time>
      </trkpt>
      <trkpt lat="48.84585" lon="-0.38938">
        <ele>118</ele>
        <time>2016-05-21T16:44:08Z</time>
      </trkpt>
      <trkpt lat="48.84575" lon="-0.38923">
        <ele>117</ele>
        <time>2016-05-21T16:44:11Z</time>
      </trkpt>
      <trkpt lat="48.84565" lon="-0.38898">
        <ele>114</ele>
        <time>2016-05-21T16:44:14Z</time>
      </trkpt>
      <trkpt lat="48.84553" lon="-0.3887">
        <ele>112</ele>
        <time>2016-05-21T16:44:18Z</time>
      </trkpt>
      <trkpt lat="48.84538" lon="-0.38835">
        <ele>109</ele>
        <time>2016-05-21T16:44:22Z</time>
      </trkpt>
      <trkpt lat="48.84498" lon="-0.38745">
        <ele>105</ele>
        <time>2016-05-21T16:44:31Z</time>
      </trkpt>
      <trkpt lat="48.8449" lon="-0.38718">
        <ele>103</ele>
        <time>2016-05-21T16:44:35Z</time>
      </trkpt>
      <trkpt lat="48.8448" lon="-0.38688">
        <ele>101</ele>
        <time>2016-05-21T16:44:38Z</time>
      </trkpt>
      <trkpt lat="48.84475" lon="-0.38663">
        <ele>99</ele>
        <time>2016-05-21T16:44:41Z</time>
      </trkpt>
      <trkpt lat="48.84468" lon="-0.3864">
        <ele>98</ele>
        <time>2016-05-21T16:44:44Z</time>
      </trkpt>
      <trkpt lat="48.84455" lon="-0.38608">
        <ele>97</ele>
        <time>2016-05-21T16:44:48Z</time>
      </trkpt>
      <trkpt lat="48.8445" lon="-0.38583">
        <ele>95</ele>
        <time>2016-05-21T16:44:51Z</time>
      </trkpt>
      <trkpt lat="48.84448" lon="-0.38555">
        <ele>93</ele>
        <time>2016-05-21T16:44:54Z</time>
      </trkpt>
      <trkpt lat="48.84448" lon="-0.38528">
        <ele>90</ele>
        <time>2016-05-21T16:44:57Z</time>
      </trkpt>
      <trkpt lat="48.84448" lon="-0.38505">
        <ele>89</ele>
        <time>2016-05-21T16:45:02Z</time>
      </trkpt>
      <trkpt lat="48.84453" lon="-0.38483">
        <ele>87</ele>
        <time>2016-05-21T16:45:09Z</time>
      </trkpt>
      <trkpt lat="48.8445" lon="-0.3846">
        <ele>86</ele>
        <time>2016-05-21T16:45:13Z</time>
      </trkpt>
      <trkpt lat="48.84448" lon="-0.38433">
        <ele>84</ele>
        <time>2016-05-21T16:45:17Z</time>
      </trkpt>
      <trkpt lat="48.84445" lon="-0.38408">
        <ele>83</ele>
        <time>2016-05-21T16:45:19Z</time>
      </trkpt>
      <trkpt lat="48.8445" lon="-0.38385">
        <ele>82</ele>
        <time>2016-05-21T16:45:25Z</time>
      </trkpt>
      <trkpt lat="48.84455" lon="-0.38363">
        <ele>78</ele>
        <time>2016-05-21T16:45:30Z</time>
      </trkpt>
      <trkpt lat="48.84455" lon="-0.38333">
        <ele>76</ele>
        <time>2016-05-21T16:45:33Z</time>
      </trkpt>
      <trkpt lat="48.84463" lon="-0.38308">
        <ele>73</ele>
        <time>2016-05-21T16:45:35Z</time>
      </trkpt>
      <trkpt lat="48.84473" lon="-0.38293">
        <ele>72</ele>
        <time>2016-05-21T16:45:38Z</time>
      </trkpt>
      <trkpt lat="48.8448" lon="-0.38275">
        <ele>71</ele>
        <time>2016-05-21T16:45:40Z</time>
      </trkpt>
      <trkpt lat="48.8449" lon="-0.3825">
        <ele>70</ele>
        <time>2016-05-21T16:45:43Z</time>
      </trkpt>
      <trkpt lat="48.845" lon="-0.38233">
        <ele>68</ele>
        <time>2016-05-21T16:45:46Z</time>
      </trkpt>
      <trkpt lat="48.845" lon="-0.38208">
        <ele>65</ele>
        <time>2016-05-21T16:45:49Z</time>
      </trkpt>
      <trkpt lat="48.8451" lon="-0.3819">
        <ele>61</ele>
        <time>2016-05-21T16:45:53Z</time>
      </trkpt>
      <trkpt lat="48.84523" lon="-0.38178">
        <ele>59</ele>
        <time>2016-05-21T16:45:58Z</time>
      </trkpt>
      <trkpt lat="48.84515" lon="-0.3816">
        <ele>58</ele>
        <time>2016-05-21T16:46:04Z</time>
      </trkpt>
      <trkpt lat="48.845" lon="-0.3816">
        <ele>60</ele>
        <time>2016-05-21T16:46:10Z</time>
      </trkpt>
      <trkpt lat="48.84485" lon="-0.38168">
        <ele>60</ele>
        <time>2016-05-21T16:46:17Z</time>
      </trkpt>
      <trkpt lat="48.84465" lon="-0.38183">
        <ele>58</ele>
        <time>2016-05-21T16:46:23Z</time>
      </trkpt>
      <trkpt lat="48.84453" lon="-0.38193">
        <ele>57</ele>
        <time>2016-05-21T16:46:27Z</time>
      </trkpt>
      <trkpt lat="48.8444" lon="-0.38205">
        <ele>57</ele>
        <time>2016-05-21T16:46:31Z</time>
      </trkpt>
      <trkpt lat="48.84433" lon="-0.38228">
        <ele>58</ele>
        <time>2016-05-21T16:46:36Z</time>
      </trkpt>
      <trkpt lat="48.84425" lon="-0.38245">
        <ele>58</ele>
        <time>2016-05-21T16:46:40Z</time>
      </trkpt>
      <trkpt lat="48.84423" lon="-0.38268">
        <ele>58</ele>
        <time>2016-05-21T16:46:49Z</time>
      </trkpt>
      <trkpt lat="48.84418" lon="-0.38288">
        <ele>59</ele>
        <time>2016-05-21T16:46:57Z</time>
      </trkpt>
      <trkpt lat="48.8441" lon="-0.38308">
        <ele>59</ele>
        <time>2016-05-21T16:47:04Z</time>
      </trkpt>
      <trkpt lat="48.84405" lon="-0.38328">
        <ele>60</ele>
        <time>2016-05-21T16:47:12Z</time>
      </trkpt>
      <trkpt lat="48.844" lon="-0.3835">
        <ele>60</ele>
        <time>2016-05-21T16:47:21Z</time>
      </trkpt>
      <trkpt lat="48.84395" lon="-0.3837">
        <ele>60</ele>
        <time>2016-05-21T16:47:28Z</time>
      </trkpt>
      <trkpt lat="48.8439" lon="-0.38395">
        <ele>60</ele>
        <time>2016-05-21T16:47:37Z</time>
      </trkpt>
      <trkpt lat="48.84383" lon="-0.38413">
        <ele>60</ele>
        <time>2016-05-21T16:47:45Z</time>
      </trkpt>
      <trkpt lat="48.84375" lon="-0.38433">
        <ele>60</ele>
        <time>2016-05-21T16:47:52Z</time>
      </trkpt>
      <trkpt lat="48.84363" lon="-0.3847">
        <ele>60</ele>
        <time>2016-05-21T16:48:19Z</time>
      </trkpt>
      <trkpt lat="48.84355" lon="-0.38498">
        <ele>60</ele>
        <time>2016-05-21T16:48:27Z</time>
      </trkpt>
      <trkpt lat="48.8435" lon="-0.3852">
        <ele>60</ele>
        <time>2016-05-21T16:48:31Z</time>
      </trkpt>
      <trkpt lat="48.84343" lon="-0.38543">
        <ele>60</ele>
        <time>2016-05-21T16:48:37Z</time>
      </trkpt>
      <trkpt lat="48.8434" lon="-0.38568">
        <ele>60</ele>
        <time>2016-05-21T16:48:40Z</time>
      </trkpt>
      <trkpt lat="48.84333" lon="-0.3862">
        <ele>61</ele>
        <time>2016-05-21T16:48:49Z</time>
      </trkpt>
      <trkpt lat="48.84333" lon="-0.38648">
        <ele>59</ele>
        <time>2016-05-21T16:48:52Z</time>
      </trkpt>
      <trkpt lat="48.84333" lon="-0.38675">
        <ele>58</ele>
        <time>2016-05-21T16:48:55Z</time>
      </trkpt>
      <trkpt lat="48.84333" lon="-0.38703">
        <ele>59</ele>
        <time>2016-05-21T16:48:58Z</time>
      </trkpt>
      <trkpt lat="48.84338" lon="-0.38725">
        <ele>58</ele>
        <time>2016-05-21T16:49:01Z</time>
      </trkpt>
      <trkpt lat="48.84335" lon="-0.3875">
        <ele>60</ele>
        <time>2016-05-21T16:49:03Z</time>
      </trkpt>
      <trkpt lat="48.84335" lon="-0.38775">
        <ele>60</ele>
        <time>2016-05-21T16:49:06Z</time>
      </trkpt>
      <trkpt lat="48.84338" lon="-0.388">
        <ele>60</ele>
        <time>2016-05-21T16:49:10Z</time>
      </trkpt>
      <trkpt lat="48.84345" lon="-0.38823">
        <ele>61</ele>
        <time>2016-05-21T16:49:12Z</time>
      </trkpt>
      <trkpt lat="48.84355" lon="-0.3884">
        <ele>61</ele>
        <time>2016-05-21T16:49:16Z</time>
      </trkpt>
      <trkpt lat="48.84363" lon="-0.38858">
        <ele>61</ele>
        <time>2016-05-21T16:49:19Z</time>
      </trkpt>
      <trkpt lat="48.8437" lon="-0.38875">
        <ele>61</ele>
        <time>2016-05-21T16:49:22Z</time>
      </trkpt>
      <trkpt lat="48.84378" lon="-0.38893">
        <ele>61</ele>
        <time>2016-05-21T16:49:25Z</time>
      </trkpt>
      <trkpt lat="48.84388" lon="-0.3891">
        <ele>61</ele>
        <time>2016-05-21T16:49:27Z</time>
      </trkpt>
      <trkpt lat="48.84398" lon="-0.38925">
        <ele>62</ele>
        <time>2016-05-21T16:49:30Z</time>
      </trkpt>
      <trkpt lat="48.8441" lon="-0.38943">
        <ele>61</ele>
        <time>2016-05-21T16:49:33Z</time>
      </trkpt>
      <trkpt lat="48.84428" lon="-0.38955">
        <ele>61</ele>
        <time>2016-05-21T16:49:36Z</time>
      </trkpt>
      <trkpt lat="48.84435" lon="-0.38973">
        <ele>62</ele>
        <time>2016-05-21T16:49:41Z</time>
      </trkpt>
      <trkpt lat="48.84448" lon="-0.3899">
        <ele>63</ele>
        <time>2016-05-21T16:49:45Z</time>
      </trkpt>
      <trkpt lat="48.84458" lon="-0.39013">
        <ele>63</ele>
        <time>2016-05-21T16:49:48Z</time>
      </trkpt>
      <trkpt lat="48.84473" lon="-0.39033">
        <ele>62</ele>
        <time>2016-05-21T16:49:53Z</time>
      </trkpt>
      <trkpt lat="48.84488" lon="-0.3905">
        <ele>63</ele>
        <time>2016-05-21T16:49:57Z</time>
      </trkpt>
      <trkpt lat="48.84503" lon="-0.3907">
        <ele>62</ele>
        <time>2016-05-21T16:49:59Z</time>
      </trkpt>
      <trkpt lat="48.84518" lon="-0.39083">
        <ele>63</ele>
        <time>2016-05-21T16:50:02Z</time>
      </trkpt>
      <trkpt lat="48.8453" lon="-0.39103">
        <ele>61</ele>
        <time>2016-05-21T16:50:05Z</time>
      </trkpt>
      <trkpt lat="48.84538" lon="-0.39125">
        <ele>61</ele>
        <time>2016-05-21T16:50:07Z</time>
      </trkpt>
      <trkpt lat="48.84548" lon="-0.39143">
        <ele>61</ele>
        <time>2016-05-21T16:50:11Z</time>
      </trkpt>
      <trkpt lat="48.84558" lon="-0.39163">
        <ele>61</ele>
        <time>2016-05-21T16:50:15Z</time>
      </trkpt>
      <trkpt lat="48.84563" lon="-0.39183">
        <ele>62</ele>
        <time>2016-05-21T16:50:17Z</time>
      </trkpt>
      <trkpt lat="48.8457" lon="-0.39208">
        <ele>63</ele>
        <time>2016-05-21T16:50:21Z</time>
      </trkpt>
      <trkpt lat="48.84575" lon="-0.39228">
        <ele>63</ele>
        <time>2016-05-21T16:50:24Z</time>
      </trkpt>
      <trkpt lat="48.8458" lon="-0.3925">
        <ele>65</ele>
        <time>2016-05-21T16:50:27Z</time>
      </trkpt>
      <trkpt lat="48.84583" lon="-0.39273">
        <ele>66</ele>
        <time>2016-05-21T16:50:30Z</time>
      </trkpt>
      <trkpt lat="48.84588" lon="-0.39293">
        <ele>66</ele>
        <time>2016-05-21T16:50:34Z</time>
      </trkpt>
      <trkpt lat="48.84593" lon="-0.39318">
        <ele>65</ele>
        <time>2016-05-21T16:50:37Z</time>
      </trkpt>
      <trkpt lat="48.84593" lon="-0.39345">
        <ele>65</ele>
        <time>2016-05-21T16:50:40Z</time>
      </trkpt>
      <trkpt lat="48.8459" lon="-0.3937">
        <ele>65</ele>
        <time>2016-05-21T16:50:43Z</time>
      </trkpt>
      <trkpt lat="48.84588" lon="-0.39395">
        <ele>66</ele>
        <time>2016-05-21T16:50:46Z</time>
      </trkpt>
      <trkpt lat="48.8458" lon="-0.39418">
        <ele>68</ele>
        <time>2016-05-21T16:50:48Z</time>
      </trkpt>
      <trkpt lat="48.84575" lon="-0.3944">
        <ele>71</ele>
        <time>2016-05-21T16:50:52Z</time>
      </trkpt>
      <trkpt lat="48.84565" lon="-0.39465">
        <ele>71</ele>
        <time>2016-05-21T16:50:55Z</time>
      </trkpt>
      <trkpt lat="48.84555" lon="-0.39493">
        <ele>71</ele>
        <time>2016-05-21T16:50:58Z</time>
      </trkpt>
      <trkpt lat="48.8454" lon="-0.39535">
        <ele>68</ele>
        <time>2016-05-21T16:51:03Z</time>
      </trkpt>
      <trkpt lat="48.84538" lon="-0.3956">
        <ele>68</ele>
        <time>2016-05-21T16:51:06Z</time>
      </trkpt>
      <trkpt lat="48.84533" lon="-0.3958">
        <ele>67</ele>
        <time>2016-05-21T16:51:09Z</time>
      </trkpt>
      <trkpt lat="48.84523" lon="-0.39615">
        <ele>67</ele>
        <time>2016-05-21T16:51:14Z</time>
      </trkpt>
      <trkpt lat="48.84513" lon="-0.3965">
        <ele>68</ele>
        <time>2016-05-21T16:51:18Z</time>
      </trkpt>
      <trkpt lat="48.84505" lon="-0.39673">
        <ele>68</ele>
        <time>2016-05-21T16:51:22Z</time>
      </trkpt>
      <trkpt lat="48.84493" lon="-0.39695">
        <ele>68</ele>
        <time>2016-05-21T16:51:25Z</time>
      </trkpt>
      <trkpt lat="48.84468" lon="-0.39733">
        <ele>69</ele>
        <time>2016-05-21T16:51:31Z</time>
      </trkpt>
      <trkpt lat="48.84453" lon="-0.39755">
        <ele>70</ele>
        <time>2016-05-21T16:51:35Z</time>
      </trkpt>
      <trkpt lat="48.8444" lon="-0.39773">
        <ele>71</ele>
        <time>2016-05-21T16:51:38Z</time>
      </trkpt>
      <trkpt lat="48.84425" lon="-0.3979">
        <ele>72</ele>
        <time>2016-05-21T16:51:42Z</time>
      </trkpt>
      <trkpt lat="48.84413" lon="-0.39803">
        <ele>73</ele>
        <time>2016-05-21T16:51:45Z</time>
      </trkpt>
      <trkpt lat="48.84393" lon="-0.3982">
        <ele>74</ele>
        <time>2016-05-21T16:51:48Z</time>
      </trkpt>
      <trkpt lat="48.8438" lon="-0.3983">
        <ele>74</ele>
        <time>2016-05-21T16:51:51Z</time>
      </trkpt>
      <trkpt lat="48.84365" lon="-0.39838">
        <ele>74</ele>
        <time>2016-05-21T16:51:54Z</time>
      </trkpt>
      <trkpt lat="48.8435" lon="-0.3984">
        <ele>73</ele>
        <time>2016-05-21T16:51:58Z</time>
      </trkpt>
      <trkpt lat="48.84335" lon="-0.39843">
        <ele>73</ele>
        <time>2016-05-21T16:52:01Z</time>
      </trkpt>
      <trkpt lat="48.8432" lon="-0.39843">
        <ele>72</ele>
        <time>2016-05-21T16:52:03Z</time>
      </trkpt>
      <trkpt lat="48.84303" lon="-0.3984">
        <ele>72</ele>
        <time>2016-05-21T16:52:08Z</time>
      </trkpt>
      <trkpt lat="48.84288" lon="-0.39833">
        <ele>73</ele>
        <time>2016-05-21T16:52:13Z</time>
      </trkpt>
      <trkpt lat="48.84275" lon="-0.3982">
        <ele>72</ele>
        <time>2016-05-21T16:52:17Z</time>
      </trkpt>
      <trkpt lat="48.8426" lon="-0.39798">
        <ele>74</ele>
        <time>2016-05-21T16:52:23Z</time>
      </trkpt>
      <trkpt lat="48.8425" lon="-0.39783">
        <ele>74</ele>
        <time>2016-05-21T16:52:26Z</time>
      </trkpt>
      <trkpt lat="48.84233" lon="-0.3976">
        <ele>72</ele>
        <time>2016-05-21T16:52:31Z</time>
      </trkpt>
      <trkpt lat="48.8422" lon="-0.3974">
        <ele>70</ele>
        <time>2016-05-21T16:52:34Z</time>
      </trkpt>
      <trkpt lat="48.84205" lon="-0.39723">
        <ele>71</ele>
        <time>2016-05-21T16:52:37Z</time>
      </trkpt>
      <trkpt lat="48.84195" lon="-0.39703">
        <ele>70</ele>
        <time>2016-05-21T16:52:40Z</time>
      </trkpt>
      <trkpt lat="48.84188" lon="-0.39685">
        <ele>70</ele>
        <time>2016-05-21T16:52:43Z</time>
      </trkpt>
      <trkpt lat="48.8418" lon="-0.3966">
        <ele>69</ele>
        <time>2016-05-21T16:52:46Z</time>
      </trkpt>
      <trkpt lat="48.84175" lon="-0.39638">
        <ele>68</ele>
        <time>2016-05-21T16:52:49Z</time>
      </trkpt>
      <trkpt lat="48.84165" lon="-0.39618">
        <ele>69</ele>
        <time>2016-05-21T16:52:54Z</time>
      </trkpt>
      <trkpt lat="48.84153" lon="-0.39595">
        <ele>70</ele>
        <time>2016-05-21T16:52:58Z</time>
      </trkpt>
      <trkpt lat="48.84143" lon="-0.39578">
        <ele>70</ele>
        <time>2016-05-21T16:53:03Z</time>
      </trkpt>
      <trkpt lat="48.84133" lon="-0.39558">
        <ele>70</ele>
        <time>2016-05-21T16:53:06Z</time>
      </trkpt>
      <trkpt lat="48.84123" lon="-0.39538">
        <ele>70</ele>
        <time>2016-05-21T16:53:10Z</time>
      </trkpt>
      <trkpt lat="48.84103" lon="-0.39503">
        <ele>69</ele>
        <time>2016-05-21T16:53:17Z</time>
      </trkpt>
      <trkpt lat="48.84093" lon="-0.39483">
        <ele>71</ele>
        <time>2016-05-21T16:53:22Z</time>
      </trkpt>
      <trkpt lat="48.84085" lon="-0.39463">
        <ele>73</ele>
        <time>2016-05-21T16:53:24Z</time>
      </trkpt>
      <trkpt lat="48.84073" lon="-0.39448">
        <ele>73</ele>
        <time>2016-05-21T16:53:28Z</time>
      </trkpt>
      <trkpt lat="48.84058" lon="-0.39433">
        <ele>73</ele>
        <time>2016-05-21T16:53:30Z</time>
      </trkpt>
      <trkpt lat="48.8405" lon="-0.39413">
        <ele>75</ele>
        <time>2016-05-21T16:53:36Z</time>
      </trkpt>
      <trkpt lat="48.84038" lon="-0.39398">
        <ele>77</ele>
        <time>2016-05-21T16:53:44Z</time>
      </trkpt>
      <trkpt lat="48.84025" lon="-0.39385">
        <ele>78</ele>
        <time>2016-05-21T16:53:51Z</time>
      </trkpt>
      <trkpt lat="48.84003" lon="-0.39383">
        <ele>72</ele>
        <time>2016-05-21T16:54:59Z</time>
      </trkpt>
      <trkpt lat="48.83985" lon="-0.3938">
        <ele>84</ele>
        <time>2016-05-21T16:56:16Z</time>
      </trkpt>
      <trkpt lat="48.83973" lon="-0.39368">
        <ele>83</ele>
        <time>2016-05-21T16:56:22Z</time>
      </trkpt>
      <trkpt lat="48.83963" lon="-0.39353">
        <ele>82</ele>
        <time>2016-05-21T16:56:26Z</time>
      </trkpt>
      <trkpt lat="48.8395" lon="-0.39338">
        <ele>82</ele>
        <time>2016-05-21T16:56:32Z</time>
      </trkpt>
      <trkpt lat="48.83938" lon="-0.39328">
        <ele>80</ele>
        <time>2016-05-21T16:56:37Z</time>
      </trkpt>
      <trkpt lat="48.83913" lon="-0.39305">
        <ele>77</ele>
        <time>2016-05-21T16:56:47Z</time>
      </trkpt>
      <trkpt lat="48.83898" lon="-0.39298">
        <ele>77</ele>
        <time>2016-05-21T16:56:51Z</time>
      </trkpt>
      <trkpt lat="48.83885" lon="-0.39288">
        <ele>76</ele>
        <time>2016-05-21T16:56:54Z</time>
      </trkpt>
      <trkpt lat="48.83868" lon="-0.3928">
        <ele>76</ele>
        <time>2016-05-21T16:56:59Z</time>
      </trkpt>
      <trkpt lat="48.83853" lon="-0.39283">
        <ele>76</ele>
        <time>2016-05-21T16:57:01Z</time>
      </trkpt>
      <trkpt lat="48.83838" lon="-0.39293">
        <ele>75</ele>
        <time>2016-05-21T16:57:03Z</time>
      </trkpt>
      <trkpt lat="48.83828" lon="-0.39308">
        <ele>75</ele>
        <time>2016-05-21T16:57:07Z</time>
      </trkpt>
      <trkpt lat="48.83813" lon="-0.39318">
        <ele>74</ele>
        <time>2016-05-21T16:57:13Z</time>
      </trkpt>
      <trkpt lat="48.83808" lon="-0.39338">
        <ele>73</ele>
        <time>2016-05-21T16:57:16Z</time>
      </trkpt>
      <trkpt lat="48.83798" lon="-0.39358">
        <ele>72</ele>
        <time>2016-05-21T16:57:22Z</time>
      </trkpt>
      <trkpt lat="48.8379" lon="-0.3938">
        <ele>73</ele>
        <time>2016-05-21T16:57:26Z</time>
      </trkpt>
      <trkpt lat="48.83785" lon="-0.39403">
        <ele>73</ele>
        <time>2016-05-21T16:57:29Z</time>
      </trkpt>
      <trkpt lat="48.83783" lon="-0.39428">
        <ele>72</ele>
        <time>2016-05-21T16:57:33Z</time>
      </trkpt>
      <trkpt lat="48.8378" lon="-0.39453">
        <ele>72</ele>
        <time>2016-05-21T16:57:36Z</time>
      </trkpt>
      <trkpt lat="48.83783" lon="-0.3948">
        <ele>71</ele>
        <time>2016-05-21T16:57:39Z</time>
      </trkpt>
      <trkpt lat="48.83785" lon="-0.39508">
        <ele>71</ele>
        <time>2016-05-21T16:57:45Z</time>
      </trkpt>
      <trkpt lat="48.83793" lon="-0.39528">
        <ele>70</ele>
        <time>2016-05-21T16:57:47Z</time>
      </trkpt>
      <trkpt lat="48.83803" lon="-0.39548">
        <ele>70</ele>
        <time>2016-05-21T16:57:52Z</time>
      </trkpt>
      <trkpt lat="48.83815" lon="-0.39565">
        <ele>70</ele>
        <time>2016-05-21T16:57:55Z</time>
      </trkpt>
      <trkpt lat="48.83835" lon="-0.39588">
        <ele>69</ele>
        <time>2016-05-21T16:58:00Z</time>
      </trkpt>
      <trkpt lat="48.83853" lon="-0.39598">
        <ele>69</ele>
        <time>2016-05-21T16:58:04Z</time>
      </trkpt>
      <trkpt lat="48.8388" lon="-0.39613">
        <ele>70</ele>
        <time>2016-05-21T16:58:11Z</time>
      </trkpt>
      <trkpt lat="48.83895" lon="-0.3962">
        <ele>68</ele>
        <time>2016-05-21T16:58:13Z</time>
      </trkpt>
      <trkpt lat="48.83915" lon="-0.39623">
        <ele>68</ele>
        <time>2016-05-21T16:58:17Z</time>
      </trkpt>
      <trkpt lat="48.83933" lon="-0.3962">
        <ele>68</ele>
        <time>2016-05-21T16:58:20Z</time>
      </trkpt>
      <trkpt lat="48.8395" lon="-0.39618">
        <ele>69</ele>
        <time>2016-05-21T16:58:22Z</time>
      </trkpt>
      <trkpt lat="48.83965" lon="-0.3961">
        <ele>70</ele>
        <time>2016-05-21T16:58:27Z</time>
      </trkpt>
      <trkpt lat="48.83978" lon="-0.39595">
        <ele>71</ele>
        <time>2016-05-21T16:58:31Z</time>
      </trkpt>
      <trkpt lat="48.83985" lon="-0.39575">
        <ele>72</ele>
        <time>2016-05-21T16:58:35Z</time>
      </trkpt>
      <trkpt lat="48.84" lon="-0.39575">
        <ele>72</ele>
        <time>2016-05-21T16:58:39Z</time>
      </trkpt>
      <trkpt lat="48.84018" lon="-0.39585">
        <ele>73</ele>
        <time>2016-05-21T16:58:43Z</time>
      </trkpt>
      <trkpt lat="48.8403" lon="-0.39598">
        <ele>75</ele>
        <time>2016-05-21T16:58:45Z</time>
      </trkpt>
      <trkpt lat="48.84043" lon="-0.39608">
        <ele>76</ele>
        <time>2016-05-21T16:58:48Z</time>
      </trkpt>
      <trkpt lat="48.84055" lon="-0.39618">
        <ele>76</ele>
        <time>2016-05-21T16:58:51Z</time>
      </trkpt>
      <trkpt lat="48.84068" lon="-0.39633">
        <ele>76</ele>
        <time>2016-05-21T16:58:54Z</time>
      </trkpt>
      <trkpt lat="48.84078" lon="-0.39648">
        <ele>74</ele>
        <time>2016-05-21T16:58:57Z</time>
      </trkpt>
      <trkpt lat="48.8409" lon="-0.39665">
        <ele>75</ele>
        <time>2016-05-21T16:59:00Z</time>
      </trkpt>
      <trkpt lat="48.841" lon="-0.39683">
        <ele>74</ele>
        <time>2016-05-21T16:59:04Z</time>
      </trkpt>
      <trkpt lat="48.84085" lon="-0.3969">
        <ele>74</ele>
        <time>2016-05-21T16:59:13Z</time>
      </trkpt>
      <trkpt lat="48.8407" lon="-0.3969">
        <ele>74</ele>
        <time>2016-05-21T16:59:17Z</time>
      </trkpt>
      <trkpt lat="48.84055" lon="-0.39695">
        <ele>74</ele>
        <time>2016-05-21T16:59:20Z</time>
      </trkpt>
      <trkpt lat="48.8404" lon="-0.39708">
        <ele>73</ele>
        <time>2016-05-21T16:59:23Z</time>
      </trkpt>
      <trkpt lat="48.84025" lon="-0.39723">
        <ele>72</ele>
        <time>2016-05-21T16:59:26Z</time>
      </trkpt>
      <trkpt lat="48.84013" lon="-0.39738">
        <ele>72</ele>
        <time>2016-05-21T16:59:29Z</time>
      </trkpt>
      <trkpt lat="48.84" lon="-0.3975">
        <ele>71</ele>
        <time>2016-05-21T16:59:32Z</time>
      </trkpt>
      <trkpt lat="48.83985" lon="-0.39768">
        <ele>72</ele>
        <time>2016-05-21T16:59:37Z</time>
      </trkpt>
      <trkpt lat="48.8397" lon="-0.39775">
        <ele>73</ele>
        <time>2016-05-21T16:59:40Z</time>
      </trkpt>
      <trkpt lat="48.83955" lon="-0.39785">
        <ele>73</ele>
        <time>2016-05-21T16:59:43Z</time>
      </trkpt>
      <trkpt lat="48.8394" lon="-0.3979">
        <ele>74</ele>
        <time>2016-05-21T16:59:46Z</time>
      </trkpt>
      <trkpt lat="48.8392" lon="-0.39795">
        <ele>75</ele>
        <time>2016-05-21T16:59:52Z</time>
      </trkpt>
      <trkpt lat="48.83895" lon="-0.39805">
        <ele>77</ele>
        <time>2016-05-21T16:59:58Z</time>
      </trkpt>
      <trkpt lat="48.83878" lon="-0.3981">
        <ele>78</ele>
        <time>2016-05-21T17:00:01Z</time>
      </trkpt>
      <trkpt lat="48.8386" lon="-0.39818">
        <ele>80</ele>
        <time>2016-05-21T17:00:06Z</time>
      </trkpt>
      <trkpt lat="48.83845" lon="-0.39823">
        <ele>80</ele>
        <time>2016-05-21T17:00:10Z</time>
      </trkpt>
      <trkpt lat="48.8383" lon="-0.3983">
        <ele>81</ele>
        <time>2016-05-21T17:00:14Z</time>
      </trkpt>
      <trkpt lat="48.83815" lon="-0.3984">
        <ele>82</ele>
        <time>2016-05-21T17:00:19Z</time>
      </trkpt>
      <trkpt lat="48.838" lon="-0.39845">
        <ele>82</ele>
        <time>2016-05-21T17:00:22Z</time>
      </trkpt>
      <trkpt lat="48.83785" lon="-0.39845">
        <ele>82</ele>
        <time>2016-05-21T17:00:26Z</time>
      </trkpt>
      <trkpt lat="48.83768" lon="-0.3984">
        <ele>82</ele>
        <time>2016-05-21T17:00:31Z</time>
      </trkpt>
      <trkpt lat="48.83753" lon="-0.3983">
        <ele>81</ele>
        <time>2016-05-21T17:00:36Z</time>
      </trkpt>
      <trkpt lat="48.83735" lon="-0.39825">
        <ele>83</ele>
        <time>2016-05-21T17:00:42Z</time>
      </trkpt>
      <trkpt lat="48.8372" lon="-0.39825">
        <ele>84</ele>
        <time>2016-05-21T17:00:48Z</time>
      </trkpt>
      <trkpt lat="48.8369" lon="-0.39828">
        <ele>82</ele>
        <time>2016-05-21T17:00:54Z</time>
      </trkpt>
      <trkpt lat="48.83675" lon="-0.39825">
        <ele>82</ele>
        <time>2016-05-21T17:00:56Z</time>
      </trkpt>
      <trkpt lat="48.83658" lon="-0.39825">
        <ele>82</ele>
        <time>2016-05-21T17:01:00Z</time>
      </trkpt>
      <trkpt lat="48.83643" lon="-0.39825">
        <ele>82</ele>
        <time>2016-05-21T17:01:04Z</time>
      </trkpt>
      <trkpt lat="48.83625" lon="-0.39823">
        <ele>82</ele>
        <time>2016-05-21T17:01:07Z</time>
      </trkpt>
      <trkpt lat="48.83608" lon="-0.39818">
        <ele>83</ele>
        <time>2016-05-21T17:01:12Z</time>
      </trkpt>
      <trkpt lat="48.8359" lon="-0.3981">
        <ele>83</ele>
        <time>2016-05-21T17:01:15Z</time>
      </trkpt>
      <trkpt lat="48.8357" lon="-0.39803">
        <ele>83</ele>
        <time>2016-05-21T17:01:19Z</time>
      </trkpt>
      <trkpt lat="48.83548" lon="-0.39795">
        <ele>83</ele>
        <time>2016-05-21T17:01:24Z</time>
      </trkpt>
      <trkpt lat="48.83475" lon="-0.39773">
        <ele>77</ele>
        <time>2016-05-21T17:01:33Z</time>
      </trkpt>
      <trkpt lat="48.83448" lon="-0.39765">
        <ele>74</ele>
        <time>2016-05-21T17:01:38Z</time>
      </trkpt>
      <trkpt lat="48.83433" lon="-0.39755">
        <ele>72</ele>
        <time>2016-05-21T17:01:40Z</time>
      </trkpt>
      <trkpt lat="48.8342" lon="-0.39743">
        <ele>69</ele>
        <time>2016-05-21T17:01:45Z</time>
      </trkpt>
      <trkpt lat="48.83393" lon="-0.39718">
        <ele>69</ele>
        <time>2016-05-21T17:01:49Z</time>
      </trkpt>
      <trkpt lat="48.83358" lon="-0.39688">
        <ele>70</ele>
        <time>2016-05-21T17:01:56Z</time>
      </trkpt>
      <trkpt lat="48.83345" lon="-0.39673">
        <ele>71</ele>
        <time>2016-05-21T17:02:00Z</time>
      </trkpt>
      <trkpt lat="48.83325" lon="-0.39653">
        <ele>72</ele>
        <time>2016-05-21T17:02:03Z</time>
      </trkpt>
      <trkpt lat="48.83313" lon="-0.39633">
        <ele>72</ele>
        <time>2016-05-21T17:02:07Z</time>
      </trkpt>
      <trkpt lat="48.83288" lon="-0.39595">
        <ele>74</ele>
        <time>2016-05-21T17:02:12Z</time>
      </trkpt>
      <trkpt lat="48.83275" lon="-0.39575">
        <ele>75</ele>
        <time>2016-05-21T17:02:16Z</time>
      </trkpt>
      <trkpt lat="48.83265" lon="-0.39555">
        <ele>77</ele>
        <time>2016-05-21T17:02:19Z</time>
      </trkpt>
      <trkpt lat="48.83258" lon="-0.39533">
        <ele>78</ele>
        <time>2016-05-21T17:02:21Z</time>
      </trkpt>
      <trkpt lat="48.8325" lon="-0.39513">
        <ele>78</ele>
        <time>2016-05-21T17:02:25Z</time>
      </trkpt>
      <trkpt lat="48.83243" lon="-0.39495">
        <ele>78</ele>
        <time>2016-05-21T17:02:28Z</time>
      </trkpt>
      <trkpt lat="48.83235" lon="-0.39475">
        <ele>79</ele>
        <time>2016-05-21T17:02:31Z</time>
      </trkpt>
      <trkpt lat="48.83228" lon="-0.3945">
        <ele>80</ele>
        <time>2016-05-21T17:02:34Z</time>
      </trkpt>
      <trkpt lat="48.8322" lon="-0.39428">
        <ele>80</ele>
        <time>2016-05-21T17:02:38Z</time>
      </trkpt>
      <trkpt lat="48.83218" lon="-0.394">
        <ele>80</ele>
        <time>2016-05-21T17:02:41Z</time>
      </trkpt>
      <trkpt lat="48.83213" lon="-0.3938">
        <ele>80</ele>
        <time>2016-05-21T17:02:45Z</time>
      </trkpt>
      <trkpt lat="48.83208" lon="-0.3936">
        <ele>80</ele>
        <time>2016-05-21T17:02:47Z</time>
      </trkpt>
      <trkpt lat="48.83208" lon="-0.39338">
        <ele>80</ele>
        <time>2016-05-21T17:02:51Z</time>
      </trkpt>
      <trkpt lat="48.832" lon="-0.39318">
        <ele>81</ele>
        <time>2016-05-21T17:02:56Z</time>
      </trkpt>
      <trkpt lat="48.83193" lon="-0.393">
        <ele>82</ele>
        <time>2016-05-21T17:02:58Z</time>
      </trkpt>
      <trkpt lat="48.83185" lon="-0.39278">
        <ele>84</ele>
        <time>2016-05-21T17:03:04Z</time>
      </trkpt>
      <trkpt lat="48.83175" lon="-0.39253">
        <ele>84</ele>
        <time>2016-05-21T17:03:10Z</time>
      </trkpt>
      <trkpt lat="48.83165" lon="-0.39235">
        <ele>87</ele>
        <time>2016-05-21T17:03:16Z</time>
      </trkpt>
      <trkpt lat="48.83148" lon="-0.39215">
        <ele>85</ele>
        <time>2016-05-21T17:03:39Z</time>
      </trkpt>
      <trkpt lat="48.83133" lon="-0.39193">
        <ele>83</ele>
        <time>2016-05-21T17:03:56Z</time>
      </trkpt>
      <trkpt lat="48.83108" lon="-0.39168">
        <ele>83</ele>
        <time>2016-05-21T17:04:21Z</time>
      </trkpt>
      <trkpt lat="48.83113" lon="-0.39145">
        <ele>85</ele>
        <time>2016-05-21T17:05:10Z</time>
      </trkpt>
      <trkpt lat="48.8313" lon="-0.39113">
        <ele>98</ele>
        <time>2016-05-21T17:07:27Z</time>
      </trkpt>
      <trkpt lat="48.8312" lon="-0.39095">
        <ele>100</ele>
        <time>2016-05-21T17:08:16Z</time>
      </trkpt>
      <trkpt lat="48.83105" lon="-0.3907">
        <ele>98</ele>
        <time>2016-05-21T17:08:26Z</time>
      </trkpt>
      <trkpt lat="48.83098" lon="-0.3905">
        <ele>98</ele>
        <time>2016-05-21T17:08:36Z</time>
      </trkpt>
      <trkpt lat="48.8309" lon="-0.39033">
        <ele>98</ele>
        <time>2016-05-21T17:08:43Z</time>
      </trkpt>
      <trkpt lat="48.83085" lon="-0.39013">
        <ele>99</ele>
        <time>2016-05-21T17:08:51Z</time>
      </trkpt>
      <trkpt lat="48.83075" lon="-0.38998">
        <ele>99</ele>
        <time>2016-05-21T17:09:00Z</time>
      </trkpt>
      <trkpt lat="48.8306" lon="-0.38985">
        <ele>100</ele>
        <time>2016-05-21T17:09:07Z</time>
      </trkpt>
      <trkpt lat="48.83053" lon="-0.38963">
        <ele>101</ele>
        <time>2016-05-21T17:09:17Z</time>
      </trkpt>
      <trkpt lat="48.83045" lon="-0.38943">
        <ele>102</ele>
        <time>2016-05-21T17:09:26Z</time>
      </trkpt>
      <trkpt lat="48.83025" lon="-0.38913">
        <ele>114</ele>
        <time>2016-05-21T17:10:20Z</time>
      </trkpt>
      <trkpt lat="48.83005" lon="-0.3891">
        <ele>111</ele>
        <time>2016-05-21T17:10:37Z</time>
      </trkpt>
      <trkpt lat="48.82993" lon="-0.38893">
        <ele>110</ele>
        <time>2016-05-21T17:10:57Z</time>
      </trkpt>
      <trkpt lat="48.82965" lon="-0.38883">
        <ele>104</ele>
        <time>2016-05-21T17:14:10Z</time>
      </trkpt>
      <trkpt lat="48.82938" lon="-0.38898">
        <ele>91</ele>
        <time>2016-05-21T17:15:27Z</time>
      </trkpt>
      <trkpt lat="48.82933" lon="-0.38878">
        <ele>95</ele>
        <time>2016-05-21T17:16:49Z</time>
      </trkpt>
      <trkpt lat="48.8293" lon="-0.38855">
        <ele>92</ele>
        <time>2016-05-21T17:16:57Z</time>
      </trkpt>
      <trkpt lat="48.82928" lon="-0.38833">
        <ele>89</ele>
        <time>2016-05-21T17:17:03Z</time>
      </trkpt>
      <trkpt lat="48.82923" lon="-0.38808">
        <ele>87</ele>
        <time>2016-05-21T17:17:09Z</time>
      </trkpt>
      <trkpt lat="48.82918" lon="-0.38788">
        <ele>88</ele>
        <time>2016-05-21T17:17:16Z</time>
      </trkpt>
      <trkpt lat="48.8291" lon="-0.38765">
        <ele>86</ele>
        <time>2016-05-21T17:17:23Z</time>
      </trkpt>
      <trkpt lat="48.82903" lon="-0.38745">
        <ele>86</ele>
        <time>2016-05-21T17:17:28Z</time>
      </trkpt>
      <trkpt lat="48.82898" lon="-0.38725">
        <ele>86</ele>
        <time>2016-05-21T17:17:34Z</time>
      </trkpt>
      <trkpt lat="48.82895" lon="-0.387">
        <ele>85</ele>
        <time>2016-05-21T17:17:39Z</time>
      </trkpt>
      <trkpt lat="48.82888" lon="-0.38683">
        <ele>84</ele>
        <time>2016-05-21T17:17:42Z</time>
      </trkpt>
      <trkpt lat="48.82883" lon="-0.3866">
        <ele>86</ele>
        <time>2016-05-21T17:17:48Z</time>
      </trkpt>
      <trkpt lat="48.82878" lon="-0.3864">
        <ele>85</ele>
        <time>2016-05-21T17:17:52Z</time>
      </trkpt>
      <trkpt lat="48.8286" lon="-0.38585">
        <ele>89</ele>
        <time>2016-05-21T17:18:35Z</time>
      </trkpt>
      <trkpt lat="48.82853" lon="-0.38568">
        <ele>88</ele>
        <time>2016-05-21T17:18:41Z</time>
      </trkpt>
      <trkpt lat="48.82835" lon="-0.38525">
        <ele>91</ele>
        <time>2016-05-21T17:19:16Z</time>
      </trkpt>
      <trkpt lat="48.82828" lon="-0.38508">
        <ele>89</ele>
        <time>2016-05-21T17:19:20Z</time>
      </trkpt>
      <trkpt lat="48.82823" lon="-0.38488">
        <ele>88</ele>
        <time>2016-05-21T17:19:25Z</time>
      </trkpt>
      <trkpt lat="48.82815" lon="-0.38463">
        <ele>88</ele>
        <time>2016-05-21T17:19:31Z</time>
      </trkpt>
      <trkpt lat="48.8281" lon="-0.3844">
        <ele>88</ele>
        <time>2016-05-21T17:19:37Z</time>
      </trkpt>
      <trkpt lat="48.82798" lon="-0.38428">
        <ele>87</ele>
        <time>2016-05-21T17:19:40Z</time>
      </trkpt>
      <trkpt lat="48.82793" lon="-0.38408">
        <ele>88</ele>
        <time>2016-05-21T17:19:45Z</time>
      </trkpt>
      <trkpt lat="48.82783" lon="-0.38393">
        <ele>88</ele>
        <time>2016-05-21T17:19:50Z</time>
      </trkpt>
      <trkpt lat="48.8278" lon="-0.38368">
        <ele>88</ele>
        <time>2016-05-21T17:19:55Z</time>
      </trkpt>
      <trkpt lat="48.82778" lon="-0.38343">
        <ele>88</ele>
        <time>2016-05-21T17:19:59Z</time>
      </trkpt>
      <trkpt lat="48.82773" lon="-0.38323">
        <ele>88</ele>
        <time>2016-05-21T17:20:03Z</time>
      </trkpt>
      <trkpt lat="48.82773" lon="-0.383">
        <ele>89</ele>
        <time>2016-05-21T17:20:06Z</time>
      </trkpt>
      <trkpt lat="48.82765" lon="-0.38283">
        <ele>89</ele>
        <time>2016-05-21T17:20:11Z</time>
      </trkpt>
      <trkpt lat="48.8276" lon="-0.38255">
        <ele>90</ele>
        <time>2016-05-21T17:20:17Z</time>
      </trkpt>
      <trkpt lat="48.82755" lon="-0.3823">
        <ele>92</ele>
        <time>2016-05-21T17:20:23Z</time>
      </trkpt>
      <trkpt lat="48.82748" lon="-0.38205">
        <ele>91</ele>
        <time>2016-05-21T17:20:30Z</time>
      </trkpt>
      <trkpt lat="48.82743" lon="-0.38185">
        <ele>91</ele>
        <time>2016-05-21T17:20:35Z</time>
      </trkpt>
      <trkpt lat="48.82738" lon="-0.38165">
        <ele>93</ele>
        <time>2016-05-21T17:20:42Z</time>
      </trkpt>
      <trkpt lat="48.82733" lon="-0.38145">
        <ele>93</ele>
        <time>2016-05-21T17:20:49Z</time>
      </trkpt>
      <trkpt lat="48.8273" lon="-0.38123">
        <ele>94</ele>
        <time>2016-05-21T17:20:55Z</time>
      </trkpt>
      <trkpt lat="48.82718" lon="-0.38103">
        <ele>96</ele>
        <time>2016-05-21T17:21:08Z</time>
      </trkpt>
      <trkpt lat="48.8271" lon="-0.38085">
        <ele>97</ele>
        <time>2016-05-21T17:21:13Z</time>
      </trkpt>
      <trkpt lat="48.82695" lon="-0.38058">
        <ele>100</ele>
        <time>2016-05-21T17:21:25Z</time>
      </trkpt>
      <trkpt lat="48.82683" lon="-0.38043">
        <ele>101</ele>
        <time>2016-05-21T17:21:32Z</time>
      </trkpt>
      <trkpt lat="48.8267" lon="-0.38028">
        <ele>104</ele>
        <time>2016-05-21T17:21:39Z</time>
      </trkpt>
      <trkpt lat="48.82658" lon="-0.38015">
        <ele>106</ele>
        <time>2016-05-21T17:21:46Z</time>
      </trkpt>
      <trkpt lat="48.82645" lon="-0.38">
        <ele>108</ele>
        <time>2016-05-21T17:21:53Z</time>
      </trkpt>
      <trkpt lat="48.82635" lon="-0.37985">
        <ele>111</ele>
        <time>2016-05-21T17:22:01Z</time>
      </trkpt>
      <trkpt lat="48.82623" lon="-0.37975">
        <ele>114</ele>
        <time>2016-05-21T17:22:08Z</time>
      </trkpt>
      <trkpt lat="48.8261" lon="-0.37965">
        <ele>115</ele>
        <time>2016-05-21T17:22:16Z</time>
      </trkpt>
      <trkpt lat="48.82598" lon="-0.37955">
        <ele>115</ele>
        <time>2016-05-21T17:22:22Z</time>
      </trkpt>
      <trkpt lat="48.82585" lon="-0.37945">
        <ele>116</ele>
        <time>2016-05-21T17:22:29Z</time>
      </trkpt>
      <trkpt lat="48.82573" lon="-0.37933">
        <ele>118</ele>
        <time>2016-05-21T17:22:36Z</time>
      </trkpt>
      <trkpt lat="48.82553" lon="-0.37913">
        <ele>124</ele>
        <time>2016-05-21T17:22:53Z</time>
      </trkpt>
      <trkpt lat="48.8254" lon="-0.3789">
        <ele>127</ele>
        <time>2016-05-21T17:23:03Z</time>
      </trkpt>
      <trkpt lat="48.82528" lon="-0.3788">
        <ele>129</ele>
        <time>2016-05-21T17:23:11Z</time>
      </trkpt>
      <trkpt lat="48.825" lon="-0.37843">
        <ele>142</ele>
        <time>2016-05-21T17:24:05Z</time>
      </trkpt>
      <trkpt lat="48.82493" lon="-0.37825">
        <ele>142</ele>
        <time>2016-05-21T17:24:13Z</time>
      </trkpt>
      <trkpt lat="48.8248" lon="-0.37813">
        <ele>144</ele>
        <time>2016-05-21T17:24:19Z</time>
      </trkpt>
      <trkpt lat="48.8247" lon="-0.37798">
        <ele>144</ele>
        <time>2016-05-21T17:24:27Z</time>
      </trkpt>
      <trkpt lat="48.8246" lon="-0.37783">
        <ele>145</ele>
        <time>2016-05-21T17:24:34Z</time>
      </trkpt>
      <trkpt lat="48.82448" lon="-0.37768">
        <ele>143</ele>
        <time>2016-05-21T17:24:41Z</time>
      </trkpt>
      <trkpt lat="48.82438" lon="-0.3775">
        <ele>144</ele>
        <time>2016-05-21T17:24:47Z</time>
      </trkpt>
      <trkpt lat="48.82443" lon="-0.37728">
        <ele>146</ele>
        <time>2016-05-21T17:24:56Z</time>
      </trkpt>
      <trkpt lat="48.82455" lon="-0.37713">
        <ele>149</ele>
        <time>2016-05-21T17:25:05Z</time>
      </trkpt>
      <trkpt lat="48.8247" lon="-0.37708">
        <ele>155</ele>
        <time>2016-05-21T17:25:13Z</time>
      </trkpt>
      <trkpt lat="48.82488" lon="-0.37703">
        <ele>160</ele>
        <time>2016-05-21T17:25:22Z</time>
      </trkpt>
      <trkpt lat="48.82503" lon="-0.377">
        <ele>164</ele>
        <time>2016-05-21T17:25:29Z</time>
      </trkpt>
      <trkpt lat="48.82518" lon="-0.37698">
        <ele>169</ele>
        <time>2016-05-21T17:25:38Z</time>
      </trkpt>
      <trkpt lat="48.82518" lon="-0.37673">
        <ele>173</ele>
        <time>2016-05-21T17:25:55Z</time>
      </trkpt>
      <trkpt lat="48.82508" lon="-0.37655">
        <ele>174</ele>
        <time>2016-05-21T17:26:05Z</time>
      </trkpt>
      <trkpt lat="48.82498" lon="-0.3764">
        <ele>175</ele>
        <time>2016-05-21T17:26:14Z</time>
      </trkpt>
      <trkpt lat="48.82493" lon="-0.3762">
        <ele>177</ele>
        <time>2016-05-21T17:26:21Z</time>
      </trkpt>
      <trkpt lat="48.8249" lon="-0.37598">
        <ele>177</ele>
        <time>2016-05-21T17:26:29Z</time>
      </trkpt>
      <trkpt lat="48.82488" lon="-0.37575">
        <ele>178</ele>
        <time>2016-05-21T17:26:37Z</time>
      </trkpt>
      <trkpt lat="48.82488" lon="-0.37553">
        <ele>180</ele>
        <time>2016-05-21T17:26:45Z</time>
      </trkpt>
      <trkpt lat="48.82503" lon="-0.37545">
        <ele>185</ele>
        <time>2016-05-21T17:27:10Z</time>
      </trkpt>
      <trkpt lat="48.82518" lon="-0.3755">
        <ele>187</ele>
        <time>2016-05-21T17:27:20Z</time>
      </trkpt>
      <trkpt lat="48.82533" lon="-0.37553">
        <ele>187</ele>
        <time>2016-05-21T17:27:27Z</time>
      </trkpt>
      <trkpt lat="48.82548" lon="-0.37558">
        <ele>188</ele>
        <time>2016-05-21T17:27:36Z</time>
      </trkpt>
      <trkpt lat="48.82563" lon="-0.37555">
        <ele>189</ele>
        <time>2016-05-21T17:27:45Z</time>
      </trkpt>
      <trkpt lat="48.8256" lon="-0.37533">
        <ele>191</ele>
        <time>2016-05-21T17:28:29Z</time>
      </trkpt>
      <trkpt lat="48.82553" lon="-0.37515">
        <ele>190</ele>
        <time>2016-05-21T17:28:36Z</time>
      </trkpt>
      <trkpt lat="48.82545" lon="-0.37495">
        <ele>191</ele>
        <time>2016-05-21T17:28:45Z</time>
      </trkpt>
      <trkpt lat="48.82535" lon="-0.3748">
        <ele>191</ele>
        <time>2016-05-21T17:28:53Z</time>
      </trkpt>
      <trkpt lat="48.8253" lon="-0.3746">
        <ele>191</ele>
        <time>2016-05-21T17:29:02Z</time>
      </trkpt>
      <trkpt lat="48.8252" lon="-0.37445">
        <ele>191</ele>
        <time>2016-05-21T17:29:09Z</time>
      </trkpt>
      <trkpt lat="48.82515" lon="-0.37425">
        <ele>193</ele>
        <time>2016-05-21T17:30:02Z</time>
      </trkpt>
      <trkpt lat="48.82503" lon="-0.3741">
        <ele>192</ele>
        <time>2016-05-21T17:30:14Z</time>
      </trkpt>
      <trkpt lat="48.82495" lon="-0.37393">
        <ele>191</ele>
        <time>2016-05-21T17:30:21Z</time>
      </trkpt>
      <trkpt lat="48.82485" lon="-0.37378">
        <ele>191</ele>
        <time>2016-05-21T17:30:27Z</time>
      </trkpt>
      <trkpt lat="48.8247" lon="-0.37373">
        <ele>190</ele>
        <time>2016-05-21T17:35:00Z</time>
      </trkpt>
      <trkpt lat="48.82455" lon="-0.37368">
        <ele>190</ele>
        <time>2016-05-21T17:35:04Z</time>
      </trkpt>
      <trkpt lat="48.82443" lon="-0.37353">
        <ele>190</ele>
        <time>2016-05-21T17:35:08Z</time>
      </trkpt>
      <trkpt lat="48.8243" lon="-0.3734">
        <ele>190</ele>
        <time>2016-05-21T17:35:13Z</time>
      </trkpt>
      <trkpt lat="48.82415" lon="-0.37323">
        <ele>191</ele>
        <time>2016-05-21T17:35:21Z</time>
      </trkpt>
      <trkpt lat="48.82403" lon="-0.37308">
        <ele>192</ele>
        <time>2016-05-21T17:35:26Z</time>
      </trkpt>
      <trkpt lat="48.8239" lon="-0.37293">
        <ele>195</ele>
        <time>2016-05-21T17:35:34Z</time>
      </trkpt>
      <trkpt lat="48.8238" lon="-0.37275">
        <ele>197</ele>
        <time>2016-05-21T17:35:42Z</time>
      </trkpt>
      <trkpt lat="48.8237" lon="-0.37258">
        <ele>198</ele>
        <time>2016-05-21T17:35:52Z</time>
      </trkpt>
      <trkpt lat="48.82358" lon="-0.37238">
        <ele>199</ele>
        <time>2016-05-21T17:36:00Z</time>
      </trkpt>
      <trkpt lat="48.82345" lon="-0.37225">
        <ele>200</ele>
        <time>2016-05-21T17:36:05Z</time>
      </trkpt>
      <trkpt lat="48.82338" lon="-0.37208">
        <ele>200</ele>
        <time>2016-05-21T17:36:11Z</time>
      </trkpt>
      <trkpt lat="48.82325" lon="-0.37195">
        <ele>202</ele>
        <time>2016-05-21T17:36:16Z</time>
      </trkpt>
      <trkpt lat="48.82315" lon="-0.3718">
        <ele>203</ele>
        <time>2016-05-21T17:36:21Z</time>
      </trkpt>
      <trkpt lat="48.82305" lon="-0.3716">
        <ele>206</ele>
        <time>2016-05-21T17:36:28Z</time>
      </trkpt>
      <trkpt lat="48.82298" lon="-0.37143">
        <ele>207</ele>
        <time>2016-05-21T17:36:33Z</time>
      </trkpt>
      <trkpt lat="48.8229" lon="-0.37123">
        <ele>208</ele>
        <time>2016-05-21T17:36:39Z</time>
      </trkpt>
      <trkpt lat="48.8228" lon="-0.37093">
        <ele>210</ele>
        <time>2016-05-21T17:36:46Z</time>
      </trkpt>
      <trkpt lat="48.82273" lon="-0.3707">
        <ele>211</ele>
        <time>2016-05-21T17:36:51Z</time>
      </trkpt>
      <trkpt lat="48.82265" lon="-0.3705">
        <ele>212</ele>
        <time>2016-05-21T17:36:57Z</time>
      </trkpt>
      <trkpt lat="48.82255" lon="-0.37025">
        <ele>213</ele>
        <time>2016-05-21T17:37:04Z</time>
      </trkpt>
      <trkpt lat="48.82248" lon="-0.37003">
        <ele>213</ele>
        <time>2016-05-21T17:37:11Z</time>
      </trkpt>
      <trkpt lat="48.82245" lon="-0.36978">
        <ele>214</ele>
        <time>2016-05-21T17:37:16Z</time>
      </trkpt>
      <trkpt lat="48.8224" lon="-0.36955">
        <ele>217</ele>
        <time>2016-05-21T17:37:23Z</time>
      </trkpt>
      <trkpt lat="48.82233" lon="-0.36935">
        <ele>218</ele>
        <time>2016-05-21T17:37:27Z</time>
      </trkpt>
      <trkpt lat="48.8222" lon="-0.36923">
        <ele>219</ele>
        <time>2016-05-21T17:37:33Z</time>
      </trkpt>
      <trkpt lat="48.82208" lon="-0.36933">
        <ele>219</ele>
        <time>2016-05-21T17:37:37Z</time>
      </trkpt>
      <trkpt lat="48.82195" lon="-0.36943">
        <ele>219</ele>
        <time>2016-05-21T17:37:42Z</time>
      </trkpt>
      <trkpt lat="48.82185" lon="-0.36958">
        <ele>221</ele>
        <time>2016-05-21T17:37:50Z</time>
      </trkpt>
      <trkpt lat="48.8217" lon="-0.36955">
        <ele>221</ele>
        <time>2016-05-21T17:37:57Z</time>
      </trkpt>
      <trkpt lat="48.8216" lon="-0.3694">
        <ele>221</ele>
        <time>2016-05-21T17:38:02Z</time>
      </trkpt>
      <trkpt lat="48.82153" lon="-0.36923">
        <ele>221</ele>
        <time>2016-05-21T17:38:06Z</time>
      </trkpt>
      <trkpt lat="48.82145" lon="-0.36903">
        <ele>222</ele>
        <time>2016-05-21T17:38:10Z</time>
      </trkpt>
      <trkpt lat="48.8214" lon="-0.36883">
        <ele>222</ele>
        <time>2016-05-21T17:38:13Z</time>
      </trkpt>
      <trkpt lat="48.82135" lon="-0.36863">
        <ele>222</ele>
        <time>2016-05-21T17:38:18Z</time>
      </trkpt>
      <trkpt lat="48.82128" lon="-0.36843">
        <ele>223</ele>
        <time>2016-05-21T17:38:22Z</time>
      </trkpt>
      <trkpt lat="48.82118" lon="-0.36825">
        <ele>223</ele>
        <time>2016-05-21T17:38:25Z</time>
      </trkpt>
      <trkpt lat="48.8211" lon="-0.36805">
        <ele>224</ele>
        <time>2016-05-21T17:38:28Z</time>
      </trkpt>
      <trkpt lat="48.82103" lon="-0.36788">
        <ele>225</ele>
        <time>2016-05-21T17:38:31Z</time>
      </trkpt>
      <trkpt lat="48.82095" lon="-0.36768">
        <ele>225</ele>
        <time>2016-05-21T17:38:35Z</time>
      </trkpt>
      <trkpt lat="48.82088" lon="-0.36745">
        <ele>226</ele>
        <time>2016-05-21T17:38:39Z</time>
      </trkpt>
      <trkpt lat="48.82078" lon="-0.3673">
        <ele>226</ele>
        <time>2016-05-21T17:38:42Z</time>
      </trkpt>
      <trkpt lat="48.82065" lon="-0.3671">
        <ele>227</ele>
        <time>2016-05-21T17:38:47Z</time>
      </trkpt>
      <trkpt lat="48.82048" lon="-0.36685">
        <ele>228</ele>
        <time>2016-05-21T17:38:54Z</time>
      </trkpt>
      <trkpt lat="48.8204" lon="-0.36668">
        <ele>229</ele>
        <time>2016-05-21T17:39:00Z</time>
      </trkpt>
      <trkpt lat="48.82033" lon="-0.3665">
        <ele>229</ele>
        <time>2016-05-21T17:39:05Z</time>
      </trkpt>
      <trkpt lat="48.8202" lon="-0.3664">
        <ele>229</ele>
        <time>2016-05-21T17:39:08Z</time>
      </trkpt>
      <trkpt lat="48.82" lon="-0.36623">
        <ele>230</ele>
        <time>2016-05-21T17:39:13Z</time>
      </trkpt>
      <trkpt lat="48.81988" lon="-0.36608">
        <ele>231</ele>
        <time>2016-05-21T17:39:18Z</time>
      </trkpt>
      <trkpt lat="48.81975" lon="-0.3659">
        <ele>232</ele>
        <time>2016-05-21T17:39:21Z</time>
      </trkpt>
      <trkpt lat="48.81963" lon="-0.3657">
        <ele>233</ele>
        <time>2016-05-21T17:39:27Z</time>
      </trkpt>
      <trkpt lat="48.81948" lon="-0.36548">
        <ele>234</ele>
        <time>2016-05-21T17:39:33Z</time>
      </trkpt>
      <trkpt lat="48.81938" lon="-0.3653">
        <ele>236</ele>
        <time>2016-05-21T17:39:37Z</time>
      </trkpt>
      <trkpt lat="48.81928" lon="-0.36513">
        <ele>237</ele>
        <time>2016-05-21T17:39:43Z</time>
      </trkpt>
      <trkpt lat="48.81918" lon="-0.36495">
        <ele>239</ele>
        <time>2016-05-21T17:39:48Z</time>
      </trkpt>
      <trkpt lat="48.8189" lon="-0.36463">
        <ele>240</ele>
        <time>2016-05-21T17:39:59Z</time>
      </trkpt>
      <trkpt lat="48.81875" lon="-0.36455">
        <ele>240</ele>
        <time>2016-05-21T17:40:03Z</time>
      </trkpt>
      <trkpt lat="48.8186" lon="-0.36445">
        <ele>240</ele>
        <time>2016-05-21T17:40:09Z</time>
      </trkpt>
      <trkpt lat="48.81848" lon="-0.36435">
        <ele>239</ele>
        <time>2016-05-21T17:40:13Z</time>
      </trkpt>
      <trkpt lat="48.81835" lon="-0.36423">
        <ele>240</ele>
        <time>2016-05-21T17:40:18Z</time>
      </trkpt>
      <trkpt lat="48.81823" lon="-0.36413">
        <ele>241</ele>
        <time>2016-05-21T17:40:21Z</time>
      </trkpt>
      <trkpt lat="48.81808" lon="-0.364">
        <ele>240</ele>
        <time>2016-05-21T17:40:27Z</time>
      </trkpt>
      <trkpt lat="48.81793" lon="-0.36393">
        <ele>241</ele>
        <time>2016-05-21T17:40:31Z</time>
      </trkpt>
      <trkpt lat="48.81778" lon="-0.36388">
        <ele>241</ele>
        <time>2016-05-21T17:40:35Z</time>
      </trkpt>
      <trkpt lat="48.81763" lon="-0.36385">
        <ele>241</ele>
        <time>2016-05-21T17:40:39Z</time>
      </trkpt>
      <trkpt lat="48.81748" lon="-0.36385">
        <ele>241</ele>
        <time>2016-05-21T17:40:42Z</time>
      </trkpt>
      <trkpt lat="48.8173" lon="-0.36388">
        <ele>241</ele>
        <time>2016-05-21T17:40:47Z</time>
      </trkpt>
      <trkpt lat="48.8171" lon="-0.36388">
        <ele>241</ele>
        <time>2016-05-21T17:40:51Z</time>
      </trkpt>
      <trkpt lat="48.81695" lon="-0.36383">
        <ele>241</ele>
        <time>2016-05-21T17:40:55Z</time>
      </trkpt>
      <trkpt lat="48.8168" lon="-0.36373">
        <ele>240</ele>
        <time>2016-05-21T17:40:58Z</time>
      </trkpt>
      <trkpt lat="48.81668" lon="-0.3636">
        <ele>240</ele>
        <time>2016-05-21T17:41:04Z</time>
      </trkpt>
      <trkpt lat="48.81653" lon="-0.36358">
        <ele>244</ele>
        <time>2016-05-21T17:41:30Z</time>
      </trkpt>
      <trkpt lat="48.8164" lon="-0.3637">
        <ele>242</ele>
        <time>2016-05-21T17:41:37Z</time>
      </trkpt>
      <trkpt lat="48.8163" lon="-0.36385">
        <ele>241</ele>
        <time>2016-05-21T17:41:43Z</time>
      </trkpt>
      <trkpt lat="48.81623" lon="-0.36403">
        <ele>240</ele>
        <time>2016-05-21T17:41:47Z</time>
      </trkpt>
      <trkpt lat="48.81615" lon="-0.36423">
        <ele>240</ele>
        <time>2016-05-21T17:41:52Z</time>
      </trkpt>
      <trkpt lat="48.81605" lon="-0.3644">
        <ele>240</ele>
        <time>2016-05-21T17:41:58Z</time>
      </trkpt>
      <trkpt lat="48.81598" lon="-0.36458">
        <ele>238</ele>
        <time>2016-05-21T17:42:02Z</time>
      </trkpt>
      <trkpt lat="48.81585" lon="-0.36475">
        <ele>239</ele>
        <time>2016-05-21T17:42:09Z</time>
      </trkpt>
      <trkpt lat="48.8157" lon="-0.36475">
        <ele>239</ele>
        <time>2016-05-21T17:42:14Z</time>
      </trkpt>
      <trkpt lat="48.81555" lon="-0.3647">
        <ele>240</ele>
        <time>2016-05-21T17:42:18Z</time>
      </trkpt>
      <trkpt lat="48.8154" lon="-0.36475">
        <ele>241</ele>
        <time>2016-05-21T17:42:25Z</time>
      </trkpt>
      <trkpt lat="48.81528" lon="-0.36485">
        <ele>242</ele>
        <time>2016-05-21T17:42:30Z</time>
      </trkpt>
      <trkpt lat="48.81513" lon="-0.36495">
        <ele>242</ele>
        <time>2016-05-21T17:42:35Z</time>
      </trkpt>
      <trkpt lat="48.81495" lon="-0.36503">
        <ele>244</ele>
        <time>2016-05-21T17:42:41Z</time>
      </trkpt>
      <trkpt lat="48.8147" lon="-0.36515">
        <ele>243</ele>
        <time>2016-05-21T17:42:47Z</time>
      </trkpt>
      <trkpt lat="48.8144" lon="-0.36535">
        <ele>244</ele>
        <time>2016-05-21T17:42:54Z</time>
      </trkpt>
      <trkpt lat="48.81428" lon="-0.36548">
        <ele>245</ele>
        <time>2016-05-21T17:42:58Z</time>
      </trkpt>
      <trkpt lat="48.81413" lon="-0.36565">
        <ele>245</ele>
        <time>2016-05-21T17:43:03Z</time>
      </trkpt>
      <trkpt lat="48.814" lon="-0.36585">
        <ele>244</ele>
        <time>2016-05-21T17:43:06Z</time>
      </trkpt>
      <trkpt lat="48.81385" lon="-0.36595">
        <ele>244</ele>
        <time>2016-05-21T17:43:10Z</time>
      </trkpt>
      <trkpt lat="48.81373" lon="-0.36608">
        <ele>244</ele>
        <time>2016-05-21T17:43:13Z</time>
      </trkpt>
      <trkpt lat="48.81375" lon="-0.3663">
        <ele>239</ele>
        <time>2016-05-21T17:44:33Z</time>
      </trkpt>
      <trkpt lat="48.81385" lon="-0.36648">
        <ele>238</ele>
        <time>2016-05-21T17:44:36Z</time>
      </trkpt>
      <trkpt lat="48.81393" lon="-0.36668">
        <ele>237</ele>
        <time>2016-05-21T17:44:40Z</time>
      </trkpt>
      <trkpt lat="48.81398" lon="-0.3669">
        <ele>237</ele>
        <time>2016-05-21T17:44:43Z</time>
      </trkpt>
      <trkpt lat="48.81403" lon="-0.36715">
        <ele>236</ele>
        <time>2016-05-21T17:44:46Z</time>
      </trkpt>
      <trkpt lat="48.81398" lon="-0.36745">
        <ele>236</ele>
        <time>2016-05-21T17:44:49Z</time>
      </trkpt>
      <trkpt lat="48.8139" lon="-0.36775">
        <ele>235</ele>
        <time>2016-05-21T17:44:52Z</time>
      </trkpt>
      <trkpt lat="48.8138" lon="-0.36805">
        <ele>234</ele>
        <time>2016-05-21T17:44:55Z</time>
      </trkpt>
      <trkpt lat="48.81368" lon="-0.3683">
        <ele>234</ele>
        <time>2016-05-21T17:44:58Z</time>
      </trkpt>
      <trkpt lat="48.81355" lon="-0.3686">
        <ele>232</ele>
        <time>2016-05-21T17:45:01Z</time>
      </trkpt>
      <trkpt lat="48.81345" lon="-0.3688">
        <ele>231</ele>
        <time>2016-05-21T17:45:03Z</time>
      </trkpt>
      <trkpt lat="48.8133" lon="-0.3691">
        <ele>229</ele>
        <time>2016-05-21T17:45:06Z</time>
      </trkpt>
      <trkpt lat="48.81323" lon="-0.3693">
        <ele>228</ele>
        <time>2016-05-21T17:45:08Z</time>
      </trkpt>
      <trkpt lat="48.81313" lon="-0.36963">
        <ele>227</ele>
        <time>2016-05-21T17:45:10Z</time>
      </trkpt>
      <trkpt lat="48.81308" lon="-0.36985">
        <ele>226</ele>
        <time>2016-05-21T17:45:13Z</time>
      </trkpt>
      <trkpt lat="48.81315" lon="-0.37003">
        <ele>224</ele>
        <time>2016-05-21T17:45:18Z</time>
      </trkpt>
      <trkpt lat="48.81328" lon="-0.37018">
        <ele>225</ele>
        <time>2016-05-21T17:45:21Z</time>
      </trkpt>
      <trkpt lat="48.81338" lon="-0.37033">
        <ele>226</ele>
        <time>2016-05-21T17:45:27Z</time>
      </trkpt>
      <trkpt lat="48.8135" lon="-0.37043">
        <ele>227</ele>
        <time>2016-05-21T17:45:32Z</time>
      </trkpt>
      <trkpt lat="48.81365" lon="-0.37043">
        <ele>228</ele>
        <time>2016-05-21T17:45:38Z</time>
      </trkpt>
      <trkpt lat="48.81375" lon="-0.37058">
        <ele>226</ele>
        <time>2016-05-21T17:45:55Z</time>
      </trkpt>
      <trkpt lat="48.8137" lon="-0.37078">
        <ele>227</ele>
        <time>2016-05-21T17:46:04Z</time>
      </trkpt>
      <trkpt lat="48.81378" lon="-0.37095">
        <ele>226</ele>
        <time>2016-05-21T17:46:11Z</time>
      </trkpt>
      <trkpt lat="48.81378" lon="-0.37118">
        <ele>227</ele>
        <time>2016-05-21T17:46:19Z</time>
      </trkpt>
      <trkpt lat="48.81368" lon="-0.37133">
        <ele>227</ele>
        <time>2016-05-21T17:46:29Z</time>
      </trkpt>
      <trkpt lat="48.81353" lon="-0.3714">
        <ele>226</ele>
        <time>2016-05-21T17:46:36Z</time>
      </trkpt>
      <trkpt lat="48.81345" lon="-0.37123">
        <ele>226</ele>
        <time>2016-05-21T17:46:42Z</time>
      </trkpt>
      <trkpt lat="48.81343" lon="-0.371">
        <ele>226</ele>
        <time>2016-05-21T17:46:48Z</time>
      </trkpt>
      <trkpt lat="48.81343" lon="-0.37078">
        <ele>227</ele>
        <time>2016-05-21T17:46:55Z</time>
      </trkpt>
      <trkpt lat="48.81353" lon="-0.37063">
        <ele>226</ele>
        <time>2016-05-21T17:47:01Z</time>
      </trkpt>
      <trkpt lat="48.81348" lon="-0.37043">
        <ele>227</ele>
        <time>2016-05-21T17:47:07Z</time>
      </trkpt>
      <trkpt lat="48.81333" lon="-0.37053">
        <ele>227</ele>
        <time>2016-05-21T17:47:10Z</time>
      </trkpt>
      <trkpt lat="48.81318" lon="-0.37063">
        <ele>227</ele>
        <time>2016-05-21T17:47:15Z</time>
      </trkpt>
      <trkpt lat="48.81305" lon="-0.37075">
        <ele>227</ele>
        <time>2016-05-21T17:47:19Z</time>
      </trkpt>
      <trkpt lat="48.81305" lon="-0.37103">
        <ele>226</ele>
        <time>2016-05-21T17:47:23Z</time>
      </trkpt>
      <trkpt lat="48.81303" lon="-0.37128">
        <ele>227</ele>
        <time>2016-05-21T17:47:27Z</time>
      </trkpt>
      <trkpt lat="48.813" lon="-0.37158">
        <ele>227</ele>
        <time>2016-05-21T17:47:32Z</time>
      </trkpt>
      <trkpt lat="48.81298" lon="-0.3718">
        <ele>228</ele>
        <time>2016-05-21T17:47:37Z</time>
      </trkpt>
      <trkpt lat="48.8129" lon="-0.372">
        <ele>228</ele>
        <time>2016-05-21T17:47:40Z</time>
      </trkpt>
      <trkpt lat="48.81283" lon="-0.37218">
        <ele>228</ele>
        <time>2016-05-21T17:47:43Z</time>
      </trkpt>
      <trkpt lat="48.81273" lon="-0.37235">
        <ele>228</ele>
        <time>2016-05-21T17:47:46Z</time>
      </trkpt>
      <trkpt lat="48.81258" lon="-0.3727">
        <ele>226</ele>
        <time>2016-05-21T17:47:51Z</time>
      </trkpt>
      <trkpt lat="48.81273" lon="-0.37288">
        <ele>225</ele>
        <time>2016-05-21T17:47:56Z</time>
      </trkpt>
      <trkpt lat="48.81285" lon="-0.37303">
        <ele>224</ele>
        <time>2016-05-21T17:47:59Z</time>
      </trkpt>
      <trkpt lat="48.81288" lon="-0.37328">
        <ele>223</ele>
        <time>2016-05-21T17:48:02Z</time>
      </trkpt>
      <trkpt lat="48.8128" lon="-0.37353">
        <ele>224</ele>
        <time>2016-05-21T17:48:05Z</time>
      </trkpt>
      <trkpt lat="48.81275" lon="-0.37373">
        <ele>224</ele>
        <time>2016-05-21T17:48:08Z</time>
      </trkpt>
      <trkpt lat="48.81268" lon="-0.37393">
        <ele>223</ele>
        <time>2016-05-21T17:48:11Z</time>
      </trkpt>
      <trkpt lat="48.81258" lon="-0.37423">
        <ele>223</ele>
        <time>2016-05-21T17:48:16Z</time>
      </trkpt>
      <trkpt lat="48.81253" lon="-0.37445">
        <ele>222</ele>
        <time>2016-05-21T17:48:19Z</time>
      </trkpt>
      <trkpt lat="48.8125" lon="-0.37468">
        <ele>222</ele>
        <time>2016-05-21T17:48:22Z</time>
      </trkpt>
      <trkpt lat="48.81238" lon="-0.37483">
        <ele>223</ele>
        <time>2016-05-21T17:48:29Z</time>
      </trkpt>
      <trkpt lat="48.81225" lon="-0.37493">
        <ele>223</ele>
        <time>2016-05-21T17:48:34Z</time>
      </trkpt>
      <trkpt lat="48.8121" lon="-0.3751">
        <ele>223</ele>
        <time>2016-05-21T17:48:40Z</time>
      </trkpt>
      <trkpt lat="48.8119" lon="-0.37535">
        <ele>223</ele>
        <time>2016-05-21T17:48:45Z</time>
      </trkpt>
      <trkpt lat="48.81183" lon="-0.37553">
        <ele>223</ele>
        <time>2016-05-21T17:48:49Z</time>
      </trkpt>
      <trkpt lat="48.81173" lon="-0.3757">
        <ele>224</ele>
        <time>2016-05-21T17:48:53Z</time>
      </trkpt>
      <trkpt lat="48.81165" lon="-0.37595">
        <ele>224</ele>
        <time>2016-05-21T17:48:58Z</time>
      </trkpt>
      <trkpt lat="48.81158" lon="-0.37615">
        <ele>224</ele>
        <time>2016-05-21T17:49:01Z</time>
      </trkpt>
      <trkpt lat="48.81153" lon="-0.37638">
        <ele>225</ele>
        <time>2016-05-21T17:49:03Z</time>
      </trkpt>
      <trkpt lat="48.81153" lon="-0.3766">
        <ele>222</ele>
        <time>2016-05-21T17:49:07Z</time>
      </trkpt>
      <trkpt lat="48.81153" lon="-0.3769">
        <ele>217</ele>
        <time>2016-05-21T17:49:10Z</time>
      </trkpt>
      <trkpt lat="48.81153" lon="-0.37715">
        <ele>214</ele>
        <time>2016-05-21T17:49:13Z</time>
      </trkpt>
      <trkpt lat="48.8115" lon="-0.37748">
        <ele>211</ele>
        <time>2016-05-21T17:49:16Z</time>
      </trkpt>
      <trkpt lat="48.81153" lon="-0.3777">
        <ele>208</ele>
        <time>2016-05-21T17:49:19Z</time>
      </trkpt>
      <trkpt lat="48.8116" lon="-0.37803">
        <ele>205</ele>
        <time>2016-05-21T17:49:22Z</time>
      </trkpt>
      <trkpt lat="48.81175" lon="-0.3783">
        <ele>201</ele>
        <time>2016-05-21T17:49:25Z</time>
      </trkpt>
      <trkpt lat="48.81193" lon="-0.37855">
        <ele>197</ele>
        <time>2016-05-21T17:49:28Z</time>
      </trkpt>
      <trkpt lat="48.81205" lon="-0.37873">
        <ele>195</ele>
        <time>2016-05-21T17:49:31Z</time>
      </trkpt>
      <trkpt lat="48.81218" lon="-0.37885">
        <ele>193</ele>
        <time>2016-05-21T17:49:35Z</time>
      </trkpt>
      <trkpt lat="48.81233" lon="-0.37893">
        <ele>197</ele>
        <time>2016-05-21T17:49:48Z</time>
      </trkpt>
      <trkpt lat="48.81243" lon="-0.3791">
        <ele>197</ele>
        <time>2016-05-21T17:49:56Z</time>
      </trkpt>
      <trkpt lat="48.81255" lon="-0.37928">
        <ele>196</ele>
        <time>2016-05-21T17:50:04Z</time>
      </trkpt>
      <trkpt lat="48.81268" lon="-0.3794">
        <ele>194</ele>
        <time>2016-05-21T17:50:13Z</time>
      </trkpt>
      <trkpt lat="48.81285" lon="-0.3795">
        <ele>192</ele>
        <time>2016-05-21T17:50:19Z</time>
      </trkpt>
      <trkpt lat="48.81303" lon="-0.37958">
        <ele>189</ele>
        <time>2016-05-21T17:50:24Z</time>
      </trkpt>
      <trkpt lat="48.81323" lon="-0.37965">
        <ele>189</ele>
        <time>2016-05-21T17:50:29Z</time>
      </trkpt>
      <trkpt lat="48.8134" lon="-0.37965">
        <ele>189</ele>
        <time>2016-05-21T17:50:36Z</time>
      </trkpt>
      <trkpt lat="48.81355" lon="-0.3797">
        <ele>188</ele>
        <time>2016-05-21T17:50:42Z</time>
      </trkpt>
      <trkpt lat="48.81373" lon="-0.3798">
        <ele>188</ele>
        <time>2016-05-21T17:50:45Z</time>
      </trkpt>
      <trkpt lat="48.81385" lon="-0.37993">
        <ele>189</ele>
        <time>2016-05-21T17:50:49Z</time>
      </trkpt>
      <trkpt lat="48.814" lon="-0.38008">
        <ele>184</ele>
        <time>2016-05-21T17:50:51Z</time>
      </trkpt>
      <trkpt lat="48.81418" lon="-0.38008">
        <ele>184</ele>
        <time>2016-05-21T17:50:54Z</time>
      </trkpt>
      <trkpt lat="48.81435" lon="-0.38003">
        <ele>183</ele>
        <time>2016-05-21T17:50:57Z</time>
      </trkpt>
      <trkpt lat="48.8145" lon="-0.37998">
        <ele>182</ele>
        <time>2016-05-21T17:51:00Z</time>
      </trkpt>
      <trkpt lat="48.81465" lon="-0.3799">
        <ele>182</ele>
        <time>2016-05-21T17:51:04Z</time>
      </trkpt>
      <trkpt lat="48.8148" lon="-0.37975">
        <ele>182</ele>
        <time>2016-05-21T17:51:07Z</time>
      </trkpt>
      <trkpt lat="48.81493" lon="-0.3796">
        <ele>182</ele>
        <time>2016-05-21T17:51:10Z</time>
      </trkpt>
      <trkpt lat="48.81515" lon="-0.37943">
        <ele>182</ele>
        <time>2016-05-21T17:51:13Z</time>
      </trkpt>
      <trkpt lat="48.81535" lon="-0.37943">
        <ele>181</ele>
        <time>2016-05-21T17:51:16Z</time>
      </trkpt>
      <trkpt lat="48.81558" lon="-0.37945">
        <ele>182</ele>
        <time>2016-05-21T17:51:19Z</time>
      </trkpt>
      <trkpt lat="48.81578" lon="-0.37948">
        <ele>176</ele>
        <time>2016-05-21T17:51:25Z</time>
      </trkpt>
      <trkpt lat="48.81585" lon="-0.37968">
        <ele>172</ele>
        <time>2016-05-21T17:51:28Z</time>
      </trkpt>
      <trkpt lat="48.81595" lon="-0.37983">
        <ele>172</ele>
        <time>2016-05-21T17:51:31Z</time>
      </trkpt>
      <trkpt lat="48.8159" lon="-0.38008">
        <ele>173</ele>
        <time>2016-05-21T17:51:39Z</time>
      </trkpt>
      <trkpt lat="48.8158" lon="-0.38025">
        <ele>171</ele>
        <time>2016-05-21T17:51:42Z</time>
      </trkpt>
      <trkpt lat="48.81563" lon="-0.38058">
        <ele>168</ele>
        <time>2016-05-21T17:51:47Z</time>
      </trkpt>
      <trkpt lat="48.81555" lon="-0.38075">
        <ele>167</ele>
        <time>2016-05-21T17:51:50Z</time>
      </trkpt>
      <trkpt lat="48.81548" lon="-0.38098">
        <ele>165</ele>
        <time>2016-05-21T17:51:53Z</time>
      </trkpt>
      <trkpt lat="48.8154" lon="-0.3812">
        <ele>164</ele>
        <time>2016-05-21T17:51:57Z</time>
      </trkpt>
      <trkpt lat="48.81535" lon="-0.38145">
        <ele>164</ele>
        <time>2016-05-21T17:52:02Z</time>
      </trkpt>
      <trkpt lat="48.81533" lon="-0.38168">
        <ele>164</ele>
        <time>2016-05-21T17:52:09Z</time>
      </trkpt>
      <trkpt lat="48.81538" lon="-0.38188">
        <ele>164</ele>
        <time>2016-05-21T17:52:15Z</time>
      </trkpt>
      <trkpt lat="48.81538" lon="-0.38213">
        <ele>163</ele>
        <time>2016-05-21T17:52:22Z</time>
      </trkpt>
      <trkpt lat="48.81528" lon="-0.38228">
        <ele>162</ele>
        <time>2016-05-21T17:52:27Z</time>
      </trkpt>
      <trkpt lat="48.8152" lon="-0.38248">
        <ele>162</ele>
        <time>2016-05-21T17:52:31Z</time>
      </trkpt>
      <trkpt lat="48.8152" lon="-0.38273">
        <ele>161</ele>
        <time>2016-05-21T17:52:36Z</time>
      </trkpt>
      <trkpt lat="48.8152" lon="-0.38298">
        <ele>160</ele>
        <time>2016-05-21T17:52:39Z</time>
      </trkpt>
      <trkpt lat="48.81523" lon="-0.38325">
        <ele>158</ele>
        <time>2016-05-21T17:52:43Z</time>
      </trkpt>
      <trkpt lat="48.81523" lon="-0.38353">
        <ele>159</ele>
        <time>2016-05-21T17:52:47Z</time>
      </trkpt>
      <trkpt lat="48.8152" lon="-0.38383">
        <ele>158</ele>
        <time>2016-05-21T17:52:52Z</time>
      </trkpt>
      <trkpt lat="48.81515" lon="-0.38415">
        <ele>158</ele>
        <time>2016-05-21T17:52:56Z</time>
      </trkpt>
      <trkpt lat="48.81513" lon="-0.38438">
        <ele>159</ele>
        <time>2016-05-21T17:52:58Z</time>
      </trkpt>
      <trkpt lat="48.81508" lon="-0.38458">
        <ele>159</ele>
        <time>2016-05-21T17:53:02Z</time>
      </trkpt>
      <trkpt lat="48.81505" lon="-0.3848">
        <ele>160</ele>
        <time>2016-05-21T17:53:05Z</time>
      </trkpt>
      <trkpt lat="48.815" lon="-0.38515">
        <ele>160</ele>
        <time>2016-05-21T17:53:11Z</time>
      </trkpt>
      <trkpt lat="48.81498" lon="-0.38538">
        <ele>160</ele>
        <time>2016-05-21T17:53:14Z</time>
      </trkpt>
      <trkpt lat="48.81498" lon="-0.3857">
        <ele>161</ele>
        <time>2016-05-21T17:53:20Z</time>
      </trkpt>
      <trkpt lat="48.81498" lon="-0.38595">
        <ele>160</ele>
        <time>2016-05-21T17:53:25Z</time>
      </trkpt>
      <trkpt lat="48.81493" lon="-0.3862">
        <ele>160</ele>
        <time>2016-05-21T17:53:31Z</time>
      </trkpt>
      <trkpt lat="48.81485" lon="-0.38638">
        <ele>162</ele>
        <time>2016-05-21T17:53:35Z</time>
      </trkpt>
      <trkpt lat="48.8148" lon="-0.38663">
        <ele>162</ele>
        <time>2016-05-21T17:53:40Z</time>
      </trkpt>
      <trkpt lat="48.81473" lon="-0.38683">
        <ele>163</ele>
        <time>2016-05-21T17:53:44Z</time>
      </trkpt>
      <trkpt lat="48.8146" lon="-0.38695">
        <ele>163</ele>
        <time>2016-05-21T17:53:47Z</time>
      </trkpt>
      <trkpt lat="48.81445" lon="-0.38708">
        <ele>164</ele>
        <time>2016-05-21T17:53:50Z</time>
      </trkpt>
      <trkpt lat="48.81428" lon="-0.3872">
        <ele>162</ele>
        <time>2016-05-21T17:53:52Z</time>
      </trkpt>
      <trkpt lat="48.81413" lon="-0.38728">
        <ele>162</ele>
        <time>2016-05-21T17:53:55Z</time>
      </trkpt>
      <trkpt lat="48.81398" lon="-0.38743">
        <ele>161</ele>
        <time>2016-05-21T17:53:59Z</time>
      </trkpt>
      <trkpt lat="48.8138" lon="-0.38755">
        <ele>159</ele>
        <time>2016-05-21T17:54:01Z</time>
      </trkpt>
      <trkpt lat="48.81363" lon="-0.38768">
        <ele>158</ele>
        <time>2016-05-21T17:54:05Z</time>
      </trkpt>
      <trkpt lat="48.81343" lon="-0.3878">
        <ele>155</ele>
        <time>2016-05-21T17:54:07Z</time>
      </trkpt>
      <trkpt lat="48.81328" lon="-0.3879">
        <ele>154</ele>
        <time>2016-05-21T17:54:10Z</time>
      </trkpt>
      <trkpt lat="48.81303" lon="-0.38798">
        <ele>154</ele>
        <time>2016-05-21T17:54:12Z</time>
      </trkpt>
      <trkpt lat="48.81288" lon="-0.38795">
        <ele>153</ele>
        <time>2016-05-21T17:54:14Z</time>
      </trkpt>
      <trkpt lat="48.8126" lon="-0.38788">
        <ele>151</ele>
        <time>2016-05-21T17:54:19Z</time>
      </trkpt>
      <trkpt lat="48.8125" lon="-0.38808">
        <ele>149</ele>
        <time>2016-05-21T17:54:24Z</time>
      </trkpt>
      <trkpt lat="48.81255" lon="-0.38833">
        <ele>147</ele>
        <time>2016-05-21T17:54:27Z</time>
      </trkpt>
      <trkpt lat="48.8126" lon="-0.38855">
        <ele>146</ele>
        <time>2016-05-21T17:54:30Z</time>
      </trkpt>
      <trkpt lat="48.81268" lon="-0.38875">
        <ele>145</ele>
        <time>2016-05-21T17:54:33Z</time>
      </trkpt>
      <trkpt lat="48.81283" lon="-0.38875">
        <ele>145</ele>
        <time>2016-05-21T17:54:38Z</time>
      </trkpt>
      <trkpt lat="48.813" lon="-0.38865">
        <ele>147</ele>
        <time>2016-05-21T17:54:44Z</time>
      </trkpt>
      <trkpt lat="48.81315" lon="-0.38873">
        <ele>146</ele>
        <time>2016-05-21T17:54:52Z</time>
      </trkpt>
      <trkpt lat="48.81315" lon="-0.38895">
        <ele>146</ele>
        <time>2016-05-21T17:54:58Z</time>
      </trkpt>
    </trkseg>
  </trk>
</gpx>